     2.10           OBSERVATION DATA    G (GPS)             RINEX VERSION / TYPE
teqc 2000Feb29 simon 20020108 09:29:10UTC                   PGM / RUN BY / DATE
Solaris 2.7|Ultra 2|cc SC5.0|=+-|*Sparc                     COMMENT
BIT 2 OF LLI FLAGS DATA COLLECTED UNDER A/S CONDITION       COMMENT
GS49                                                        MARKER NAME
gs49                                                        MARKER NUMBER
_BT -Unknown-                                               OBSERVER / AGENCY
488 ASHTECH Z-XII3 4J30                                     REC # / TYPE / VERS
009 ASH701933_M                                             ANT # / TYPE
 -2377250.0000 -4633040.0000  3672477.0000                  APPROX POSITION XYZ
        1.1274        0.0000        0.0000                  ANTENNA: DELTA H/E/N
     1     1                                                WAVELENGTH FACT L1/2
     7    L1    L2    C1    P1    P2    S1    S2            # / TYPES OF OBSERV
    30.0000                                                 INTERVAL
SNR is mapped to RINEX snr flag value [1-9]                 COMMENT
L1: 1 -> 1; 90 -> 5; 210 -> 9                               COMMENT
L2: 1 -> 1; 150 -> 5; 250 -> 9                              COMMENT
Original height was 1.2040                                  COMMENT
New height found assuming measured height 1.2040            COMMENT
and assuming radial 0.1737 vertical -0.0640                 COMMENT
  2001    12    19    20     8    0.0000000     GPS         TIME OF FIRST OBS
                                                            END OF HEADER
 01 12 19 20  8  0.0000000  0  4G31G 2G28G27
     15587.65053                  21754406.128
       214.000          74.000
      2326.00849      1249.71447  19183454.006    19183454.330    19183465.266
       243.000         207.000
     -7948.82547                  18504621.557                    18504630.220
       238.000         206.000
      2911.35847                  18878689.764                    18878701.121
       240.000         203.000
 01 12 19 20  8 30.0000000  0  9G31G 2G28G27G26G 7G 8G10G11
     74924.42845                  21768895.688                    21768917.270
       216.000         157.000
      5689.84649      3870.82847  19184094.636    19184094.403    19184105.336
       243.000         207.000
    -58083.60249    -38153.08847  18497245.562    18497245.574    18497254.269
       238.000         205.000
     21240.50149     14050.38347  18881410.410    18881410.451    18881421.644
       239.000         204.000
    -38829.33643                  21598494.463
       219.000          74.000
    -23986.85246                  20048020.736                    20048036.617
       231.000         183.000
    -25009.43849    -13908.08047  17737703.666    17737703.402    17737713.188
       237.000         205.000
     19864.02853                  22945155.906
       217.000          74.000
    -37331.65743                  21669067.725
       219.000          74.000
 01 12 19 20  9  0.0000000  0 10G31G 2G28G27G26G 7G 8G10G11G13
    185825.09459    134318.80255  24181740.961    24181740.646    24181759.631
       212.000         156.000
      9050.98549      6489.83847  21583074.172    21583073.724    21583084.658
       243.000         208.000
    -96703.22549    -68246.27947  20888236.470    20888236.185    20888244.827
       239.000         205.000
     35775.05349     25375.92847  21282516.264    21282516.025    21282527.292
       239.000         204.000
   -182066.82049   -122766.22045  23976335.303    23976335.555    23976352.048
       222.000         160.000
   -226115.94549   -115535.88946  22424003.424    22424003.448    22424019.055
       230.000         183.000
    -51732.14049    -34730.96347  20130958.364    20130957.925    20130967.782
       238.000         205.000
     49885.44045                  25350827.168
       213.000         150.000
    -93579.70945                  24053671.776                    24053688.794
       218.000         160.000
     56959.90444                  24540554.984
       210.000         124.000
 01 12 19 20  9 30.0000000  0 10G31G 2G28G27G26G 7G 8G10G11G13
    262250.04249    193870.42245  24196284.377    24196284.147    24196302.671
       213.000         154.000
     12499.79049      9177.15947  21583730.585    21583730.059    21583740.984
       243.000         208.000
   -135112.55949    -98175.61447  20880927.455    20880927.051    20880935.825
       238.000         205.000
     50645.94349     36963.55047  21285346.165    21285345.850    21285357.218
       238.000         204.000
   -289491.39049   -206473.51245  23955893.323    23955893.795    23955910.438
       223.000         161.000
   -343396.37549   -206922.98346  22401685.748    22401685.606    22401701.244
       232.000         184.000
    -78121.53949    -55294.12447  20125936.829    20125936.291    20125946.045
       238.000         205.000
    110800.75349     79984.73845  25358177.992    25358177.763    25358199.850
       213.000         149.000
   -213655.18849   -149612.14645  24039988.336    24039988.527    24040004.932
       219.000         161.000
    123121.72944                  24556712.500
       210.000         105.000
 01 12 19 20 10  0.0000000  0 10G31G 2G28G27G26G 7G 8G10G11G13
    338792.90049    253513.91045  24210850.200    24210849.778    24210868.546
       215.000         155.000
     15974.11449     11884.36647  21584391.819    21584391.232    21584402.175
       242.000         208.000
   -173362.71949   -127980.91547  20873648.726    20873648.256    20873657.132
       238.000         206.000
     65789.19749     48763.40447  21288227.919    21288227.555    21288238.963
       240.000         204.000
   -396650.40649   -289973.89645  23935501.767    23935502.080    23935518.733
       223.000         162.000
   -460496.28849   -298169.40146  22379402.469    22379402.226    22379417.732
       231.000         185.000
   -104229.96149    -75638.34847  20120968.639    20120968.031    20120977.777
       237.000         205.000
    149454.91459    110104.64055  25365533.601    25365532.985    25365557.247
       202.000         144.000
   -285325.45049   -205458.98145  24026349.943    24026349.428    24026366.228
       219.000         160.000
    263052.73749    189233.12545  24572857.817    24572859.642    24572884.162
       211.000         142.000
 01 12 19 20 10 30.0000000  0 10G31G 2G28G27G26G 7G 8G10G11G13
    415390.30149    313199.89545  24225426.376    24225425.837    24225444.679
       212.000         155.000
     19412.57249     14563.63747  21585046.233    21585045.584    21585056.524
       243.000         207.000
   -211515.02849   -157709.97247  20866388.620    20866388.101    20866397.047
       238.000         206.000
     81144.43649     60728.44747  21291150.016    21291149.616    21291161.029
       240.000         204.000
   -503602.27249   -373312.85645  23915149.554    23915149.694    23915166.461
       221.000         161.000
   -577474.18449   -389320.75146  22357142.411    22357142.059    22357157.462
       232.000         185.000
   -130117.19749    -95810.21547  20116042.459    20116041.818    20116051.638
       237.000         205.000
    188071.81549    140195.46245  25372882.061    25372881.209    25372905.048
       201.000         138.000
   -356815.71949   -261165.53845  24012745.659    24012745.052    24012762.450
       217.000         158.000
    347767.29549    255243.92045  24588978.652    24588979.749    24588997.488
       210.000         138.000
 01 12 19 20 11  0.0000000  0 10G31G 2G28G27G26G 7G 8G10G11G13
    492182.03749    373037.32045  24240039.568    24240038.881    24240057.791
       211.000         154.000
     22957.27949     17325.70247  21585720.845    21585720.145    21585731.070
       243.000         207.000
   -249427.68749   -187252.28147  20859174.034    20859173.527    20859182.580
       237.000         205.000
     96854.46249     72969.93447  21294139.617    21294139.161    21294150.581
       240.000         204.000
   -610201.92149   -456377.36445  23894864.318    23894864.378    23894881.177
       222.000         161.000
   -694185.55249   -480264.40946  22334933.098    22334932.652    22334947.897
       233.000         186.000
   -155639.67149   -115697.85647  20111185.663    20111185.046    20111194.916
       237.000         206.000
    226790.85049    170365.90345  25380250.216    25380249.425    25380273.110
       208.000         139.000
   -427981.20949   -316619.04445  23999203.215    23999202.569    23999219.871
       218.000         157.000
    432493.12449    321263.55245  24605101.757    24605102.745    24605122.702
       206.000         141.000
 01 12 19 20 11 30.0000000  0 10G31G 2G28G27G26G 7G 8G10G11G13
    569230.76749    433074.98645  24254701.667    24254700.933    24254719.831
       214.000         154.000
     26673.01049     20221.04347  21586427.978    21586427.253    21586438.177
       242.000         207.000
   -287035.92249   -216557.37347  20852017.429    20852016.913    20852026.004
       237.000         205.000
    112985.05549     85539.13547  21297209.227    21297208.759    21297220.165
       240.000         203.000
   -716381.45649   -539114.50445  23874658.836    23874658.970    23874675.870
       220.000         162.000
   -810562.74349   -570947.66846  22312787.334    22312786.823    22312801.945
       233.000         185.000
   -180730.82349   -135249.41047  20106411.013    20106410.363    20106420.262
       237.000         206.000
    265674.69949    200664.82745  25387649.825    25387649.061    25387672.332
       211.000         139.000
   -498753.83149   -371766.41245  23985735.571    23985735.035    23985752.355
       218.000         162.000
    517293.38949    387341.20945  24621239.069    24621239.449    24621259.275
       209.000         141.000
 01 12 19 20 12  0.0000000  0 10G31G 2G28G27G26G 7G 8G10G11G13
    646538.93749    493314.80745  24269413.063    24269412.262    24269431.139
       217.000         153.000
     30564.23549     23253.12947  21587168.478    21587167.746    21587178.687
       242.000         207.000
   -324335.50849   -245621.96147  20844919.551    20844919.018    20844928.127
       237.000         204.000
    129541.58549     98440.23747  21300359.930    21300359.394    21300370.776
       240.000         202.000
   -822133.39749   -621518.44146  23854534.835    23854534.961    23854551.943
       220.000         163.000
   -926598.76049   -661365.09946  22290706.363    22290705.863    22290720.919
       233.000         186.000
   -205384.61949   -154460.17947  20101719.625    20101718.927    20101728.835
       238.000         206.000
    304725.65149    231093.92645  25395081.189    25395080.371    25395103.537
       211.000         140.000
   -569126.18849   -426601.89545  23972344.077    23972343.600    23972361.045
       219.000         160.000
    602170.75849    453478.86545  24637390.947    24637391.321    24637411.398
       211.000         138.000
 01 12 19 20 12 30.0000000  0 10G31G 2G28G27G26G 7G 8G10G11G13
    724093.61849    553746.73245  24284171.324    24284170.581    24284189.361
       213.000         149.000
     34620.29649     26413.65947  21587940.383    21587939.616    21587950.565
       243.000         208.000
   -361337.08149   -274454.33447  20837878.355    20837877.828    20837886.952
       237.000         205.000
    146514.08649    111665.47947  21303589.741    21303589.177    21303600.585
       239.000         202.000
   -927465.25849   -703595.03446  23834490.781    23834490.891    23834507.963
       221.000         165.000
  -1042301.57449   -751522.90046  22268688.719    22268688.279    22268703.255
       233.000         186.000
   -229610.00349   -173337.12347  20097109.769    20097109.016    20097118.912
       238.000         206.000
    343930.39949    261642.83545  25402541.828    25402541.003    25402564.039
       210.000         138.000
   -639106.08249   -481131.56345  23959027.405    23959026.914    23959044.292
       218.000         162.000
    687112.95249    519667.10845  24653555.172    24653555.358    24653575.491
       211.000         140.000
 01 12 19 20 13  0.0000000  0 10G31G 2G28G27G26G 7G 8G10G11G13
    801806.88349    614302.21945  24298959.740    24298959.032    24298977.876
       210.000         150.000
     38755.37749     29635.76847  21588727.351    21588726.540    21588737.484
       243.000         208.000
   -398126.58949   -303121.46147  20830877.530    20830877.002    20830886.160
       237.000         205.000
    163817.38449    125148.48947  21306882.451    21306881.897    21306893.340
       239.000         201.000
  -1032460.17649   -785409.06645  23814510.915    23814510.956    23814528.050
       221.000         161.000
  -1157754.69749   -841486.14546  22246718.555    22246718.174    22246733.103
       232.000         186.000
   -253491.39449   -191946.02047  20092565.382    20092564.580    20092574.462
       238.000         206.000
    383200.96749    292243.00745  25410014.993    25410014.130    25410037.191
       209.000         143.000
   -708776.57549   -535420.13146  23945769.440    23945769.048    23945786.453
       219.000         163.000
    772031.29749    585836.72745  24669715.027    24669715.052    24669735.272
       202.000         134.000
 01 12 19 20 13 30.0000000  0 10G31G 2G28G27G26G 7G 8G10G11G13
    879732.36449    675023.07445  24313788.831    24313787.858    24313806.808
       213.000         156.000
     43025.61049     32963.19647  21589540.050    21589539.199    21589550.120
       243.000         208.000
   -434648.23449   -331579.86147  20823927.745    20823927.173    20823936.323
       238.000         206.000
    181508.47149    138933.66147  21310248.984    21310248.444    21310259.912
       240.000         202.000
  -1137059.09949   -866914.53045  23794606.294    23794606.369    23794623.466
       219.000         161.000
  -1272899.32349   -931209.01246  22224807.021    22224806.753    22224821.642
       232.000         187.000
   -276971.08949   -210241.90947  20088097.322    20088096.542    20088106.468
       237.000         206.000
    422590.89549    322936.19545  25417510.872    25417509.873    25417532.887
       204.000         132.000
   -778078.32849   -589421.38846  23932581.682    23932581.334    23932598.724
       220.000         163.000
    856980.41849    652030.31345  24685880.632    24685880.481    24685900.876
       207.000         138.000
 01 12 19 20 14  0.0000000  0 10G31G 2G28G27G26G 7G 8G10G11G13
    957929.47449    735955.59345  24328669.539    24328668.467    24328687.355
       212.000         153.000
     47492.53949     36443.89347  21590390.146    21590389.282    21590400.183
       243.000         209.000
   -470840.75749   -359781.80047  20817040.526    20817039.954    20817049.107
       238.000         205.000
    199649.68849    153069.59347  21313701.232    21313700.658    21313712.119
       240.000         202.000
  -1241197.47649   -948061.12045  23774789.255    23774789.407    23774806.493
       221.000         162.000
  -1387671.27449  -1020641.50046  22202966.502    22202966.241    22202981.111
       233.000         187.000
   -299986.07649   -228175.68447  20083717.708    20083716.943    20083726.883
       239.000         205.000
    462158.98649    353768.19445  25425040.683    25425039.498    25425062.537
       205.000         136.000
   -846946.92549   -643085.09846  23919476.528    23919476.065    23919493.581
       222.000         165.000
    942019.88649    718294.32145  24702063.245    24702063.176    24702083.463
       207.000         139.000
 01 12 19 20 14 30.0000000  0  9G31G 2G28G27G26G 7G 8G11G13
   1036362.19949    797071.70345  24343595.050    24343593.920    24343612.804
       207.000         152.000
     52122.29249     40051.46647  21591271.235    21591270.354    21591281.232
       244.000         208.000
   -506737.84249   -387753.52847  20810209.533    20810208.971    20810218.116
       237.000         205.000
    218207.98749    167530.53047  21317232.811    21317232.243    21317243.715
       239.000         201.000
  -1344906.27749  -1028872.99545  23755054.015    23755054.204    23755071.248
       222.000         160.000
  -1502101.94049  -1109808.06147  22181190.930    22181190.662    22181205.521
       233.000         188.000
   -322568.52849   -245772.42547  20079420.452    20079419.660    20079429.601
       239.000         206.000
   -915413.37449   -696435.46045  23906447.732    23906447.294    23906464.713
       220.000         162.000
   1027113.84949    784600.70345  24718256.409    24718256.174    24718276.782
       210.000         137.000
 01 12 19 20 15  0.0000000  0  9G31G 2G28G27G26G 7G 8G11G13
   1115001.48949    858348.78145  24358559.764    24358558.603    24358577.541
       209.000         152.000
     56887.85649     43764.86547  21592178.180    21592177.262    21592188.124
       244.000         208.000
   -542366.95449   -415516.45047  20803429.523    20803428.953    20803438.116
       237.000         205.000
    237156.83249    182295.78247  21320838.718    21320838.131    21320849.675
       239.000         202.000
  -1448209.54849  -1109368.89745  23735395.979    23735396.168    23735413.138
       223.000         161.000
  -1616215.73349  -1198727.72247  22159475.615    22159475.404    22159490.263
       234.000         189.000
   -344743.89349   -263051.95247  20075200.665    20075199.865    20075209.794
       239.000         206.000
   -983501.83049   -749491.27946  23893490.898    23893490.451    23893507.840
       221.000         163.000
   1112233.56149    850927.19945  24734454.398    24734454.106    24734474.777
       209.000         136.000
 01 12 19 20 15 30.0000000  0  9G31G 2G28G27G26G 7G 8G11G13
   1193847.79749    919787.15045  24373563.967    24373562.751    24373581.732
       217.000         153.000
     61792.14749     47586.36047  21593111.489    21593110.572    21593121.426
       243.000         209.000
   -577725.40549   -443068.46947  20796700.964    20796700.436    20796709.601
       237.000         205.000
    256499.82149    197368.15547  21324519.609    21324519.030    21324530.583
       240.000         201.000
  -1551101.71149  -1189544.44945  23715816.160    23715816.361    23715833.272
       224.000         162.000
  -1730007.42149  -1287396.40047  22137821.665    22137821.463    22137836.273
       234.000         189.000
   -366508.03449   -280011.04047  20071059.126    20071058.329    20071068.216
       240.000         205.000
  -1051206.69349   -802248.20545  23880606.957    23880606.570    23880623.935
       219.000         162.000
   1197379.51349    917274.19945  24750657.509    24750657.179    24750677.602
       204.000         133.000
 01 12 19 20 16  0.0000000  0  9G31G 2G28G27G26G 7G 8G11G13
   1272917.92849    981399.93445  24388610.863    24388609.519    24388628.576
       210.000         150.000
     66854.28749     51530.85747  21594074.795    21594073.904    21594084.758
       243.000         208.000
   -612794.10949   -470394.70947  20790027.601    20790027.070    20790036.235
       238.000         205.000
    276256.88249    212763.19347  21328279.355    21328278.746    21328290.239
       239.000         200.000
  -1653560.58149  -1269382.35946  23696318.769    23696319.028    23696335.822
       223.000         163.000
  -1843455.27249  -1375797.17047  22116233.115    22116232.949    22116247.707
       234.000         188.000
   -387840.04849   -296633.40047  20066999.788    20066999.015    20067008.835
       240.000         205.000
  -1118505.69749   -854688.86946  23867800.213    23867799.928    23867817.312
       220.000         166.000
   1282569.26549    983655.25244  24766869.047    24766868.611    24766889.185
       201.000         131.000
 01 12 19 20 16 30.0000000  0  9G31G 2G28G27G26G 7G 8G11G13
   1352270.93849   1043233.14045  24403711.434    24403710.124    24403729.251
       214.000         151.000
     72135.58749     55646.13047  21595079.826    21595078.941    21595089.790
       243.000         208.000
   -647512.04749   -497447.62247  20783421.024    20783420.462    20783429.613
       238.000         205.000
    296489.93049    228529.13547  21332129.668    21332129.024    21332140.512
       239.000         201.000
  -1755522.04949  -1348832.66746  23676916.004    23676916.308    23676933.051
       222.000         163.000
  -1956495.44649  -1463880.27047  22094722.235    22094722.013    22094736.724
       235.000         189.000
   -408677.44149   -312870.34047  20063034.635    20063033.835    20063043.568
       239.000         205.000
  -1185335.16749   -906763.63046  23855083.081    23855082.708    23855100.101
       223.000         166.000
   1367862.06949   1050116.64645  24783100.051    24783099.491    24783120.341
       208.000         132.000
 01 12 19 20 17  0.0000000  0  9G31G 2G28G27G26G 7G 8G11G13
   1431822.93749   1105221.45245  24418850.056    24418848.589    24418867.710
       210.000         152.000
     77554.62549     59868.72847  21596111.027    21596110.161    21596121.029
       243.000         208.000
   -681960.83349   -524290.80547  20776865.614    20776865.064    20776874.215
       237.000         205.000
    317118.14049    244602.97947  21336055.159    21336054.503    21336065.980
       238.000         200.000
  -1857064.85149  -1427956.75046  23657592.969    23657593.254    23657609.976
       223.000         164.000
  -2069207.21049  -1551707.47047  22073273.765    22073273.550    22073288.259
       235.000         190.000
   -429100.04049   -328784.05147  20059148.329    20059147.562    20059157.272
       240.000         205.000
  -1251773.59949   -958533.65246  23842440.168    23842439.880    23842457.223
       223.000         167.000
   1453174.58449   1116593.30544  24799334.860    24799334.025    24799355.428
       208.000         128.000
 01 12 19 20 17 30.0000000  0  9G31G 2G28G27G26G 7G 8G11G13
   1511469.36449   1167283.29545  24434006.534    24434005.033    24434024.190
       211.000         151.000
     83008.74649     64118.66747  21597148.920    21597148.061    21597158.926
       243.000         207.000
   -716243.27049   -551004.37047  20770341.832    20770341.309    20770350.459
       237.000         205.000
    338039.58149    260905.32347  21340036.438    21340035.780    21340047.266
       239.000         200.000
  -1958288.64849  -1506832.24946  23638330.615    23638330.892    23638347.586
       223.000         163.000
  -2181690.52049  -1639356.65947  22051868.718    22051868.562    22051883.280
       234.000         190.000
   -449209.10849   -344453.45547  20055321.671    20055320.930    20055330.634
       240.000         205.000
  -1317920.70449  -1010076.65346  23829852.754    23829852.497    23829869.804
       222.000         165.000
   1538401.84749   1183003.62144  24815553.646    24815552.566    24815573.948
       207.000         131.000
 01 12 19 20 18  0.0000000  0  9G31G 2G28G27G26G 7G 8G11G13
   1591291.68249   1229482.20245  24449196.210    24449194.892    24449214.109
       212.000         149.000
     88581.52549     68461.06647  21598209.391    21598208.553    21598219.414
       243.000         207.000
   -750276.04949   -577523.39747  20763865.628    20763865.078    20763874.206
       238.000         205.000
    359338.51949    277501.82547  21344089.574    21344088.908    21344100.392
       238.000         200.000
  -2059106.99449  -1585391.82846  23619145.344    23619145.646    23619162.329
       222.000         164.000
  -2293859.26249  -1726760.73547  22030523.617    22030523.458    22030538.154
       235.000         191.000
   -468919.39549   -359812.11847  20051570.946    20051570.197    20051579.913
       240.000         205.000
  -1383690.08449  -1061325.30846  23817336.999    23817336.828    23817354.242
       220.000         164.000
   1623625.82249   1249411.32545  24831771.898    24831770.725    24831791.887
       208.000         132.000
 01 12 19 20 18 30.0000000  0  9G31G 2G28G27G26G 7G 8G11G13
   1671329.79249   1291849.23645  24464427.274    24464425.849    24464445.134
       209.000         148.000
     94315.12649     72928.77547  21599300.484    21599299.640    21599310.482
       243.000         207.000
   -784017.27249   -603815.24147  20757444.844    20757444.312    20757453.434
       237.000         205.000
    381057.54649    294425.66147  21348222.642    21348221.945    21348233.470
       238.000         200.000
  -2159475.13149  -1663600.58246  23600045.788    23600046.097    23600062.757
       223.000         165.000
  -2405669.03649  -1813885.09847  22009246.881    22009246.670    22009261.319
       235.000         190.000
   -488187.59449   -374826.30147  20047904.326    20047903.600    20047913.296
       240.000         204.000
  -1449037.15849  -1112244.88346  23804901.666    23804901.597    23804918.998
       222.000         165.000
   1708886.47149   1315847.65444  24847997.055    24847995.607    24848016.919
       209.000         130.000
 01 12 19 20 19  0.0000000  0  9G31G 2G28G27G26G 7G 8G11G13
   1751565.31649   1354370.07745  24479695.844    24479694.384    24479713.739
       209.000         150.000
    100193.37149     77509.20247  21600419.126    21600418.260    21600429.107
       243.000         207.000
   -817483.16749   -629892.55247  20751076.466    20751075.942    20751085.052
       237.000         205.000
    403181.12449    311664.72947  21352432.651    21352431.981    21352443.514
       239.000         199.000
  -2259406.26849  -1741468.82546  23581029.389    23581029.730    23581046.307
       224.000         164.000
  -2517133.47949  -1900740.37647  21988035.885    21988035.618    21988050.170
       235.000         191.000
   -507028.31749   -389507.37647  20044319.044    20044318.336    20044328.011
       240.000         205.000
  -1513975.16049  -1162845.65546  23792544.221    23792544.200    23792561.589
       220.000         164.000
   1794165.80149   1382298.45944  24864225.686    24864224.247    24864245.458
       205.000         123.000
 01 12 19 20 19 30.0000000  0  9G31G 2G28G27G26G 7G 8G11G13
   1831983.45449   1417033.18745  24494999.163    24494997.650    24495017.110
       208.000         148.000
    106203.69049     82192.53747  21601562.873    21601562.004    21601572.857
       243.000         207.000
   -850686.66449   -655765.39147  20744758.105    20744757.531    20744766.618
       237.000         205.000
    425697.26349    329209.70247  21356717.389    21356716.717    21356728.251
       238.000         199.000
  -2358910.35549  -1819004.30946  23562094.262    23562094.627    23562111.122
       224.000         165.000
  -2628262.90349  -1987334.59847  21966888.596    21966888.298    21966902.747
       235.000         191.000
   -525452.76349   -403864.07647  20040812.971    20040812.263    20040821.975
       239.000         204.000
  -1578513.86249  -1213135.26646  23780262.786    23780262.748    23780280.156
       221.000         165.000
   1879449.21649   1448752.50544  24880455.197    24880453.574    24880474.983
       204.000         128.000
 01 12 19 20 20  0.0000000  0  9G31G 2G28G27G26G 7G 8G11G13
   1912589.23549   1479842.51245  24510338.165    24510336.653    24510356.159
       213.000         151.000
    112353.26549     86984.38447  21602733.112    21602732.275    21602743.118
       243.000         206.000
   -883620.70949   -681428.27547  20738490.982    20738490.403    20738499.468
       238.000         206.000
    448613.78449    347066.64947  21361078.318    21361077.653    21361089.149
       238.000         199.000
  -2457977.25249  -1896199.12646  23543242.413    23543242.734    23543259.126
       225.000         164.000
  -2739047.62649  -2073660.22047  21945806.804    21945806.557    21945820.910
       235.000         191.000
   -543452.39349   -417889.75847  20037387.760    20037387.049    20037396.781
       240.000         205.000
  -1642643.68349  -1263106.26546  23768059.058    23768059.124    23768076.525
       221.000         165.000
   1964741.95449   1515213.77544  24896686.447    24896684.621    24896706.257
       208.000         130.000
 01 12 19 20 20 30.0000000  0  9G31G 2G28G27G26G 7G 8G11G13
   1993350.57049   1542773.07345  24525706.759    24525705.287    24525724.744
       210.000         146.000
    118612.09749     91861.36347  21603924.090    21603923.294    21603934.163
       242.000         206.000
   -916315.50249   -706904.72247  20732269.361    20732268.771    20732277.867
       238.000         205.000
    471900.96749    365212.43047  21365509.768    21365509.103    21365520.612
       238.000         199.000
  -2556634.34549  -1973074.61146  23524468.468    23524468.798    23524485.115
       223.000         163.000
  -2849515.38949  -2159738.86147  21924785.345    21924785.102    21924799.424
       235.000         191.000
   -561055.79249   -431606.69047  20034037.992    20034037.245    20034046.982
       240.000         205.000
  -1706391.78849  -1312779.81146  23755927.992    23755928.061    23755945.508
       221.000         165.000
   2050011.99949   1581657.39444  24912913.530    24912911.607    24912933.318
       206.000         128.000
 01 12 19 20 21  0.0000000  0  9G31G 2G28G27G26G 7G 8G11G13
   2074263.04749   1605821.35945  24541104.289    24541102.710    24541122.318
       207.000         146.000
    124978.15149     96821.88547  21605135.535    21605134.726    21605145.597
       242.000         206.000
   -948773.21549   -732196.44047  20726092.860    20726092.254    20726101.371
       238.000         205.000
    495557.32349    383645.88147  21370011.478    21370010.804    21370022.343
       238.000         199.000
  -2654880.94949  -2049630.21245  23505772.595    23505772.953    23505789.239
       222.000         162.000
  -2959665.89349  -2245570.27947  21903824.195    21903824.008    21903838.326
       234.000         191.000
   -578263.76649   -445015.49747  20030763.455    20030762.701    20030772.446
       240.000         206.000
  -1769757.75349  -1362155.59545  23743869.605    23743869.730    23743887.094
       220.000         162.000
   2135255.33749   1648080.18944  24929135.494    24929133.521    24929154.670
       203.000         125.000
 01 12 19 20 21 29.9990000  0  9G31G 2G28G27G26G 7G 8G11G13
   2155312.53149   1668976.43945  24556527.787    24556526.157    24556545.693
       211.000         148.000
    131442.06049    101858.65947  21606365.625    21606364.799    21606375.659
       242.000         207.000
   -981002.40349   -757310.08947  20719959.865    20719959.265    20719968.337
       238.000         206.000
    519573.36549    402359.60247  21374581.638    21374580.951    21374592.534
       238.000         199.000
  -2752720.22549  -2125868.42045  23487154.228    23487154.573    23487170.866
       221.000         161.000
  -3069502.16049  -2331156.82647  21882922.874    21882922.716    21882937.025
       234.000         192.000
   -595083.43049   -458121.72347  20027562.798    20027562.055    20027571.782
       240.000         206.000
  -1832745.90849  -1411237.00046  23731883.035    23731883.246    23731900.586
       220.000         164.000
   2220458.14349   1714471.40044  24945349.619    24945347.617    24945368.835
       203.000         128.000
 01 12 19 20 21 59.9990000  0  9G31G 2G28G27G26G 7G 8G11G13
   2236504.69349   1732242.78145  24571978.562    24571976.819    24571996.206
       208.000         150.000
    138006.74049    106973.95547  21607614.902    21607614.061    21607624.913
       243.000         207.000
  -1013002.88349   -782245.52247  20713870.395    20713869.785    20713878.842
       238.000         206.000
    543953.82249    421357.28047  21379221.142    21379220.435    21379232.088
       237.000         199.000
  -2850153.52249  -2201790.26546  23468613.139    23468613.489    23468629.771
       223.000         164.000
  -3179026.82449  -2416500.56247  21862081.015    21862080.726    21862095.038
       235.000         192.000
   -611512.23249   -470923.37647  20024436.555    20024435.799    20024445.497
       240.000         206.000
  -1895355.33349  -1460023.29446  23719968.715    23719968.913    23719986.192
       222.000         166.000
   2305626.66549   1780835.92444  24961557.079    24961555.203    24961576.201
       203.000         129.000
 01 12 19 20 22 29.9990000  0  9G31G 2G28G27G26G 7G 8G11G13
   2317809.89549   1795597.18545  24587450.787    24587449.017    24587468.404
       217.000         146.000
    144647.31249    112148.37747  21608878.658    21608877.768    21608888.627
       243.000         207.000
  -1044798.59349   -807021.39847  20707819.853    20707819.264    20707828.329
       238.000         206.000
    568673.41549    440619.21147  21383925.197    21383924.485    21383936.174
       238.000         199.000
  -2947199.71949  -2277410.49746  23450145.677    23450146.084    23450162.345
       222.000         165.000
  -3288258.63649  -2501616.10047  21841294.749    21841294.469    21841308.788
       235.000         193.000
   -627573.04949   -483438.28747  20021380.279    20021379.530    20021389.252
       240.000         205.000
  -1957606.25249  -1508530.23946  23708122.532    23708122.769    23708140.070
       221.000         167.000
   2390731.00049   1847150.44444  24977752.267    24977750.342    24977771.553
       199.000         125.000
 01 12 19 20 22 59.9990000  0  9G31G 2G28G27G26G 7G 8G11G13
   2399206.95049   1859023.12445  24602940.351    24602938.584    24602958.177
       205.000         140.000
    151344.67649    117367.05147  21610153.165    21610152.275    21610163.170
       242.000         207.000
  -1076408.86349   -831652.77747  20701804.666    20701804.062    20701813.105
       238.000         207.000
    593713.52349    460130.89847  21388690.278    21388689.545    21388701.258
       237.000         199.000
  -3043875.30549  -2352741.92746  23431748.792    23431749.195    23431765.428
       222.000         164.000
  -3397214.42649  -2586516.55147  21820561.019    21820560.747    21820575.071
       235.000         194.000
   -643283.74049   -495680.37647  20018390.682    20018389.904    20018399.598
       240.000         206.000
  -2019514.83149  -1556770.44046  23696341.654    23696341.826    23696359.094
       221.000         166.000
   2475750.35449   1913398.78844  24993931.311    24993929.457    24993950.615
       196.000         127.000
 01 12 19 20 23 29.9990000  0  9G31G 2G28G27G26G 7G 8G11G13
   2480655.18349   1922489.02845  24618439.785    24618437.968    24618457.586
       201.000         146.000
    158060.77349    122600.32147  21611431.216    21611430.332    21611441.253
       242.000         206.000
  -1107872.17349   -856169.63947  20695817.452    20695816.822    20695825.831
       238.000         206.000
    619036.47049    479862.97247  21393509.150    21393508.410    21393520.157
       238.000         199.000
  -3140215.68449  -2427812.16546  23413415.693    23413416.093    23413432.259
       224.000         166.000
  -3505930.17849  -2671229.95147  21799872.996    21799872.710    21799887.027
       236.000         194.000
   -658680.94249   -507678.18847  20015460.678    20015459.922    20015469.599
       241.000         206.000
  -2081116.96849  -1604771.87746  23684618.922    23684619.135    23684636.381
       221.000         164.000
   2560644.42349   1979549.39844  25010086.435    25010084.641    25010106.023
       202.000         125.000
 01 12 19 20 23 59.9990000  0  9G31G 2G28G27G26G 7G 8G11G13
   2562191.25349   1986023.37145  24633955.743    24633953.950    24633973.671
       211.000         145.000
    164833.95349    127878.06847  21612720.109    21612719.251    21612730.187
       242.000         206.000
  -1139150.40249   -880542.27747  20689865.412    20689864.769    20689873.733
       239.000         206.000
    644681.09549    499845.70647  21398389.265    21398388.499    21398400.268
       238.000         198.000
  -3236179.77649  -2502589.17846  23395154.217    23395154.579    23395170.724
       223.000         168.000
  -3614365.13549  -2755724.54047  21779238.377    21779238.089    21779252.422
       236.000         195.000
   -673725.09849   -519400.89447  20012597.886    20012597.122    20012606.789
       240.000         206.000
  -2142371.73249  -1652502.65846  23672962.373    23672962.578    23672979.611
       222.000         164.000
   2645449.70249   2045630.93144  25026224.638    25026222.727    25026244.365
       200.000         128.000
 01 12 19 20 24 29.9990000  0  9G31G 2G28G27G26G 7G 8G11G13
   2643871.28549   2049669.80645  24649499.201    24649497.465    24649517.157
       209.000         142.000
    171722.94749    133246.06447  21614031.086    21614030.211    21614041.149
       242.000         206.000
  -1170184.96349   -904725.04547  20683959.726    20683959.088    20683968.028
       238.000         206.000
    670706.41749    520125.08147  21403341.790    21403341.021    21403352.840
       238.000         198.000
  -3331706.54349  -2577025.42246  23376976.001    23376976.330    23376992.435
       224.000         168.000
  -3722458.47349  -2839952.92947  21758668.858    21758668.493    21758682.789
       237.000         195.000
   -688356.39449   -530801.91047  20009813.676    20009812.906    20009822.503
       241.000         205.000
  -2203218.00049  -1699915.15046  23661383.582    23661383.772    23661400.632
       222.000         166.000
   2730222.59649   2111687.13844  25042356.843    25042354.761    25042376.713
       202.000         124.000
 01 12 19 20 24 59.9990000  0  9G31G 2G28G27G26G 7G 8G11G13
   2725694.58049   2113427.88945  24665069.645    24665068.072    24665088.246
       209.000         150.000
    178729.13449    138705.37847  21615364.349    21615363.478    21615374.409
       241.000         205.000
  -1200975.01149   -928717.28647  20678100.536    20678099.920    20678108.873
       238.000         206.000
    697114.13949    540702.42947  21408367.081    21408366.313    21408378.153
       237.000         198.000
  -3426791.91549  -2651117.72246  23358881.689    23358882.068    23358898.165
       223.000         167.000
  -3830206.56049  -2923912.28447  21738164.980    21738164.592    21738178.854
       237.000         197.000
   -702572.01249   -541879.01947  20007108.549    20007107.767    20007117.334
       240.000         206.000
  -2263651.82149  -1747006.22546  23649883.271    23649883.425    23649900.221
       223.000         167.000
   2814962.61449   2177717.73245  25058482.674    25058480.469    25058502.743
       206.000         133.000
 01 12 19 20 25 29.9990000  0  9G31G 2G28G27G26G 7G 8G11G13
   2807538.70249   2177202.34245  24680644.234    24680642.764    24680662.786
       211.000         151.000
    185732.37449    144162.39647  21616697.069    21616696.180    21616707.110
       241.000         205.000
  -1231640.79149   -952612.69547  20672265.007    20672264.406    20672273.388
       238.000         207.000
    723784.46049    561484.39947  21413442.296    21413441.574    21413453.455
       237.000         198.000
  -3521553.47749  -2724957.71146  23340849.036    23340849.411    23340865.493
       222.000         166.000
  -3937727.47949  -3007694.61947  21717704.354    21717703.921    21717718.159
       238.000         197.000
   -716491.29549   -552725.21147  20004459.791    20004459.015    20004468.596
       240.000         206.000
  -2323791.11949  -1793867.85146  23638438.959    23638439.153    23638455.851
       222.000         166.000
   2899547.86548   2243627.79944  25074579.006    25074577.128    25074599.019
       194.000         117.000
 01 12 19 20 25 59.9990000  0  9G31G 2G28G27G26G 7G 8G11G13
   2889525.77149   2241088.04845  24696245.947    24696244.570    24696264.882
       210.000         140.000
    192856.86049    149713.89347  21618052.836    21618051.953    21618062.885
       241.000         204.000
  -1262058.48649   -976314.79047  20666476.702    20666476.124    20666485.136
       239.000         207.000
    750841.74249    582567.90047  21418591.235    21418590.487    21418602.410
       238.000         199.000
  -3615864.53249  -2798446.67146  23322902.040    23322902.484    23322918.549
       224.000         167.000
  -4044894.86749  -3091201.47947  21697311.000    21697310.553    21697324.768
       238.000         197.000
   -729988.56449   -563242.56047  20001891.320    20001890.566    20001900.162
       241.000         207.000
  -2383509.17049  -1840401.24246  23627074.844    23627075.010    23627091.625
       223.000         165.000
   2984100.14649   2309512.13445  25090669.049    25090667.378    25090689.404
       199.000         132.000
 01 12 19 20 26 29.9990000  0  9G31G 2G28G27G26G 7G 8G11G13
   2971671.59549   2305097.55245  24711877.949    24711876.699    24711897.018
       203.000         147.000
    200120.59049    155373.89147  21619435.111    21619434.228    21619445.165
       241.000         205.000
  -1292210.55449   -999809.90247  20660738.961    20660738.371    20660747.422
       239.000         208.000
    778304.48849    603967.35047  21423817.291    21423816.558    21423828.508
       237.000         198.000
  -3709704.51849  -2871568.56146  23305044.732    23305045.187    23305061.224
       225.000         167.000
  -4151688.46849  -3174417.07047  21676988.757    21676988.308    21677002.513
       238.000         198.000
   -743044.71949   -573416.18547  19999406.870    19999406.081    19999415.719
       241.000         207.000
  -2442785.38549  -1886590.34546  23615794.829    23615794.993    23615811.460
       224.000         168.000
   3068635.80549   2375383.50644  25106755.558    25106754.110    25106776.499
       198.000         118.000
 01 12 19 20 26 59.9990000  0  9G31G 2G28G27G26G 7G 8G11G13
   3053985.29949   2369237.92845  24727542.045    24727540.663    24727561.015
       207.000         144.000
    207535.04949    161151.34047  21620846.071    21620845.177    21620856.155
       241.000         205.000
  -1322085.38949  -1023088.99047  20655053.958    20655053.367    20655062.444
       238.000         207.000
    806184.33749    625691.81747  21429122.706    21429121.975    21429133.985
       236.000         198.000
  -3803059.38549  -2944312.43346  23287279.779    23287280.207    23287296.230
       226.000         167.000
  -4258094.59849  -3257330.74447  21656740.223    21656739.780    21656753.965
       238.000         197.000
   -755647.02349   -583236.15947  19997008.704    19997007.949    19997017.636
       241.000         207.000
  -2501605.73749  -1932424.22846  23604601.645    23604601.742    23604618.114
       224.000         169.000
   3153164.07648   2441249.12644  25122840.942    25122839.723    25122862.251
       188.000         126.000
 01 12 19 20 27 29.9990000  0  9G31G 2G28G27G26G 7G 8G11G13
   3136394.87849   2433452.82645  24743224.358    24743222.845    24743243.418
       210.000         143.000
    215030.27949    166991.73247  21622272.355    21622271.498    21622282.512
       241.000         205.000
  -1351753.45049  -1046206.95747  20649408.282    20649407.724    20649416.823
       239.000         208.000
    834411.61749    647687.00547  21434494.165    21434493.503    21434505.596
       236.000         198.000
  -3895996.55949  -3016730.83746  23269594.366    23269594.746    23269610.699
       226.000         171.000
  -4364181.04549  -3339995.30947  21636552.456    21636552.082    21636566.212
       238.000         196.000
   -767864.38749   -592756.19047  19994683.880    19994683.107    19994692.784
       241.000         207.000
  -2560037.96149  -1977955.65446  23593482.184    23593482.313    23593498.691
       223.000         167.000
   3237613.30049   2507053.08644  25138911.104    25138910.408    25138933.022
       199.000         124.000
 01 12 19 20 27 59.9990000  0  9G31G 2G28G27G26G 7G 8G11G13
   3218872.09349   2497720.56845  24758919.392    24758917.918    24758938.480
       218.000         154.000
    222580.25849    172874.78947  21623709.088    21623708.217    21623719.309
       241.000         205.000
  -1381240.95349  -1069184.23047  20643796.998    20643796.420    20643805.577
       238.000         208.000
    862960.46549    669932.77247  21439926.932    21439926.237    21439938.384
       236.000         198.000
  -3988539.70249  -3088842.20846  23251983.862    23251984.247    23252000.173
       226.000         172.000
  -4469971.88149  -3422429.52947  21616421.015    21616420.623    21616434.669
       237.000         196.000
   -779721.64549   -601995.62247  19992427.587    19992426.780    19992436.459
       241.000         207.000
  -2618105.80249  -2023203.17646  23582431.970    23582432.152    23582448.490
       223.000         167.000
   3321955.31558   2572773.58654  25154960.658    25154960.587    25154983.457
       185.000         122.000
 01 12 19 20 28 29.9990000  0  9G31G 2G28G27G26G 7G 8G11G13
   3301479.46249   2562089.76145  24774639.290    24774637.845    24774658.115
       213.000         140.000
    230250.14949    178851.28347  21625168.663    21625167.789    21625178.911
       241.000         205.000
  -1410483.30849  -1091970.47847  20638232.306    20638231.751    20638240.977
       237.000         207.000
    891896.30849    692480.09147  21445433.289    21445432.613    21445444.775
       236.000         197.000
  -4080621.47349  -3160594.06346  23234461.157    23234461.534    23234477.427
       226.000         173.000
  -4575400.03749  -3504581.13847  21596358.568    21596358.173    21596372.135
       237.000         196.000
   -791152.55949   -610902.83747  19990252.312    19990251.539    19990261.245
       240.000         206.000
  -2675741.88549  -2068114.27146  23571464.073    23571464.200    23571480.537
       223.000         169.000
   3406252.83249   2638459.28344  25171002.493    25171002.207    25171025.620
       196.000         124.000
 01 12 19 20 28 59.9990000  0  8G31G 2G28G27G26G 7G 8G11
   3384174.70749   2626527.27945  24790375.806    24790374.396    24790395.053
       211.000         139.000
    237999.56349    184889.74447  21626643.356    21626642.491    21626653.650
       241.000         205.000
  -1439521.15849  -1114597.37447  20632706.480    20632705.983    20632715.284
       238.000         206.000
    921178.90949    715297.60747  21451005.685    21451004.984    21451017.154
       237.000         197.000
  -4172279.59149  -3232015.79746  23217019.026    23217019.432    23217035.338
       226.000         173.000
  -4680503.60349  -3586479.82047  21576357.869    21576357.489    21576371.342
       239.000         196.000
   -802196.57549   -619508.56947  19988150.658    19988149.909    19988159.674
       240.000         206.000
  -2732984.31649  -2112718.62646  23560571.006    23560571.166    23560587.486
       223.000         169.000
 01 12 19 20 29 29.9990000  0  8G31G 2G28G27G26G 7G 8G11
   3466954.81449   2691031.17145  24806128.538    24806127.089    24806147.601
       207.000         145.000
    245827.86749    190989.68047  21628133.029    21628132.188    21628143.398
       241.000         205.000
  -1468355.42649  -1137065.63247  20627219.457    20627218.980    20627228.286
       238.000         207.000
    950807.68749    738384.87347  21456643.866    21456643.213    21456655.407
       236.000         196.000
  -4263512.40449  -3303106.11446  23199657.814    23199658.250    23199674.173
       224.000         173.000
  -4785281.21849  -3668124.51447  21556419.183    21556418.823    21556432.591
       238.000         196.000
   -812853.02249   -627812.30247  19986122.751    19986122.046    19986131.872
       240.000         206.000
  -2789831.44149  -2157014.95446  23549753.368    23549753.446    23549769.722
       223.000         170.000
 01 12 19 20 29 59.9990000  0  8G31G 2G28G27G26G 7G 8G11
   3549819.21349   2755600.57745  24821897.345    24821895.846    24821916.379
       214.000         137.000
    253736.81249    197152.44847  21629638.027    21629637.217    21629648.499
       241.000         205.000
  -1496984.68349  -1159374.13947  20621771.537    20621771.002    20621780.294
       238.000         207.000
    980784.55549    761743.37247  21462348.326    21462347.680    21462359.923
       235.000         196.000
  -4354315.67549  -3373861.73046  23182378.351    23182378.804    23182394.711
       225.000         172.000
  -4889729.15849  -3749512.32547  21536543.214    21536542.875    21536556.587
       238.000         196.000
   -823119.27049   -635811.99147  19984169.135    19984168.435    19984178.301
       240.000         206.000
  -2846279.15449  -2201000.06246  23539011.644    23539011.699    23539027.914
       225.000         168.000
 01 12 19 20 30 29.9990000  0  8G31G 2G28G27G26G 7G 8G11
   3632695.02449   2820178.88945  24837668.391    24837666.841    24837687.563
       207.000         139.000
    261655.52049    203322.82847  21631144.976    21631144.132    21631155.449
       241.000         205.000
  -1525480.09949  -1181578.35747  20616349.033    20616348.509    20616357.773
       238.000         207.000
   1011038.82949    785318.02947  21468105.575    21468104.926    21468117.226
       236.000         196.000
  -4444757.86349  -3444336.01446  23165167.645    23165168.095    23165183.919
       226.000         169.000
  -4993916.43449  -3830697.02347  21516716.865    21516716.557    21516730.227
       238.000         196.000
   -833065.26049   -643562.13547  19982276.504    19982275.769    19982285.639
       240.000         206.000
  -2902396.21449  -2244727.52646  23528332.906    23528332.871    23528348.972
       224.000         169.000
 01 12 19 20 30 59.9990000  0  8G31G 2G28G27G26G 7G 8G11
   3715743.06149   2884891.50145  24853472.111    24853470.573    24853491.185
       197.000         144.000
    269746.90349    209627.75947  21632684.733    21632683.911    21632695.265
       241.000         205.000
  -1553679.27349  -1203551.72747  20610982.872    20610982.363    20610991.639
       238.000         207.000
   1041733.49949    809235.85347  21473946.639    21473945.998    21473958.332
       235.000         196.000
  -4534674.01749  -3514400.40346  23148057.076    23148057.507    23148073.197
       226.000         170.000
  -5097678.04049  -3911550.02947  21496971.600    21496971.244    21496984.861
       239.000         197.000
   -842527.08349   -650934.99747  19980475.964    19980475.258    19980485.118
       240.000         206.000
  -2958017.55249  -2288068.71646  23517748.366    23517748.351    23517764.440
       223.000         168.000
 01 12 19 20 31 29.9990000  0  8G31G 2G28G27G26G 7G 8G11
   3798928.96649   2949711.39545  24869301.980    24869300.374    24869321.345
       206.000         144.000
    277978.99249    216042.32847  21634251.309    21634250.461    21634261.822
       241.000         205.000
  -1581614.51649  -1225319.44547  20605666.975    20605666.453    20605675.722
       239.000         207.000
   1072836.67349    833471.96047  21479865.426    21479864.799    21479877.153
       235.000         195.000
  -4624093.54949  -3584077.82746  23131040.946    23131041.365    23131056.988
       224.000         169.000
  -5201044.08249  -3992094.80647  21477301.549    21477301.191    21477314.758
       238.000         197.000
   -851535.55849   -657954.60847  19978761.693    19978760.997    19978770.878
       240.000         206.000
  -3013172.83249  -2331046.75946  23507252.551    23507252.525    23507268.580
       222.000         168.000
 01 12 19 20 31 59.9990000  0  8G31G 2G28G27G26G 7G 8G11
   3882207.52159   3014603.57355  24885149.281    24885147.900    24885168.863
       205.000         140.000
    286308.70549    222532.97347  21635836.429    21635835.598    21635846.934
       241.000         205.000
  -1609329.22749  -1246915.31347  20600393.102    20600392.555    20600401.753
       239.000         207.000
   1104305.52049    857993.01747  21485853.786    21485853.185    21485865.531
       235.000         194.000
  -4713057.47249  -3653400.21846  23114111.456    23114111.919    23114127.537
       226.000         169.000
  -5304055.68449  -4072363.40747  21457698.917    21457698.579    21457712.105
       238.000         197.000
   -860132.85249   -664653.82047  19977125.699    19977124.987    19977134.876
       241.000         207.000
  -3067903.23649  -2373693.72246  23496837.504    23496837.562    23496853.548
       223.000         169.000
 01 12 19 20 32 29.9990000  0  8G31G 2G28G27G26G 7G 8G11
   3965625.63648   3079604.54044  24901023.585    24901022.177    24901043.093
       181.000         130.000
    294785.26449    229138.04147  21637449.546    21637448.687    21637459.988
       241.000         205.000
  -1636774.65749  -1268301.34547  20595170.482    20595169.898    20595179.035
       239.000         207.000
   1136189.20149    882837.32147  21491921.131    21491920.520    21491932.849
       235.000         194.000
  -4801514.07949  -3722327.31946  23097278.592    23097279.050    23097294.630
       226.000         172.000
  -5406661.67949  -4152315.94647  21438173.429    21438173.157    21438186.651
       238.000         198.000
   -868268.72549   -670993.47547  19975577.572    19975576.835    19975586.699
       241.000         207.000
  -3122157.16149  -2415969.41346  23486513.258    23486513.279    23486529.262
       224.000         168.000
 01 12 19 20 32 59.9990000  0  8G31G 2G28G27G26G 7G 8G11
   4049161.56049   3144697.18945  24916919.893    24916918.525    24916939.578
       202.000         139.000
    303388.98349    235842.19147  21639086.849    21639085.975    21639097.263
       241.000         204.000
  -1663970.68749  -1289493.03547  20589995.289    20589994.683    20590003.800
       239.000         208.000
   1168467.94749    907989.45347  21498063.651    21498063.029    21498075.365
       235.000         194.000
  -4889480.80049  -3790872.66446  23080538.906    23080539.415    23080554.988
       226.000         174.000
  -5508879.73249  -4231966.20747  21418721.871    21418721.555    21418735.028
       239.000         198.000
   -875961.93349   -676988.20847  19974113.675    19974112.916    19974122.732
       241.000         206.000
  -3175952.25749  -2457887.60346  23476276.309    23476276.315    23476292.197
       223.000         167.000
 01 12 19 20 33 29.9990000  0  7G 2G28G27G26G 7G 8G11
    312045.30649    242587.34047  21640734.153    21640733.264    21640744.525
       241.000         204.000
  -1690992.29049  -1310548.80547  20584853.216    20584852.636    20584861.778
       238.000         207.000
   1201067.26749    933391.38747  21504267.265    21504266.572    21504278.911
       236.000         195.000
  -4977030.07449  -3859092.72946  23063878.722    23063879.192    23063894.777
       228.000         173.000
  -5610782.69049  -4311370.94047  21399330.340    21399329.947    21399343.371
       239.000         199.000
   -883286.23849   -682695.49047  19972719.911    19972719.173    19972728.929
       241.000         206.000
  -3229361.05749  -2499504.76146  23466112.784    23466112.840    23466128.670
       224.000         169.000
 01 12 19 20 33 59.9990000  0  7G 2G28G27G26G 7G 8G11
    320774.82849    249389.51847  21642395.340    21642394.472    21642405.724
       241.000         204.000
  -1717819.36749  -1331452.99347  20579748.147    20579747.588    20579756.758
       238.000         207.000
   1234007.76849    959059.17947  21510535.723    21510535.042    21510547.418
       235.000         195.000
  -5064139.08849  -3926969.72546  23047302.272    23047302.766    23047318.345
       227.000         174.000
  -5712348.01749  -4390512.58947  21380003.001    21380002.601    21380015.949
       239.000         199.000
   -890220.11149   -688098.53147  19971400.454    19971399.710    19971409.440
       241.000         206.000
  -3282360.76349  -2540803.13446  23456027.269    23456027.262    23456043.126
       225.000         169.000
 01 12 19 20 34 29.9990000  0  7G 2G28G27G26G 7G 8G11
    329587.52049    256256.50647  21644072.385    21644071.510    21644082.756
       241.000         204.000
  -1744442.26649  -1352198.08147  20574681.945    20574681.404    20574690.586
       239.000         207.000
   1267299.31649    985000.50547  21516871.019    21516870.303    21516882.764
       235.000         196.000
  -5150795.75349  -3994494.24646  23030811.967    23030812.446    23030827.944
       228.000         173.000
  -5813564.00349  -4469382.03347  21360742.075    21360741.714    21360755.020
       240.000         199.000
   -896752.75249   -693188.93747  19970157.367    19970156.609    19970166.308
       241.000         206.000
  -3334939.61449  -2581773.57246  23446021.844    23446021.762    23446037.635
       226.000         170.000
 01 12 19 20 34 59.9990000  0  7G 2G28G27G26G 7G 8G11
    338524.99749    263220.72447  21645773.142    21645772.283    21645783.544
       241.000         204.000
  -1770819.48849  -1372751.73147  20569662.536    20569661.988    20569671.117
       239.000         207.000
   1300983.67549   1011247.91447  21523281.101    21523280.329    21523292.842
       236.000         196.000
  -5236956.02349  -4061631.98146  23014416.213    23014416.585    23014432.024
       229.000         175.000
  -5914387.03449  -4547945.29447  21341555.934    21341555.600    21341568.873
       240.000         200.000
   -902841.43249   -697933.40747  19968998.773    19968998.001    19969007.695
       241.000         207.000
  -3387053.79449  -2622381.93746  23436104.822    23436104.721    23436120.542
       223.000         170.000
 01 12 19 20 35 29.9990000  0  7G 2G28G27G26G 7G 8G11
    347576.85549    270274.07147  21647495.689    21647494.831    21647506.084
       241.000         203.000
  -1796962.04949  -1393122.52147  20564687.778    20564687.214    20564696.296
       238.000         207.000
   1335050.22049   1037793.13447  21529763.857    21529763.082    21529775.637
       235.000         195.000
  -5322628.34749  -4128389.49346  22998113.223    22998113.604    22998128.979
       228.000         175.000
  -6014825.70649  -4626209.05147  21322442.952    21322442.629    21322455.875
       240.000         200.000
   -908495.74949   -702339.40247  19967922.754    19967922.009    19967931.749
       240.000         206.000
  -3438711.69849  -2662634.74146  23426274.455    23426274.398    23426290.357
       222.000         171.000
 01 12 19 20 35 59.9990000  0  7G 2G28G27G26G 7G 8G11
    356714.71049    277394.42747  21649234.585    21649233.737    21649244.994
       241.000         203.000
  -1822898.49449  -1413332.70447  20559752.155    20559751.634    20559760.726
       238.000         206.000
   1369470.65649   1064614.10747  21536313.944    21536313.157    21536325.750
       236.000         195.000
  -5407838.84849  -4194787.14146  22981898.097    22981898.493    22981913.854
       228.000         174.000
  -6114906.51049  -4704193.95347  21303398.081    21303397.760    21303410.980
       240.000         200.000
   -913743.28449   -706428.41447  19966924.135    19966923.416    19966933.247
       241.000         207.000
  -3489939.46049  -2702552.36146  23416526.062    23416525.980    23416542.021
       224.000         170.000
 01 12 19 20 36 29.9990000  0  7G 2G28G27G26G 7G 8G11
    365977.41849    284612.07247  21650997.284    21650996.420    21651007.672
       241.000         204.000
  -1848590.67549  -1433352.55347  20554862.986    20554862.508    20554871.643
       238.000         206.000
   1404283.34149   1091740.73247  21542938.707    21542937.906    21542950.497
       235.000         195.000
  -5492546.69149  -4260793.10946  22965778.610    22965778.987    22965794.345
       227.000         173.000
  -6214589.21849  -4781868.66047  21284428.978    21284428.647    21284441.814
       239.000         200.000
   -918544.36049   -710169.53447  19966010.534    19966009.816    19966019.687
       240.000         207.000
  -3540696.87549  -2742103.47646  23406867.202    23406867.115    23406883.089
       224.000         170.000
 01 12 19 20 36 59.9990000  0  7G 2G28G27G26G 7G 8G11
    375369.59849    291930.60747  21652784.630    21652783.755    21652795.004
       241.000         204.000
  -1874034.22049  -1453178.66347  20550021.187    20550020.729    20550029.874
       238.000         206.000
   1439492.99849   1119176.68947  21549639.012    21549638.195    21549650.795
       235.000         194.000
  -5576745.30849  -4326402.29846  22949756.037    22949756.409    22949771.736
       227.000         174.000
  -6313867.28049  -4859228.06547  21265536.865    21265536.517    21265549.652
       240.000         200.000
   -922893.72749   -713558.67347  19965182.886    19965182.175    19965192.046
       241.000         207.000
  -3590977.32949  -2781282.93246  23397299.062    23397298.979    23397314.915
       222.000         170.000
 01 12 19 20 37 29.9990000  0  7G 2G28G27G26G 7G 8G11
    384891.67349    299350.36247  21654596.709    21654595.808    21654607.069
       240.000         204.000
  -1899229.14449  -1472811.04347  20545226.709    20545226.257    20545235.406
       237.000         206.000
   1475099.81949   1146922.12647  21556414.861    21556414.047    21556426.666
       235.000         194.000
  -5660432.12149  -4391612.66746  22933830.891    22933831.242    22933846.494
       227.000         173.000
  -6412738.61349  -4936270.53247  21246722.163    21246721.808    21246734.906
       240.000         200.000
   -926790.16549   -716594.88547  19964441.444    19964440.739    19964450.600
       241.000         207.000
  -3640778.51549  -2820088.91446  23387822.102    23387822.034    23387838.045
       224.000         171.000
 01 12 19 20 37 59.9990000  0  7G 2G28G27G26G 7G 8G11
    394516.39849    306850.09547  21656428.246    21656427.359    21656438.668
       241.000         203.000
  -1924203.18249  -1492271.31047  20540474.258    20540473.816    20540482.961
       238.000         206.000
   1511076.45549   1174955.72747  21563261.075    21563260.275    21563272.926
       234.000         194.000
  -5743632.22549  -4456443.79346  22917998.314    22917998.695    22918013.895
       228.000         174.000
  -6511228.46649  -5013015.75247  21227980.069    21227979.687    21227992.754
       240.000         201.000
   -930260.07149   -719298.72547  19963781.202    19963780.474    19963790.343
       241.000         207.000
  -3690125.44749  -2858540.94746  23378431.620    23378431.537    23378447.586
       224.000         170.000
 01 12 19 20 38 29.9990000  0  7G 2G28G27G26G 7G 8G11
    404310.65949    314481.93747  21658292.044    21658291.172    21658302.533
       240.000         203.000
  -1948889.63349  -1511507.48247  20535776.594    20535776.132    20535785.247
       239.000         206.000
   1547489.61149   1203329.48647  21570190.378    21570189.568    21570202.271
       234.000         193.000
  -5826276.77749  -4520842.00946  22902271.521    22902271.857    22902287.031
       229.000         175.000
  -6609268.34149  -5089410.33447  21209323.647    21209323.234    21209336.256
       241.000         201.000
   -933235.64149   -721617.35947  19963215.016    19963214.269    19963224.166
       241.000         207.000
  -3738949.46249  -2896585.50946  23369140.561    23369140.498    23369156.556
       222.000         169.000
 01 12 19 20 38 59.9990000  0  7G 2G28G27G26G 7G 8G11
    414156.08249    322153.64047  21660165.583    21660164.730    21660176.106
       241.000         203.000
  -1973407.42549  -1530612.23747  20531111.015    20531110.537    20531119.631
       238.000         206.000
   1584220.64749   1231950.93047  21577180.159    21577179.369    21577192.106
       234.000         193.000
  -5908482.07349  -4584897.95046  22886628.363    22886628.669    22886643.737
       230.000         176.000
  -6706975.16249  -5165545.39947  21190730.628    21190730.167    21190743.115
       241.000         201.000
   -935834.71249   -723642.62047  19962720.502    19962719.734    19962729.581
       242.000         207.000
  -3787367.48949  -2934313.71146  23359926.774    23359926.729    23359942.761
       224.000         169.000
 01 12 19 20 39 29.9990000  0  7G 2G28G27G26G 7G 8G11
    424024.49749    329843.25847  21662043.550    21662042.674    21662054.042
       241.000         203.000
  -1997785.03849  -1549607.76747  20526472.095    20526471.608    20526480.685
       238.000         206.000
   1621241.19249   1260797.96647  21584225.069    21584224.239    21584237.040
       233.000         191.000
  -5990274.49949  -4648632.18346  22871063.735    22871064.023    22871078.998
       230.000         177.000
  -6804375.21549  -5241441.42547  21172195.942    21172195.484    21172208.322
       241.000         201.000
   -938084.68049   -725395.85747  19962292.400    19962291.602    19962301.418
       241.000         206.000
  -3835405.51049  -2971745.79846  23350785.325    23350785.260    23350801.238
       222.000         169.000
 01 12 19 20 39 59.9990000  0  7G 2G28G27G26G 7G 8G11
    434054.00749    337658.40447  21663952.165    21663951.289    21663962.646
       241.000         203.000
  -2021884.80149  -1568386.78447  20521886.054    20521885.570    20521894.611
       239.000         206.000
   1658689.17949   1289978.08747  21591351.264    21591350.426    21591363.284
       232.000         191.000
  -6071513.90349  -4711935.47146  22855604.320    22855604.589    22855619.509
       229.000         176.000
  -6901328.85149  -5316989.59147  21153746.198    21153745.747    21153758.476
       241.000         202.000
   -939846.70049   -726768.86347  19961957.038    19961956.300    19961966.112
       241.000         206.000
  -3882923.84749  -3008772.93546  23341742.726    23341742.723    23341758.644
       223.000         169.000
 01 12 19 20 40 29.9990000  0  7G 2G28G27G26G 7G 8G11
    444190.55749    345556.95847  21665881.148    21665880.262    21665891.607
       241.000         203.000
  -2045761.22149  -1586991.78247  20517342.555    20517342.028    20517351.050
       239.000         207.000
   1696510.24349   1319448.91347  21598548.375    21598547.598    21598560.520
       231.000         190.000
  -6152252.34449  -4774848.40146  22840240.122    22840240.465    22840255.375
       228.000         176.000
  -6997888.44249  -5392230.70247  21135371.439    21135370.986    21135383.645
       241.000         202.000
   -941174.27649   -727803.33347  19961704.346    19961703.653    19961713.476
       241.000         206.000
  -3929974.76849  -3045435.84646  23332789.045    23332789.108    23332805.062
       222.000         169.000
 01 12 19 20 40 59.9990000  0  7G 2G28G27G26G 7G 8G11
    454421.17749    353528.80547  21667828.000    21667827.132    21667838.476
       241.000         203.000
  -2069427.74049  -1605433.22247  20512838.939    20512838.419    20512847.449
       239.000         207.000
   1734691.03249   1349200.03747  21605814.029    21605813.252    21605826.231
       231.000         190.000
  -6232501.04649  -4837379.70946  22824969.170    22824969.530    22824984.428
       228.000         177.000
  -7094065.53049  -5467173.74947  21117069.468    21117069.008    21117081.599
       241.000         202.000
   -942079.64049   -728508.82347  19961532.118    19961531.391    19961541.190
       242.000         206.000
  -3976569.46249  -3081743.22546  23323922.292    23323922.307    23323938.211
       224.000         170.000
 01 12 19 20 41 29.9990000  0  7G 2G28G27G26G 7G 8G11
    464773.29749    361595.33047  21669797.987    21669797.101    21669808.451
       241.000         203.000
  -2092857.40449  -1623690.10347  20508380.388    20508379.873    20508388.926
       239.000         207.000
   1773258.67549   1379252.60447  21613153.315    21613152.521    21613165.548
       232.000         190.000
  -6312230.67149  -4899506.54646  22809797.018    22809797.373    22809812.287
       229.000         178.000
  -7189830.99149  -5541796.04947  21098845.840    21098845.359    21098857.903
       241.000         202.000
   -942534.94349   -728863.61047  19961445.536    19961444.794    19961454.553
       242.000         207.000
  -4022678.90049  -3117672.50246  23315147.921    23315147.895    23315163.729
       224.000         170.000
 01 12 19 20 41 59.9990000  0  7G 2G28G27G26G 7G 8G11
    475276.09749    369779.26747  21671796.639    21671795.768    21671807.105
       241.000         203.000
  -2116021.23549  -1641739.84147  20503972.432    20503971.935    20503980.972
       239.000         207.000
   1812242.32749   1409629.33747  21620571.858    21620571.001    21620584.026
       233.000         189.000
  -6391410.12549  -4961204.67146  22794729.625    22794729.894    22794744.843
       228.000         177.000
  -7285154.15249  -5616073.69947  21080706.381    21080705.879    21080718.358
       241.000         202.000
   -942510.22049   -728844.35347  19961450.256    19961449.522    19961459.278
       242.000         207.000
  -4068272.11349  -3153199.53046  23306471.692    23306471.678    23306487.514
       223.000         172.000
 01 12 19 20 42 29.9990000  0  7G 2G28G27G26G 7G 8G11
    485871.27349    378035.19247  21673812.894    21673812.017    21673823.336
       241.000         203.000
  -2138978.14549  -1659628.34147  20499603.904    20499603.372    20499612.403
       239.000         208.000
   1851583.27249   1440284.48447  21628058.339    21628057.458    21628070.494
       232.000         189.000
  -6470095.72849  -5022517.98746  22779756.116    22779756.428    22779771.347
       230.000         179.000
  -7380091.51849  -5690050.72547  21062640.268    21062639.809    21062652.245
       241.000         202.000
   -942063.00749   -728495.88947  19961535.360    19961534.638    19961544.396
       241.000         207.000
  -4113405.96849  -3188368.62646  23297882.961    23297882.888    23297898.680
       225.000         170.000
 01 12 19 20 42 59.9990000  0  7G 2G28G27G26G 7G 8G11
    496527.35949    386338.57347  21675840.751    21675839.856    21675851.161
       241.000         203.000
  -2161759.77649  -1677380.26647  20495268.707    20495268.186    20495277.191
       239.000         208.000
   1891249.59449   1471193.15847  21635606.667    21635605.815    21635618.880
       232.000         189.000
  -6548317.31649  -5083469.73246  22764870.936    22764871.275    22764886.132
       229.000         179.000
  -7474673.26649  -5763750.64847  21044641.880    21044641.396    21044653.818
       241.000         203.000
   -941224.46049   -727842.49347  19961694.902    19961694.209    19961704.001
       241.000         206.000
  -4158110.27949  -3223203.00046  23289375.933    23289375.878    23289391.522
       224.000         170.000
 01 12 19 20 43 29.9990000  0  7G 2G28G27G26G 7G 8G11
    507344.13049    394767.17047  21677899.218    21677898.296    21677909.572
       241.000         203.000
  -2184267.02549  -1694918.38847  20490985.739    20490985.196    20490994.186
       240.000         208.000
   1931340.60249   1502432.77347  21643235.774    21643234.982    21643248.077
       230.000         188.000
  -6625973.42149  -5143980.84546  22750093.367    22750093.699    22750108.491
       229.000         178.000
  -7568798.22449  -5837094.62847  21026730.363    21026729.904    21026742.309
       240.000         203.000
   -939894.16449   -726805.91847  19961948.089    19961947.372    19961957.167
       242.000         206.000
  -4202283.62849  -3257623.63846  23280969.918    23280969.866    23280985.420
       224.000         170.000
 01 12 19 20 43 59.9990000  0  7G 2G28G27G26G 7G 8G11
    518223.33049    403244.41447  21679969.538    21679968.612    21679979.866
       242.000         203.000
  -2206598.54049  -1712319.56647  20486736.212    20486735.663    20486744.622
       240.000         208.000
   1971757.59349   1533926.39047  21650926.908    21650926.163    21650939.294
       230.000         188.000
  -6703160.45049  -5204126.43346  22735404.952    22735405.357    22735420.128
       227.000         177.000
  -7662562.99349  -5910157.93747  21008887.384    21008886.956    21008899.345
       240.000         203.000
   -938169.63049   -725462.15247  19962276.311    19962275.571    19962285.344
       241.000         207.000
  -4246022.77149  -3291705.94146  23272646.569    23272646.461    23272662.057
       224.000         172.000
 01 12 19 20 44 29.9990000  0  7G 2G28G27G26G 7G 8G11
    529196.56149    411794.92847  21682057.784    21682056.822    21682068.042
       241.000         203.000
  -2228723.03749  -1729559.44447  20482526.131    20482525.526    20482534.428
       240.000         208.000
   2012531.90049   1565698.43546  21658686.110    21658685.352    21658698.528
       229.000         187.000
  -6779845.02749  -5263880.51046  22720812.211    22720812.609    22720827.372
       227.000         178.000
  -7755934.59349  -5982914.89047  20991119.253    20991118.818    20991131.204
       241.000         203.000
   -936019.02949   -723786.38647  19962685.550    19962684.824    19962694.593
       241.000         206.000
  -4289294.50949  -3325424.07446  23264412.198    23264412.045    23264427.606
       225.000         173.000
 01 12 19 20 44 59.9990000  0  7G 2G28G27G26G 7G 8G11
    540376.61549    420506.60247  21684185.324    21684184.373    21684195.591
       242.000         203.000
  -2250528.42449  -1746550.66047  20478376.668    20478376.100    20478384.973
       240.000         208.000
   2053775.88349   1597836.47547  21666534.767    21666533.953    21666547.165
       231.000         188.000
  -6855912.68249  -5323153.85646  22706336.845    22706337.276    22706352.051
       228.000         179.000
  -7848798.83149  -6055276.49247  20973447.635    20973447.233    20973459.610
       241.000         204.000
   -933328.80249   -721690.12547  19963197.451    19963196.753    19963206.560
       241.000         206.000
  -4331984.66549  -3358689.04446  23256288.383    23256288.276    23256303.816
       224.000         172.000
 01 12 19 20 45 29.9990000  0  7G 2G28G27G26G 7G 8G11
    551638.26949    429281.86447  21686328.366    21686327.434    21686338.676
       241.000         203.000
  -2272140.17149  -1763390.99547  20474264.079    20474263.520    20474272.365
       240.000         207.000
   2095363.75649   1630242.47347  21674448.744    21674447.986    21674461.213
       231.000         188.000
  -6931487.00249  -5382042.78746  22691955.418    22691955.832    22691970.598
       229.000         180.000
  -7941279.59849  -6127339.27947  20955848.993    20955848.605    20955860.974
       241.000         203.000
   -930224.02849   -719270.84547  19963788.227    19963787.561    19963797.413
       241.000         206.000
  -4374216.71349  -3391597.05846  23248251.752    23248251.694    23248267.213
       226.000         173.000
 01 12 19 20 45 59.9990000  0  7G 2G28G27G26G 7G 8G11
    562942.75649    438090.50747  21688479.513    21688478.642    21688489.906
       241.000         203.000
  -2293597.49449  -1780110.98947  20470180.905    20470180.323    20470189.148
       240.000         208.000
   2137256.26449   1662885.85447  21682420.764    21682420.005    21682433.188
       231.000         188.000
  -7006605.11849  -5440576.22746  22677660.797    22677661.234    22677675.952
       228.000         180.000
  -8033414.19649  -6199132.32447  20938316.208    20938315.843    20938328.183
       241.000         203.000
   -926742.97749   -716558.36647  19964450.655    19964449.988    19964459.860
       240.000         206.000
  -4416027.96049  -3424177.18946  23240295.410    23240295.271    23240310.641
       226.000         174.000
 01 12 19 20 46 29.9990000  0  7G 2G28G27G26G 7G 8G11
    574420.26149    447033.96047  21690663.656    21690662.778    21690674.064
       241.000         203.000
  -2314770.79149  -1796609.66947  20466151.760    20466151.196    20466159.968
       241.000         208.000
   2179582.99749   1695867.56747  21690475.385    21690474.646    21690487.808
       231.000         188.000
  -7081135.15949  -5498651.43046  22663478.142    22663478.529    22663493.207
       230.000         180.000
  -8125070.96649  -6270553.03147  20920874.356    20920874.012    20920886.317
       240.000         203.000
   -922754.88449   -713450.79347  19965209.571    19965208.891    19965218.783
       240.000         205.000
  -4457287.03049  -3456327.05146  23232444.057    23232443.880    23232459.188
       226.000         174.000
 01 12 19 20 46 59.9990000  0  7G 2G28G27G26G 7G 8G11
    585991.00549    456050.07247  21692865.523    21692864.663    21692875.981
       241.000         203.000
  -2335740.28849  -1812949.54547  20462161.441    20462160.861    20462169.585
       241.000         208.000
   2222263.83949   1729125.24446  21698597.397    21698596.667    21698609.830
       230.000         187.000
  -7155155.29449  -5556329.31046  22649392.475    22649392.867    22649407.455
       230.000         179.000
  -8216328.56349  -6341662.69747  20903508.474    20903508.150    20903520.417
       241.000         204.000
   -918338.99649   -710009.87147  19966049.871    19966049.207    19966059.076
       240.000         205.000
  -4498072.21449  -3488107.66146  23224682.815    23224682.643    23224697.884
       226.000         173.000
 01 12 19 20 47 29.9990000  0  7G 2G28G27G26G 7G 8G11
    597656.75749    465140.22247  21695085.456    21695084.624    21695095.971
       241.000         203.000
  -2356504.57749  -1829129.51947  20458210.167    20458209.572    20458218.259
       242.000         209.000
   2265299.97449   1762659.76947  21706786.983    21706786.278    21706799.460
       230.000         188.000
  -7228662.34649  -5613607.38346  22635404.445    22635404.839    22635419.347
       230.000         180.000
  -8307183.84849  -6412458.88047  20886219.212    20886218.855    20886231.089
       241.000         204.000
   -913493.43749   -706234.13247  19966971.894    19966971.259    19966981.178
       240.000         205.000
  -4538380.43549  -3519516.60946  23217012.380    23217012.177    23217027.398
       226.000         175.000
 01 12 19 20 47 59.9990000  0  7G 2G28G27G26G 7G 8G11
    609402.89149    474293.00047  21697320.705    21697319.864    21697331.255
       240.000         203.000
  -2377079.32749  -1845161.79447  20454294.972    20454294.360    20454303.039
       241.000         209.000
   2308676.11149   1796459.23346  21715041.335    21715040.585    21715053.816
       230.000         187.000
  -7301669.21649  -5670495.69746  22621511.546    22621511.968    22621526.461
       229.000         179.000
  -8397650.01949  -6482951.85847  20869003.977    20869003.612    20869015.798
       242.000         204.000
   -908232.43949   -702134.67347  19967972.973    19967972.376    19967982.340
       240.000         206.000
  -4578225.24549  -3550564.45946  23209430.002    23209429.881    23209445.105
       226.000         174.000
 01 12 19 20 48 29.9990000  0  7G 2G28G27G26G 7G 8G11
    621269.30849    483539.50847  21699578.822    21699577.999    21699589.443
       240.000         203.000
  -2397424.22749  -1861014.96947  20450423.483    20450422.882    20450431.552
       241.000         209.000
   2352431.94849   1830554.55846  21723367.871    21723367.140    21723380.394
       230.000         187.000
  -7374134.36749  -5726961.89646  22607721.671    22607722.162    22607736.657
       228.000         179.000
  -8487685.93249  -6553109.57747  20851870.633    20851870.247    20851882.376
       242.000         204.000
   -902515.38749   -697679.85447  19969060.876    19969060.290    19969070.280
       240.000         206.000
  -4617564.83149  -3581218.63746  23201943.924    23201943.751    23201959.003
       225.000         174.000
 01 12 19 20 48 59.9990000  0  7G 2G28G27G26G 7G 8G11
    633241.79149    492868.65947  21701857.105    21701856.305    21701867.805
       240.000         203.000
  -2417554.24149  -1876700.69247  20446592.859    20446592.278    20446600.938
       241.000         209.000
   2396552.49749   1864934.07746  21731763.776    21731763.102    21731776.350
       230.000         187.000
  -7446070.65849  -5783015.99346  22594032.412    22594032.992    22594047.493
       230.000         180.000
  -8577304.45949  -6622942.06547  20834816.650    20834816.296    20834828.388
       242.000         204.000
   -896356.20649   -692880.51347  19970233.002    19970232.369    19970242.372
       240.000         206.000
  -4656412.16349  -3611489.24646  23194551.480    23194551.265    23194566.524
       226.000         174.000
 01 12 19 20 49 29.9980000  0  7G 2G28G27G26G 7G 8G11
    645308.70549    502271.39847  21704153.393    21704152.585    21704164.152
       240.000         203.000
  -2437480.09949  -1892227.33247  20442801.037    20442800.519    20442809.179
       241.000         209.000
   2441024.64349   1899587.56046  21740226.634    21740225.957    21740239.201
       230.000         186.000
  -7517485.12249  -5838663.47546  22580442.613    22580443.165    22580457.626
       231.000         182.000
  -8666512.63049  -6692454.79747  20817840.808    20817840.439    20817852.473
       242.000         204.000
   -889766.16149   -687745.43247  19971487.059    19971486.413    19971496.424
       241.000         206.000
  -4694775.83949  -3641382.98246  23187250.995    23187250.847    23187266.111
       225.000         174.000
 01 12 19 20 49 59.9980000  0  7G 2G28G27G26G 7G 8G11
    657572.20249    511827.31847  21706487.066    21706486.276    21706497.908
       239.000         202.000
  -2457102.60349  -1907517.59347  20439067.011    20439066.478    20439075.133
       241.000         208.000
   2485951.73049   1934595.54446  21748775.973    21748775.362    21748788.663
       230.000         187.000
  -7588280.14749  -5893828.28846  22566970.716    22566971.225    22566985.626
       230.000         182.000
  -8755213.85749  -6761572.50847  20800961.424    20800961.059    20800973.005
       242.000         204.000
   -882643.07749   -682194.99047  19972842.648    19972841.950    19972851.913
       241.000         206.000
  -4732556.33849  -3670822.26146  23180061.497    23180061.386    23180076.589
       224.000         172.000
 01 12 19 20 50 29.9980000  0  7G 2G28G27G26G 7G 8G11
    669950.86149    521472.98047  21708842.612    21708841.859    21708853.580
       239.000         202.000
  -2476502.11149  -1922634.08147  20435375.391    20435374.865    20435383.497
       240.000         208.000
   2531250.57349   1969893.21446  21757396.168    21757395.523    21757408.879
       231.000         187.000
  -7658532.71249  -5948570.40046  22553601.960    22553602.482    22553616.878
       230.000         181.000
  -8843484.99949  -6830355.09147  20784163.913    20784163.522    20784175.380
       242.000         204.000
   -875067.95949   -676292.31147  19974284.173    19974283.477    19974293.416
       241.000         205.000
  -4769831.25449  -3699867.58146  23172968.161    23172968.136    23172983.305
       226.000         171.000
 01 12 19 20 50 59.9980000  0  7G 2G28G27G26G 7G 8G11
    682383.38849    531160.61347  21711208.419    21711207.692    21711219.472
       239.000         202.000
  -2495740.85849  -1937625.30147  20431714.356    20431713.845    20431722.467
       241.000         208.000
   2576859.37449   2005432.40846  21766075.450    21766074.732    21766088.083
       230.000         187.000
  -7728302.82249  -6002936.57746  22540325.109    22540325.569    22540339.938
       230.000         182.000
  -8931386.12149  -6898849.35647  20767436.791    20767436.401    20767448.194
       242.000         204.000
   -867101.78149   -670084.91347  19975800.134    19975799.413    19975809.324
       241.000         205.000
  -4806661.19849  -3728566.16346  23165959.638    23165959.569    23165974.681
       225.000         173.000
 01 12 19 20 51 29.9980000  0  7G 2G28G27G26G 7G 8G11
    694965.13749    540964.53947  21713602.689    21713601.941    21713613.772
       239.000         202.000
  -2514724.11149  -1952417.43847  20428101.974    20428101.461    20428110.075
       241.000         208.000
   2622872.66049   2041286.79146  21774831.614    21774830.879    21774844.257
       229.000         186.000
  -7797493.66349  -6056851.38446  22527158.474    22527158.910    22527173.203
       231.000         182.000
  -9018820.75549  -6966980.12847  20750798.410    20750798.041    20750809.806
       241.000         205.000
   -858648.95949   -663498.30447  19977408.697    19977407.970    19977417.820
       241.000         205.000
  -4842949.85449  -3756842.96746  23159054.239    23159054.040    23159069.156
       225.000         175.000
 01 12 19 20 51 59.9980000  0  7G 2G28G27G26G 7G 8G11
    707649.57149    550848.46947  21716016.455    21716015.732    21716027.610
       239.000         202.000
  -2533498.53349  -1967046.85047  20424529.351    20424528.810    20424537.407
       241.000         208.000
   2669243.47949   2077419.78046  21783655.804    21783655.052    21783668.501
       229.000         186.000
  -7866150.39449  -6110350.00146  22514093.452    22514093.880    22514108.082
       230.000         181.000
  -9105834.22849  -7034782.73147  20734240.243    20734239.846    20734251.557
       242.000         205.000
   -849755.70349   -656568.50047  19979101.060    19979100.339    19979110.139
       242.000         205.000
  -4878742.45449  -3784733.23546  23152243.091    23152242.885    23152258.008
       225.000         173.000
 01 12 19 20 52 29.9980000  0  7G 2G28G27G26G 7G 8G11
    720388.26649    560774.68747  21718440.576    21718439.836    21718451.795
       239.000         202.000
  -2552113.58949  -1981552.07347  20420986.987    20420986.473    20420995.078
       240.000         208.000
   2715922.56349   2113792.97246  21792538.583    21792537.875    21792551.402
       229.000         186.000
  -7934320.11249  -6163469.12946  22501121.060    22501121.516    22501135.660
       230.000         181.000
  -9192473.78549  -7102293.96547  20717753.199    20717752.801    20717764.465
       242.000         205.000
   -840470.35549   -649333.16947  19980868.041    19980867.294    19980877.059
       241.000         205.000
  -4914086.89049  -3812274.26346  23145517.131    23145516.965    23145532.132
       225.000         172.000
 01 12 19 20 52 59.9980000  0  7G 2G28G27G26G 7G 8G11
    733237.31549    570786.90447  21720885.707    21720884.961    21720896.965
       239.000         201.000
  -2570513.01349  -1995889.27547  20417485.643    20417485.149    20417493.797
       240.000         208.000
   2762965.25049   2150449.48446  21801490.603    21801489.892    21801503.473
       229.000         185.000
  -8001945.37949  -6216164.00246  22488252.265    22488252.738    22488266.850
       231.000         181.000
  -9278682.34649  -7169469.36347  20701348.141    20701347.754    20701359.401
       242.000         205.000
   -830736.50749   -641748.36647  19982720.371    19982719.614    19982729.336
       242.000         205.000
  -4948925.23649  -3839420.92846  23138887.427    23138887.346    23138902.470
       224.000         169.000
 01 12 19 20 53 29.9980000  0  7G 2G28G27G26G 7G 8G11
    746197.54049    580885.74847  21723352.008    21723351.240    21723363.272
       239.000         201.000
  -2588696.49249  -2010058.20547  20414025.416    20414024.933    20414033.604
       240.000         208.000
   2810371.50649   2187389.30146  21810511.815    21810511.104    21810524.706
       229.000         185.000
  -8069024.34849  -6268433.20146  22475487.494    22475487.926    22475502.018
       231.000         181.000
  -9364458.27049  -7236307.64147  20685025.420    20685025.040    20685036.671
       242.000         205.000
   -820553.56349   -633813.60947  19984658.106    19984657.365    19984667.123
       242.000         206.000
  -4983255.38249  -3866171.61746  23132354.529    23132354.459    23132369.471
       225.000         169.000
 01 12 19 20 53 59.9980000  0  7G 2G28G27G26G 7G 8G11
    759226.37149    591038.05847  21725831.354    21725830.573    21725842.592
       238.000         200.000
  -2606707.40749  -2024092.67647  20410598.005    20410597.544    20410606.231
       239.000         208.000
   2858097.89749   2224578.55946  21819593.959    21819593.236    21819606.836
       228.000         184.000
  -8135598.22949  -6320308.81946  22462818.838    22462819.232    22462833.278
       231.000         183.000
  -9449842.85049  -7302840.97347  20668777.161    20668776.805    20668788.412
       242.000         205.000
   -809963.63549   -625561.72247  19986673.279    19986672.579    19986682.364
       242.000         206.000
  -5017119.46549  -3892559.11446  23125910.389    23125910.283    23125925.243
       226.000         171.000
 01 12 19 20 54 29.9980000  0  7G 2G28G27G26G 7G 8G11
    772424.95249    601322.63947  21728342.948    21728342.188    21728354.218
       238.000         200.000
  -2624444.80749  -2037914.01447  20407222.681    20407222.209    20407230.919
       240.000         208.000
   2906244.89449   2262095.56546  21828756.049    21828755.394    21828768.994
       227.000         184.000
  -8201564.51649  -6371710.99946  22450265.769    22450266.155    22450280.184
       230.000         182.000
  -9534733.70249  -7368989.58147  20652622.930    20652622.537    20652634.118
       242.000         206.000
   -798865.33649   -616913.71547  19988785.239    19988784.546    19988794.329
       242.000         206.000
  -5050415.13849  -3918503.69046  23119574.511    23119574.287    23119589.139
       225.000         171.000
 01 12 19 20 54 59.9980000  0  7G 2G28G27G26G 7G 8G11
    785719.69549    611682.15647  21730872.894    21730872.128    21730884.146
       239.000         200.000
  -2641982.86949  -2051580.02947  20403885.265    20403884.804    20403893.530
       240.000         207.000
   2954738.29249   2299882.49646  21837984.031    21837983.460    21837997.105
       227.000         183.000
  -8266995.59549  -6422696.11346  22437814.492    22437814.909    22437828.953
       231.000         182.000
  -9619203.53049  -7434810.12447  20636548.767    20636548.374    20636559.947
       242.000         206.000
   -787332.20649   -607926.87647  19990979.908    19990979.244    19990989.038
       241.000         205.000
  -5083214.96249  -3944061.89446  23113332.780    23113332.602    23113347.420
       225.000         171.000
 01 12 19 20 55 29.9980000  0  7G 2G28G27G26G 7G 8G11
    799128.29149    622130.38847  21733424.516    21733423.741    21733435.733
       239.000         200.000
  -2659304.51049  -2065077.39447  20400589.024    20400588.574    20400597.311
       239.000         207.000
   3003594.88149   2337952.42446  21847281.292    21847280.665    21847294.358
       227.000         183.000
  -8331872.63549  -6473249.53146  22425468.667    22425469.123    22425483.141
       231.000         183.000
  -9703233.62549  -7500288.01847  20620558.342    20620557.919    20620569.459
       242.000         206.000
   -775346.64149   -598587.49047  19993260.630    19993259.990    19993269.866
       241.000         205.000
  -5115500.20449  -3969219.12446  23107189.016    23107188.873    23107203.604
       225.000         170.000
 01 12 19 20 55 59.9980000  0  7G 2G28G27G26G 7G 8G11
    812648.05149    632665.24347  21735997.313    21735996.519    21736008.439
       239.000         200.000
  -2676412.86249  -2078408.56747  20397333.358    20397332.928    20397341.676
       240.000         207.000
   3052810.95549   2376302.47146  21856646.987    21856646.282    21856660.014
       227.000         183.000
  -8396197.37749  -6523372.56346  22413228.046    22413228.433    22413242.412
       232.000         183.000
  -9786825.87249  -7565424.73247  20604651.197    20604650.772    20604662.282
       242.000         206.000
   -762911.07149   -588897.45447  19995626.975    19995626.375    19995636.298
       241.000         205.000
  -5147273.00149  -3993977.07246  23101142.843    23101142.624    23101157.350
       225.000         170.000
 01 12 19 20 56 29.9980000  0  7G 2G28G27G26G 7G 8G11
    826314.19749    643314.16547  21738598.014    21738597.170    21738609.012
       239.000         200.000
  -2693273.23949  -2091546.51547  20394124.884    20394124.466    20394133.256
       239.000         207.000
   3102420.71449   2414959.28346  21866087.544    21866086.815    21866100.563
       227.000         182.000
  -8459933.36849  -6573036.85346  22401099.478    22401099.801    22401113.730
       233.000         184.000
  -9869944.11649  -7630192.09047  20588834.293    20588833.834    20588845.305
       242.000         206.000
   -749990.48049   -578829.48947  19998085.652    19998085.075    19998095.027
       241.000         205.000
  -5178497.16949  -4018307.51446  23095200.818    23095200.739    23095215.514
       224.000         169.000
 01 12 19 20 56 59.9980000  0  7G 2G28G27G26G 7G 8G11
    840038.83649    654008.66247  21741209.775    21741208.928    21741220.721
       238.000         200.000
  -2709973.90149  -2104560.00747  20390946.835    20390946.408    20390955.224
       239.000         207.000
   3152335.60549   2453853.86246  21875586.193    21875585.421    21875599.203
       227.000         182.000
  -8523167.31349  -6622309.93346  22389066.447    22389066.725    22389080.601
       232.000         184.000
  -9952675.16249  -7694657.73547  20573091.050    20573090.573    20573101.989
       242.000         205.000
   -736672.42049   -568451.81347  20000620.013    20000619.430    20000629.389
       241.000         205.000
  -5209259.49649  -4042278.09246  23089346.809    23089346.762    23089361.533
       225.000         172.000
 01 12 19 20 57 29.9980000  0  7G 2G28G27G26G 7G 8G11
    853844.31549    664766.15347  21743836.895    21743836.055    21743847.831
       238.000         200.000
  -2726492.81949  -2117431.88247  20387803.388    20387802.959    20387811.766
       239.000         207.000
   3202577.25449   2493003.05046  21885146.944    21885146.213    21885160.018
       227.000         182.000
  -8585875.71749  -6671173.49646  22377133.319    22377133.636    22377147.507
       231.000         184.000
 -10034995.65849  -7758803.46947  20557425.867    20557425.427    20557436.802
       242.000         205.000
   -722934.51649   -557746.98747  20003234.266    20003233.675    20003243.640
       241.000         205.000
  -5239536.79849  -4065870.74146  23083585.163    23083585.153    23083599.806
       227.000         173.000
 01 12 19 20 57 59.9980000  0  7G 2G28G27G26G 7G 8G11
    867724.89449    675582.15647  21746478.259    21746477.448    21746489.238
       239.000         200.000
  -2742836.38149  -2130167.10747  20384693.286    20384692.844    20384701.657
       239.000         206.000
   3253138.94349   2532401.63446  21894768.626    21894767.917    21894781.739
       226.000         181.000
  -8648063.27349  -6719631.20346  22365299.323    22365299.642    22365313.484
       231.000         183.000
 -10116910.37349  -7822633.00947  20541837.914    20541837.500    20541848.835
       242.000         205.000
   -708782.64949   -546719.59147  20005927.338    20005926.698    20005936.665
       242.000         205.000
  -5269333.79849  -4089089.12046  23077915.030    23077914.938    23077929.631
       227.000         174.000
 01 12 19 20 58 29.9980000  0  7G 2G28G27G26G 7G 8G11
    881750.74149    686511.35847  21749147.315    21749146.513    21749158.289
       238.000         200.000
  -2758934.83349  -2142711.34847  20381629.817    20381629.376    20381638.206
       238.000         207.000
   3304089.59349   2572103.29146  21904464.293    21904463.583    21904477.492
       226.000         181.000
  -8709659.15249  -6767627.87346  22353577.891    22353578.234    22353592.040
       232.000         183.000
 -10198348.65449  -7886091.30347  20526340.695    20526340.232    20526351.555
       242.000         206.000
   -694146.67749   -535314.97447  20008712.516    20008711.839    20008721.779
       241.000         204.000
  -5298579.67449  -4111878.05246  23072349.712    23072349.600    23072364.331
       227.000         173.000
 01 12 19 20 58 59.9980000  0  7G 2G28G27G26G 7G 8G11
    895919.92349    697552.24547  21751843.647    21751842.856    21751854.666
       238.000         201.000
  -2774790.81649  -2155066.64647  20378612.502    20378612.062    20378620.911
       239.000         207.000
   3355426.49249   2612105.92946  21914233.489    21914232.763    21914246.719
       226.000         181.000
  -8770664.08449  -6815164.06646  22341968.988    22341969.296    22341983.028
       232.000         183.000
 -10279311.48049  -7949179.11847  20510933.927    20510933.447    20510944.730
       242.000         206.000
   -679028.58049   -523534.67447  20011589.415    20011588.716    20011598.639
       241.000         205.000
  -5327275.76549  -4134238.58746  23066889.022    23066888.856    23066903.584
       227.000         173.000
 01 12 19 20 59 29.9980000  0  7G 2G28G27G26G 7G 8G11
    910205.86249    708684.10947  21754562.190    21754561.413    21754573.232
       238.000         201.000
  -2790431.35749  -2167254.07147  20375636.188    20375635.744    20375644.633
       239.000         207.000
   3407122.23849   2652388.19146  21924070.982    21924070.242    21924084.228
       226.000         180.000
  -8831103.75449  -6862259.78946  22330467.671    22330467.925    22330481.600
       233.000         184.000
 -10359824.58849  -8011916.50147  20495612.740    20495612.243    20495623.509
       243.000         207.000
   -663455.03149   -511399.47547  20014552.987    20014552.303    20014562.214
       242.000         205.000
  -5355447.98349  -4156190.89246  23061527.886    23061527.783    23061542.503
       226.000         172.000
 01 12 19 20 59 59.9980000  0  7G 2G28G27G26G 7G 8G11
    924577.15349    719882.47247  21757297.006    21757296.213    21757308.063
       238.000         200.000
  -2805888.23149  -2179298.38147  20372694.840    20372694.396    20372703.286
       239.000         207.000
   3459144.27049   2692924.70046  21933970.566    21933969.819    21933983.847
       226.000         181.000
  -8891008.52049  -6908938.70946  22319068.029    22319068.326    22319081.974
       232.000         183.000
 -10439918.48349  -8074327.22447  20480371.331    20480370.822    20480382.075
       243.000         207.000
   -647457.38249   -498933.80947  20017597.294    20017596.585    20017606.520
       242.000         206.000
  -5383126.79649  -4177758.73846  23056260.641    23056260.592    23056275.365
       226.000         173.000
 01 12 19 21  0 29.9980000  0  7G 2G28G27G26G 7G 8G11
    939069.32649    731175.03147  21760054.798    21760054.013    21760065.864
       238.000         200.000
  -2821126.21149  -2191172.12447  20369795.169    20369794.689    20369803.584
       240.000         207.000
   3511527.24449   2733742.46246  21943938.810    21943938.063    21943952.139
       226.000         179.000
  -8950341.86349  -6955172.36846  22307777.159    22307777.462    22307791.109
       232.000         184.000
 -10519556.68049  -8136382.86047  20465216.612    20465216.118    20465227.330
       243.000         208.000
   -631000.12349   -486110.01447  20020729.082    20020728.347    20020738.299
       242.000         206.000
  -5410275.65149  -4198913.60946  23051094.311    23051094.234    23051109.069
       227.000         175.000
 01 12 19 21  0 59.9980000  0  7G 2G28G27G26G 7G 8G11
    953608.43149    742504.15747  21762821.519    21762820.749    21762832.575
       237.000         200.000
  -2836219.96349  -2202933.48347  20366922.966    20366922.470    20366931.319
       239.000         207.000
   3564195.90749   2774782.82946  21953961.457    21953960.667    21953974.744
       226.000         178.000
  -9009177.07849  -7001017.86646  22296581.101    22296581.379    22296595.029
       232.000         184.000
 -10598812.67349  -8198140.67647  20450134.586    20450134.129    20450145.317
       242.000         208.000
   -614157.41049   -472985.86547  20023934.204    20023933.447    20023943.388
       241.000         205.000
  -5436968.32649  -4219713.01346  23046014.896    23046014.748    23046029.564
       228.000         175.000
 01 12 19 21  1 29.9980000  0  7G 2G28G27G26G 7G 8G11
    968275.27349    753932.82247  21765612.554    21765611.784    21765623.592
       237.000         200.000
  -2851089.11349  -2214519.82347  20364093.525    20364092.992    20364101.830
       240.000         207.000
   3617230.23149   2816108.13346  21964053.617    21964052.869    21964066.877
       225.000         177.000
  -9067432.25549  -7046411.40346  22285495.475    22285495.704    22285509.322
       232.000         184.000
 -10677604.73849  -8259536.98947  20435140.888    20435140.445    20435151.611
       243.000         208.000
   -596848.57949   -459498.50847  20027227.931    20027227.206    20027237.179
       241.000         205.000
  -5463123.21849  -4240093.36046  23041037.832    23041037.630    23041052.432
       228.000         175.000
 01 12 19 21  1 59.9980000  0  7G 2G28G27G26G 7G 8G11
    983083.22549    765471.43647  21768430.462    21768429.682    21768441.493
       238.000         200.000
  -2865720.93849  -2225921.23747  20361309.186    20361308.645    20361317.510
       239.000         207.000
   3670642.36249   2857727.84246  21974217.670    21974216.957    21974230.942
       226.000         176.000
  -9125093.52649  -7091342.17246  22274522.806    22274523.050    22274536.618
       232.000         184.000
 -10755919.00349  -8320560.99747  20420238.122    20420237.673    20420248.809
       243.000         209.000
   -579060.63749   -445637.81647  20030612.882    20030612.169    20030622.154
       241.000         205.000
  -5488726.51949  -4260043.89246  23036165.679    23036165.446    23036180.181
       227.000         173.000
 01 12 19 21  2 29.9980000  0  7G 2G28G27G26G 7G 8G11
    997957.33549    777061.59947  21771260.990    21771260.188    21771271.989
       239.000         200.000
  -2880190.91349  -2237196.53647  20358555.575    20358555.074    20358563.987
       239.000         207.000
   3724356.14149   2899582.61146  21984439.138    21984438.434    21984452.436
       226.000         176.000
  -9182235.18849  -7135868.03946  22263649.016    22263649.268    22263662.816
       232.000         184.000
 -10833829.76849  -8381270.58347  20405412.156    20405411.673    20405422.779
       243.000         208.000
   -560868.65349   -431462.28247  20034074.744    20034074.028    20034084.023
       242.000         206.000
  -5513852.64849  -4279622.59146  23031384.328    23031384.044    23031398.683
       228.000         174.000
 01 12 19 21  2 59.9980000  0  7G 2G28G27G26G 7G 8G11
   1012958.58649    788750.82247  21774115.690    21774114.883    21774126.669
       238.000         201.000
  -2894438.56649  -2248298.60047  20355844.278    20355843.813    20355852.742
       239.000         207.000
   3778431.64349   2941719.22046  21994729.440    21994728.763    21994742.820
       225.000         177.000
  -9238795.17349  -7179940.65046  22252885.907    22252886.172    22252899.713
       231.000         185.000
 -10911275.24049  -8441617.60547  20390674.636    20390674.206    20390685.274
       243.000         208.000
   -542211.90549   -416924.60347  20037625.092    20037624.353    20037634.334
       241.000         206.000
  -5538439.86549  -4298781.36546  23026705.522    23026705.247    23026719.793
       227.000         175.000
 01 12 19 21  3 29.9980000  0  7G 2G28G27G26G 7G 8G11
   1028066.83749    800523.42147  21776990.730    21776989.935    21777001.730
       238.000         201.000
  -2908484.28249  -2259243.30447  20353171.433    20353170.968    20353179.908
       239.000         207.000
   3832847.82849   2984121.31046  22005084.676    22005083.927    22005098.032
       226.000         175.000
  -9294792.73149  -7223575.01646  22242229.744    22242230.063    22242243.661
       232.000         185.000
 -10988274.71249  -8501617.09847  20376021.981    20376021.589    20376032.653
       242.000         208.000
   -523110.34249   -402040.31947  20041260.063    20041259.297    20041269.291
       242.000         206.000
  -5562507.59549  -4317535.36446  23022125.498    23022125.244    23022139.828
       226.000         175.000
 01 12 19 21  3 59.9980000  0  7G 2G28G27G26G 7G 8G11
   1043210.23449    812323.40547  21779872.456    21779871.669    21779883.489
       239.000         201.000
  -2922400.44049  -2270087.05047  20350523.261    20350522.818    20350531.715
       239.000         207.000
   3887531.38449   3026731.71346  22015490.734    22015489.968    22015504.086
       225.000         175.000
  -9350299.37149  -7266826.85646  22231667.124    22231667.419    22231680.996
       231.000         185.000
 -11064899.70149  -8561324.78647  20361440.671    20361440.261    20361451.326
       242.000         208.000
   -503636.35649   -386865.83147  20044965.866    20044965.116    20044975.099
       241.000         206.000
  -5586127.53749  -4335940.44146  23017630.579    23017630.416    23017645.066
       226.000         175.000
 01 12 19 21  4 29.9980000  0  7G 2G28G27G26G 7G 8G11
   1058476.49749    824219.12247  21782777.586    21782776.792    21782788.658
       238.000         201.000
  -2936099.93249  -2280761.96747  20347916.348    20347915.882    20347924.755
       240.000         206.000
   3942568.93049   3069617.96846  22025964.082    22025963.371    22025977.489
       225.000         174.000
  -9405226.41649  -7309627.05546  22221214.748    22221215.053    22221228.608
       231.000         185.000
 -11141061.68749  -8620671.69847  20346947.505    20346947.057    20346958.110
       243.000         208.000
   -483702.40449   -371332.93547  20048759.188    20048758.452    20048768.444
       242.000         206.000
  -5609211.40849  -4353927.81946  23013237.830    23013237.647    23013252.278
       227.000         174.000
 01 12 19 21  4 59.9980000  0  7G 2G28G27G26G 7G 8G11
   1073963.39549    836286.76747  21785724.676    21785723.897    21785735.804
       238.000         201.000
  -2949485.42149  -2291192.21147  20345369.182    20345368.727    20345377.551
       240.000         206.000
   3998057.18949   3112855.41946  22036523.288    22036522.557    22036536.606
       225.000         173.000
  -9459475.56249  -7351899.03046  22210891.428    22210891.705    22210905.241
       233.000         186.000
 -11216662.41649  -8679581.26547  20332561.051    20332560.630    20332571.678
       242.000         208.000
   -463211.01349   -355365.66347  20052658.586    20052657.862    20052667.893
       241.000         206.000
  -5631660.71449  -4371420.74946  23008965.786    23008965.662    23008980.213
       227.000         173.000
 01 12 19 21  5 29.9980000  0  7G 2G28G27G26G 7G 8G11
   1089629.64249    848494.15847  21788705.887    21788705.124    21788717.081
       238.000         201.000
  -2962598.72249  -2301410.35947  20342873.813    20342873.338    20342882.144
       240.000         206.000
   4053953.60649   3156410.90846  22047160.177    22047159.409    22047173.402
       225.000         174.000
  -9513087.45549  -7393674.44346  22200689.367    22200689.635    22200703.122
       232.000         185.000
 -11291742.51249  -8738085.14247  20318273.626    20318273.262    20318284.323
       242.000         208.000
   -442203.88849   -338996.52347  20056656.149    20056655.417    20056665.494
       241.000         206.000
  -5653516.67149  -4388451.33446  23004806.758    23004806.545    23004821.102
       225.000         173.000
 01 12 19 21  5 59.9980000  0  7G 2G28G27G26G 7G 8G11
   1105376.06549    860764.02547  21791702.367    21791701.596    21791713.608
       238.000         200.000
  -2975539.60649  -2311494.15247  20340411.207    20340410.750    20340419.544
       240.000         206.000
   4110157.68749   3200206.13746  22057855.577    22057854.795    22057868.739
       225.000         174.000
  -9566160.66349  -7435030.10846  22190589.761    22190590.050    22190603.493
       232.000         185.000
 -11366400.69749  -8796260.25547  20304066.566    20304066.191    20304077.251
       243.000         208.000
   -420780.48349   -322303.00847  20060732.946    20060732.199    20060742.277
       241.000         205.000
  -5674878.20849  -4405096.66646  23000741.713    23000741.555    23000756.056
       227.000         172.000
 01 12 19 21  6 29.9980000  0  7G 2G28G27G26G 7G 8G11
   1121219.14849    873109.20247  21794717.257    21794716.464    21794728.516
       238.000         200.000
  -2988291.75149  -2321430.87747  20337984.572    20337984.093    20337992.851
       240.000         206.000
   4166684.87849   3244253.12246  22068612.547    22068611.694    22068625.627
       225.000         173.000
  -9618678.08549  -7475952.69446  22180595.950    22180596.241    22180609.634
       231.000         184.000
 -11440619.87849  -8854093.29047  20289943.060    20289942.677    20289953.700
       243.000         208.000
   -398924.44149   -305272.37147  20064892.028    20064891.269    20064901.342
       240.000         204.000
  -5695728.27149  -4421343.46046  22996774.065    22996773.889    22996788.272
       227.000         172.000
 01 12 19 21  6 59.9980000  0  7G 2G28G27G26G 7G 8G11
   1137141.29349    885515.99347  21797747.220    21797746.404    21797758.467
       238.000         200.000
  -3000873.35249  -2331234.71347  20335590.358    20335589.882    20335598.629
       240.000         206.000
   4223516.44849   3288537.28746  22079427.315    22079426.508    22079440.444
       225.000         175.000
  -9670656.77349  -7516455.48046  22170704.667    22170704.929    22170718.299
       232.000         185.000
 -11514417.11849  -8911597.54547  20275899.851    20275899.455    20275910.477
       243.000         208.000
   -376653.70049   -287918.58847  20069129.957    20069129.246    20069139.347
       241.000         204.000
  -5716084.12149  -4437205.17546  22992900.416    22992900.235    22992914.671
       227.000         174.000
 01 12 19 21  7 29.9980000  0  7G 2G28G27G26G 7G 8G11
   1153190.87549    898022.07647  21800801.430    21800800.592    21800812.674
       239.000         200.000
  -3013236.77949  -2340868.54147  20333237.660    20333237.188    20333245.930
       239.000         207.000
   4280699.41349   3333095.26846  22090309.018    22090308.180    22090322.191
       225.000         174.000
  -9722047.95849  -7556500.47346  22160925.223    22160925.448    22160938.789
       232.000         185.000
 -11587743.75349  -8968735.09247  20261946.176    20261945.774    20261956.814
       242.000         208.000
   -353920.51349   -270204.46447  20073455.943    20073455.261    20073465.353
       241.000         204.000
  -5735897.09149  -4452643.88446  22989130.171    22989129.924    22989144.399
       226.000         174.000
 01 12 19 21  7 59.9980000  0  7G 2G28G27G26G 7G 8G11
   1169355.03649    910617.44747  21803877.413    21803876.582    21803888.677
       237.000         200.000
  -3025395.38549  -2350342.76747  20330923.951    20330923.475    20330932.215
       240.000         207.000
   4338219.62549   3377916.04446  22101254.884    22101254.028    22101268.140
       224.000         175.000
  -9772863.96449  -7596097.27646  22151255.180    22151255.405    22151268.749
       232.000         187.000
 -11660612.04849  -9025515.48747  20248079.685    20248079.312    20248090.378
       242.000         207.000
   -330738.03749   -252140.23847  20077867.433    20077866.759    20077876.870
       241.000         204.000
  -5755179.61249  -4467669.26546  22985460.744    22985460.526    22985475.099
       227.000         174.000
 01 12 19 21  8 29.9980000  0  7G 2G28G27G26G 7G 8G11
   1185607.09649    923281.31147  21806970.114    21806969.280    21806981.436
       237.000         200.000
  -3037376.11649  -2359678.39147  20328644.096    20328643.623    20328652.356
       241.000         207.000
   4396049.08449   3422977.78146  22112259.549    22112258.731    22112272.936
       224.000         175.000
  -9823130.81249  -7635266.17146  22141689.669    22141689.887    22141703.206
       233.000         187.000
 -11733048.19049  -9081959.13947  20234295.478    20234295.094    20234306.127
       242.000         207.000
   -307133.42849   -233747.07947  20082359.321    20082358.611    20082368.714
       241.000         204.000
  -5773958.18149  -4482301.95146  22981887.246    22981887.064    22981901.654
       227.000         175.000
 01 12 19 21  8 59.9980000  0  7G 2G28G27G26G 7G 8G11
   1201976.33849    936036.48147  21810085.115    21810084.282    21810096.477
       237.000         199.000
  -3049150.28049  -2368853.06347  20326403.530    20326403.060    20326411.821
       241.000         207.000
   4454215.80649   3468302.32246  22123328.375    22123327.597    22123341.863
       224.000         174.000
  -9872819.14249  -7673984.26646  22132234.272    22132234.464    22132247.720
       233.000         186.000
 -11805022.55949  -9138042.96447  20220599.190    20220598.758    20220609.745
       243.000         207.000
   -283077.84149   -215002.50947  20086936.971    20086936.267    20086946.375
       241.000         204.000
  -5792203.42149  -4496519.04946  22978415.244    22978415.097    22978429.706
       227.000         173.000
 01 12 19 21  9 29.9980000  0  7G 2G28G27G26G 7G 8G11
   1218471.20249    948889.53447  21813224.038    21813223.208    21813235.400
       236.000         198.000
  -3060709.74749  -2377860.44247  20324203.813    20324203.366    20324212.111
       241.000         207.000
   4512727.10249   3513895.34846  22134462.881    22134462.061    22134476.357
       224.000         174.000
  -9921919.73949  -7712244.40546  22122890.677    22122890.879    22122904.056
       233.000         186.000
 -11876526.21049  -9193760.00147  20206992.402    20206991.996    20207002.918
       242.000         207.000
   -258562.96849   -195900.05647  20091601.994    20091601.309    20091611.450
       239.000         204.000
  -5809906.47549  -4510313.66146  22975046.488    22975046.288    22975060.821
       228.000         172.000
 01 12 19 21  9 59.9980000  0  7G 2G28G27G26G 7G 8G11
   1235092.96849    961841.47047  21816387.062    21816386.248    21816398.492
       236.000         199.000
  -3072053.86749  -2386700.01547  20322045.107    20322044.646    20322053.407
       241.000         208.000
   4571582.95749   3559756.88246  22145662.947    22145662.120    22145676.417
       224.000         174.000
  -9970431.14149  -7750045.42046  22113659.212    22113659.415    22113672.529
       232.000         186.000
 -11947557.45549  -9249108.92247  20193475.517    20193475.128    20193485.968
       243.000         207.000
   -233588.20749   -176439.25047  20096354.556    20096353.894    20096364.049
       239.000         205.000
  -5827066.02949  -4523684.76446  22971781.238    22971780.991    22971795.396
       228.000         172.000
 01 12 19 21 10 29.9980000  0  7G 2G28G27G26G 7G 8G11
   1251753.25449    974823.42847  21819557.443    21819556.643    21819568.934
       236.000         198.000
  -3083271.66649  -2395441.16747  20319910.488    20319910.004    20319918.718
       242.000         207.000
   4630693.25149   3605816.66846  22156911.375    22156910.568    22156924.903
       224.000         174.000
 -10018441.49849  -7787456.01446  22104523.036    22104523.298    22104536.336
       232.000         186.000
 -12018204.73449  -9304158.65347  20180031.784    20180031.339    20180042.111
       243.000         207.000
   -208242.64949   -156689.51047  20101177.659    20101177.012    20101187.241
       240.000         205.000
  -5843770.56349  -4536701.31946  22968602.527    22968602.225    22968616.572
       226.000         173.000
 01 12 19 21 10 59.9980000  0  7G 2G28G27G26G 7G 8G11
   1268523.16949    987890.81147  21822748.756    21822747.900    21822760.233
       236.000         198.000
  -3094292.54349  -2404028.86347  20317813.340    20317812.823    20317821.510
       241.000         207.000
   4690127.83049   3652129.14946  22168221.634    22168220.739    22168235.119
       225.000         174.000
 -10065879.48849  -7824420.59946  22095495.822    22095496.090    22095509.121
       233.000         187.000
 -12088396.35749  -9358853.32347  20166674.736    20166674.271    20166684.968
       242.000         207.000
   -182455.57349   -136595.73347  20106084.846    20106084.168    20106094.438
       239.000         205.000
  -5859948.49349  -4549307.51846  22965523.981    22965523.694    22965538.022
       228.000         173.000
 01 12 19 21 11 29.9980000  0  7G 2G28G27G26G 7G 8G11
   1285476.76349   1001101.31847  21825974.950    21825974.105    21825986.467
       236.000         197.000
  -3105042.94849  -2412405.80947  20315767.651    20315767.111    20315775.757
       242.000         208.000
   4749959.49149   3698751.03746  22179607.396    22179606.478    22179620.877
       224.000         173.000
 -10112670.62149  -7860881.14246  22086591.675    22086591.950    22086605.026
       233.000         187.000
 -12158058.02549  -9413135.05047  20153418.535    20153418.047    20153428.699
       242.000         207.000
   -156153.36349   -116100.56247  20111089.999    20111089.318    20111099.665
       238.000         205.000
  -5875525.87349  -4561445.76546  22962559.819    22962559.435    22962573.758
       227.000         173.000
 01 12 19 21 11 59.9980000  0  7G 2G28G27G26G 7G 8G11
   1302523.84849   1014384.68047  21829218.957    21829218.113    21829230.470
       235.000         197.000
  -3115613.60049  -2420642.67947  20313756.173    20313755.612    20313764.235
       242.000         208.000
   4810096.63549   3745610.97846  22191051.267    22191050.388    22191064.763
       223.000         172.000
 -10158904.88649  -7896907.75646  22077793.515    22077793.784    22077806.889
       233.000         187.000
 -12227279.68849  -9467073.91247  20140246.014    20140245.529    20140256.194
       241.000         207.000
   -129426.94649    -95274.82447  20116175.882    20116175.215    20116185.615
       240.000         205.000
  -5890592.93649  -4573186.36246  22959692.581    22959692.232    22959706.605
       226.000         171.000
 01 12 19 21 12 29.9980000  0  7G 2G28G27G26G 7G 8G11
   1319636.62949   1027719.23547  21832475.501    21832474.628    21832486.997
       237.000         197.000
  -3126032.76149  -2428761.50247  20311773.511    20311772.948    20311781.548
       242.000         208.000
   4870509.86949   3792686.05846  22202547.723    22202546.825    22202561.207
       223.000         172.000
 -10204609.81549  -7932521.90846  22069096.171    22069096.363    22069109.466
       234.000         187.000
 -12296088.78049  -9520691.29347  20127151.955    20127151.498    20127162.195
       241.000         207.000
   -102304.69649    -74140.64347  20121337.143    20121336.447    20121346.883
       239.000         205.000
  -5905177.05549  -4584550.62346  22956917.307    22956916.945    22956931.319
       227.000         171.000
 01 12 19 21 12 59.9980000  0  7G 2G28G27G26G 7G 8G11
   1336927.14149   1041192.28147  21835765.886    21835764.993    21835777.340
       237.000         197.000
  -3136188.72249  -2436675.24147  20309840.929    20309840.353    20309848.954
       243.000         208.000
   4931309.98949   3840062.59846  22214117.752    22214116.841    22214131.263
       223.000         171.000
 -10249673.05849  -7967636.05246  22060520.802    22060521.051    22060534.144
       232.000         187.000
 -12364372.89049  -9573899.59947  20114157.814    20114157.371    20114168.082
       241.000         207.000
    -74674.96649    -52611.02947  20126594.911    20126594.230    20126604.708
       239.000         205.000
  -5919166.34649  -4595451.38346  22954255.193    22954254.858    22954269.216
       227.000         171.000
 01 12 19 21 13 29.9980000  0  7G 2G28G27G26G 7G 8G11
   1354318.59249   1054743.98147  21839075.440    21839074.559    21839086.901
       236.000         197.000
  -3146158.69049  -2444444.04647  20307943.719    20307943.153    20307951.743
       242.000         208.000
   4992418.78249   3887679.65746  22225746.579    22225745.599    22225760.034
       223.000         170.000
 -10294171.16949  -8002309.82246  22052052.942    22052053.264    22052066.336
       232.000         187.000
 -12432208.57149  -9626758.48547  20101249.006    20101248.590    20101259.270
       241.000         207.000
    -46614.96249    -30746.14047  20131934.642    20131933.927    20131944.425
       239.000         205.000
  -5932637.49349  -4605948.37046  22951691.723    22951691.391    22951705.773
       227.000         171.000
 01 12 19 21 13 59.9980000  0  7G 2G28G27G26G 7G 8G11
   1371822.46149   1068383.27947  21842406.401    21842405.507    21842417.847
       237.000         197.000
  -3155931.84349  -2452059.48547  20306083.896    20306083.371    20306091.957
       242.000         207.000
   5053846.10449   3935544.93346  22237435.927    22237434.950    22237449.440
       222.000         171.000
 -10338092.63449  -8036534.26246  22043694.947    22043695.209    22043708.238
       233.000         187.000
 -12499584.30049  -9679258.96547  20088427.791    20088427.353    20088438.008
       241.000         208.000
    -18114.17049     -8537.77547  20137358.195    20137357.490    20137368.007
       240.000         205.000
  -5945579.36449  -4616032.93846  22949228.957    22949228.625    22949243.024
       226.000         170.000
 01 12 19 21 14 29.9980000  0  7G 2G28G27G26G 7G 8G11
   1389426.73549   1082100.82447  21845756.425    21845755.546    21845767.902
       236.000         197.000
  -3165520.67949  -2459531.29947  20304259.151    20304258.655    20304267.235
       242.000         207.000
   5115578.51149   3983647.92046  22249183.320    22249182.391    22249196.893
       222.000         169.000
 -10381449.36349  -8070318.65747  22035444.350    22035444.661    22035457.625
       234.000         188.000
 -12566511.88249  -9731410.25347  20075691.853    20075691.398    20075702.032
       243.000         208.000
     10814.92449     14004.33147  20142863.231    20142862.546    20142873.073
       239.000         205.000
  -5958003.94649  -4625714.41946  22946864.554    22946864.294    22946878.732
       226.000         171.000
 01 12 19 21 14 59.9980000  0  7G 2G28G27G26G 7G 8G11
   1407145.36549   1095907.47547  21849128.215    21849127.338    21849139.754
       235.000         197.000
  -3174911.76849  -2466849.02147  20302472.066    20302471.597    20302480.144
       242.000         207.000
   5177628.50949   4031998.38946  22260991.159    22260990.243    22261004.815
       221.000         169.000
 -10424227.42749  -8103652.13547  22027303.973    22027304.217    22027317.126
       233.000         188.000
 -12632977.13249  -9783201.28047  20063043.889    20063043.429    20063054.056
       243.000         208.000
     40185.59049     36890.51647  20148452.321    20148451.615    20148462.162
       240.000         204.000
  -5969897.33449  -4634981.96846  22944601.345    22944601.048    22944615.469
       228.000         172.000
 01 12 19 21 15 29.9980000  0  7G 2G28G27G26G 7G 8G11
   1425007.74349   1109826.13147  21852527.357    21852526.498    21852538.970
       235.000         197.000
  -3184076.10449  -2473990.05047  20300728.173    20300727.684    20300736.229
       243.000         208.000
   5240023.89749   4080617.98346  22272864.768    22272863.829    22272878.453
       221.000         169.000
 -10466397.18449  -8136511.60647  22019279.354    22019279.519    22019292.391
       233.000         188.000
 -12698950.66249  -9834609.15347  20050489.461    20050489.007    20050499.648
       242.000         208.000
     70026.44149     60143.07447  20154130.896    20154130.183    20154140.729
       240.000         205.000
  -5981230.15849  -4643812.71246  22942444.836    22942444.535    22942458.847
       228.000         171.000
 01 12 19 21 15 59.9980000  0  7G 2G28G27G26G 7G 8G11
   1442895.68549   1123764.70747  21855931.406    21855930.522    21855943.044
       236.000         197.000
  -3193132.39949  -2481046.88947  20299004.849    20299004.347    20299012.885
       242.000         208.000
   5302645.00649   4129413.46246  22284781.338    22284780.362    22284795.051
       221.000         168.000
 -10508076.96249  -8168989.28147  22011347.887    22011348.066    22011360.903
       234.000         188.000
 -12764550.33949  -9885725.70947  20038006.197    20038005.734    20038016.366
       243.000         208.000
    100218.50649     83669.31247  20159876.328    20159875.587    20159886.112
       240.000         204.000
  -5992120.91149  -4652298.96546  22940372.408    22940372.076    22940386.304
       227.000         169.000
 01 12 19 21 16 29.9980000  0  7G 2G28G27G26G 7G 8G11
   1460856.08249   1137759.73347  21859349.256    21859348.358    21859360.878
       236.000         197.000
  -3202034.33549  -2487983.45347  20297310.884    20297310.365    20297318.879
       243.000         208.000
   5365537.16849   4178420.15446  22296749.387    22296748.463    22296763.201
       221.000         169.000
 -10549219.70849  -8201048.49046  22003518.604    22003518.819    22003531.619
       234.000         187.000
 -12829729.30249  -9936514.43947  20025602.999    20025602.533    20025613.137
       243.000         208.000
    130808.05649    107505.26747  20165697.346    20165696.631    20165707.147
       240.000         205.000
  -6002522.91949  -4660404.37246  22938392.999    22938392.648    22938406.747
       227.000         170.000
 01 12 19 21 16 59.9980000  0  7G 2G28G27G26G 7G 8G11
   1479021.80449   1151914.75647  21862806.163    21862805.258    21862817.762
       236.000         196.000
  -3210649.39749  -2494696.47447  20295671.511    20295670.994    20295679.476
       243.000         208.000
   5428831.84649   4227740.50446  22308794.094    22308793.189    22308807.963
       220.000         168.000
 -10589692.63449  -8232585.75447  21995816.810    21995817.021    21995829.803
       235.000         188.000
 -12894354.59849  -9986871.73347  20013305.201    20013304.700    20013315.271
       244.000         208.000
    161927.22349    131753.90847  20171619.184    20171618.473    20171628.967
       240.000         205.000
  -6012303.40949  -4668025.43846  22936531.811    22936531.480    22936545.520
       228.000         170.000
 01 12 19 21 17 29.9980000  0  7G 2G28G27G26G 7G 8G11
   1497241.04349   1166111.48447  21866273.247    21866272.321    21866284.821
       235.000         195.000
  -3219129.94349  -2501304.67447  20294057.728    20294057.203    20294065.682
       243.000         208.000
   5492375.47249   4277254.82746  22320886.199    22320885.264    22320900.152
       221.000         168.000
 -10629647.61149  -8263719.42847  21988213.620    21988213.810    21988226.521
       234.000         188.000
 -12958577.99349 -10036915.86047  20001083.863    20001083.348    20001093.889
       243.000         208.000
    193423.46349    156296.37547  20177612.812    20177612.069    20177622.539
       240.000         205.000
  -6021614.52949  -4675280.79646  22934760.047    22934759.639    22934773.713
       228.000         171.000
 01 12 19 21 17 59.9980000  0  7G 2G28G27G26G 7G 8G11
   1515618.88749   1180431.79847  21869770.478    21869769.568    21869782.056
       235.000         195.000
  -3227371.23949  -2507726.44947  20292489.435    20292488.929    20292497.411
       242.000         207.000
   5556271.76049   4327043.96546  22333045.417    22333044.485    22333059.456
       220.000         169.000
 -10668979.67349  -8294367.71447  21980728.900    21980729.110    21980741.769
       234.000         189.000
 -13022294.10049 -10086564.70647  19988959.014    19988958.512    19988969.035
       242.000         208.000
    225401.26749    181214.09247  20183698.081    20183697.304    20183707.783
       241.000         205.000
  -6030351.15849  -4682088.51446  22933097.515    22933097.109    22933111.183
       228.000         169.000
 01 12 19 21 18 29.9970000  0  7G 2G28G27G26G 7G 8G11
   1534102.11049   1194834.22347  21873287.752    21873286.865    21873299.345
       236.000         195.000
  -3235426.37949  -2514003.17047  20290956.565    20290956.070    20290964.549
       242.000         207.000
   5620464.17949   4377063.84046  22345260.970    22345260.033    22345275.115
       220.000         169.000
 -10707740.21849  -8324570.66246  21973352.958    21973353.151    21973365.801
       234.000         187.000
 -13085553.72449 -10135857.85147  19976921.077    19976920.557    19976931.036
       243.000         207.000
    257805.83249    206464.34147  20189864.538    20189863.750    20189874.220
       240.000         205.000
  -6038566.24949  -4688489.85846  22931534.119    22931533.762    22931547.885
       226.000         171.000
 01 12 19 21 18 59.9970000  0  7G 2G28G27G26G 7G 8G11
   1552717.16249   1209339.38347  21876830.176    21876829.276    21876841.731
       236.000         195.000
  -3243271.12449  -2520115.94847  20289463.690    20289463.235    20289471.695
       242.000         207.000
   5684980.55249   4427336.14846  22357538.217    22357537.249    22357552.384
       220.000         168.000
 -10745906.90449  -8354310.86346  21966089.976    21966090.223    21966102.816
       235.000         187.000
 -13148335.77249 -10184778.85447  19964974.070    19964973.508    19964983.897
       243.000         207.000
    290663.77249    232067.87347  20196117.247    20196116.464    20196126.928
       241.000         205.000
  -6046235.29849  -4694465.64646  22930074.661    22930074.380    22930088.489
       227.000         172.000
 01 12 19 21 19 29.9970000  0  7G 2G28G27G26G 7G 8G11
   1571410.19349   1223905.30547  21880387.447    21880386.539    21880398.970
       236.000         195.000
  -3250958.87349  -2526106.39047  20288000.684    20288000.268    20288008.721
       242.000         207.000
   5749764.12849   4477816.67146  22369866.309    22369865.298    22369880.507
       220.000         168.000
 -10783531.57549  -8383628.72446  21958930.116    21958930.400    21958942.996
       234.000         187.000
 -13210691.31749 -10233367.51447  19953108.209    19953107.627    19953117.917
       243.000         207.000
    323920.12849    257981.85647  20202445.798    20202444.996    20202455.477
       241.000         205.000
  -6053411.48849  -4700057.45046  22928709.040    22928708.755    22928722.812
       227.000         171.000
 01 12 19 21 19 59.9970000  0  7G 2G28G27G26G 7G 8G11
   1590268.58449   1238600.08747  21883976.138    21883975.234    21883987.669
       235.000         195.000
  -3258402.62249  -2531906.70747  20286584.168    20286583.740    20286592.204
       242.000         207.000
   5814900.64249   4528572.18046  22382261.477    22382260.490    22382275.764
       221.000         168.000
 -10820527.06849  -8412456.30446  21951890.039    21951890.329    21951902.907
       234.000         187.000
 -13272533.17949 -10281555.90347  19941340.017    19941339.462    19941349.694
       242.000         206.000
    357661.50949    284273.77947  20208866.635    20208865.832    20208876.303
       240.000         205.000
  -6060008.02249  -4705197.58346  22927453.701    22927453.474    22927467.461
       226.000         170.000
 01 12 19 21 20 29.9970000  0  7G 2G28G27G26G 7G 8G11
   1609238.86549   1253382.05447  21887586.122    21887585.220    21887597.650
       235.000         194.000
  -3265656.31549  -2537558.92547  20285203.814    20285203.394    20285211.898
       242.000         208.000
   5880334.85949   4579559.68346  22394713.299    22394712.343    22394727.648
       221.000         167.000
 -10856947.26549  -8440835.60546  21944959.490    21944959.742    21944972.286
       235.000         187.000
 -13333914.82349 -10329385.68747  19929659.398    19929658.857    19929669.077
       242.000         206.000
    391833.22949    310901.03047  20215369.318    20215368.539    20215379.016
       241.000         204.000
  -6066078.75349  -4709928.02046  22926298.488    22926298.239    22926312.224
       226.000         171.000
 01 12 19 21 20 59.9970000  0  7G 2G28G27G26G 7G 8G11
   1628211.83949   1268166.12347  21891196.686    21891195.735    21891208.145
       236.000         195.000
  -3272829.67649  -2543148.54747  20283838.766    20283838.332    20283846.847
       242.000         208.000
   5945956.16149   4630692.97446  22407200.695    22407199.797    22407215.165
       219.000         167.000
 -10892901.45549  -8468851.78446  21938117.621    21938117.833    21938130.360
       235.000         187.000
 -13394945.29349 -10376941.82147  19918045.643    19918045.090    19918055.302
       242.000         206.000
    426325.51549    337778.07047  20221933.049    20221932.264    20221942.735
       240.000         204.000
  -6071733.28449  -4714334.17446  22925222.366    22925222.202    22925236.198
       228.000         173.000
 01 12 19 21 21 29.9970000  0  7G 2G28G27G26G 7G 8G11
   1647210.06349   1282969.87047  21894812.019    21894811.062    21894823.455
       236.000         195.000
  -3279900.70849  -2548658.43347  20282493.187    20282492.749    20282501.257
       242.000         207.000
   6011785.31349   4681988.21046  22419727.518    22419726.766    22419742.241
       219.000         165.000
 -10928367.43849  -8496487.54347  21931368.646    21931368.832    21931381.355
       235.000         188.000
 -13455602.48849 -10424207.09747  19906502.965    19906502.365    19906512.552
       243.000         207.000
    461159.96549    364921.73547  20228561.843    20228561.077    20228571.563
       240.000         203.000
  -6076949.34249  -4718398.66746  22924229.816    22924229.596    22924243.658
       226.000         174.000
 01 12 19 21 21 59.9970000  0  8G 4G 2G28G27G26G 7G 8G11
   -285635.37253                  24319017.401
       203.000          86.000
   1666426.72949   1297943.83447  21898468.880    21898467.941    21898480.338
       235.000         195.000
  -3286676.73049  -2553938.44447  20281203.715    20281203.285    20281211.806
       242.000         207.000
   6078013.57449   4733594.44246  22432330.550    22432329.725    22432345.243
       219.000         167.000
 -10963152.47749  -8523592.69946  21924749.223    21924749.406    21924761.889
       234.000         187.000
 -13515693.23549 -10471030.98247  19895068.046    19895067.449    19895077.576
       242.000         206.000
    496528.52149    392481.57947  20235292.272    20235291.518    20235302.021
       239.000         203.000
  -6081534.36649  -4721971.48546  22923357.349    22923357.089    22923371.205
       226.000         173.000
 01 12 19 21 22 29.9970000  0  8G 4G 2G28G27G26G 7G 8G11
    -79400.83743                  24294613.356
       208.000          74.000
   1685836.13849   1313067.98747  21902162.355    21902161.475    21902173.922
       234.000         194.000
  -3293183.91049  -2559008.97347  20279965.434    20279964.985    20279973.522
       242.000         207.000
   6144613.65849   4785490.41346  22445004.353    22445003.475    22445019.051
       218.000         165.000
 -10997282.51749  -8550187.46246  21918254.362    21918254.634    21918267.069
       235.000         187.000
 -13575243.43249 -10517433.66147  19883735.945    19883735.364    19883745.469
       241.000         206.000
    532404.80849    420437.06747  20242119.332    20242118.579    20242129.125
       239.000         203.000
  -6085514.55049  -4725073.00046  22922599.953    22922599.677    22922613.790
       228.000         172.000
 01 12 19 21 22 59.9970000  0  8G 4G 2G28G27G26G 7G 8G11
   -179395.32743                  24270183.146
       205.000          80.000
   1705347.02349   1328271.21747  21905875.117    21905874.292    21905886.825
       234.000         194.000
  -3299513.70549  -2563941.28447  20278760.944    20278760.476    20278769.001
       242.000         207.000
   6211492.66549   4837603.71346  22457731.120    22457730.297    22457745.928
       218.000         166.000
 -11030849.00049  -8576343.08046  21911866.812    21911867.093    21911879.507
       234.000         187.000
 -13634344.31249 -10563486.22547  19872489.322    19872488.770    19872498.897
       241.000         207.000
    568696.71949    448716.41947  20249025.439    20249024.708    20249035.335
       239.000         203.000
  -6088981.53349  -4727774.63346  22921940.343    22921939.951    22921953.997
       227.000         174.000
 01 12 19 21 23 29.9970000  0  8G 4G 2G28G27G26G 7G 8G11
   -279572.21843                  24245707.935
       204.000          84.000
   1724858.64149   1343475.01947  21909588.007    21909587.217    21909599.856
       233.000         192.000
  -3305767.41549  -2568814.30847  20277570.913    20277570.455    20277578.976
       242.000         208.000
   6278548.14649   4889854.51946  22470491.558    22470490.683    22470506.372
       219.000         164.000
 -11063953.14049  -8602138.45347  21905567.239    21905567.548    21905579.908
       236.000         188.000
 -13693096.90849 -10609267.39947  19861308.998    19861308.468    19861318.596
       241.000         207.000
    605302.41749    477240.28247  20255991.275    20255990.566    20256001.250
       239.000         203.000
  -6092036.64049  -4730155.34646  22921359.024    22921358.588    22921372.655
       227.000         174.000
 01 12 19 21 23 59.9970000  0  8G 4G 2G28G27G26G 7G 8G11
    -69670.30543                  24221222.015
       208.000          74.000
   1744551.29349   1358819.89047  21913335.425    21913334.633    21913347.320
       234.000         193.000
  -3311765.20849  -2573487.92947  20276429.590    20276429.114    20276437.614
       242.000         207.000
   6345958.61049   4942381.92946  22483319.567    22483318.662    22483334.423
       218.000         164.000
 -11096415.12649  -8627433.44347  21899390.044    21899390.226    21899402.501
       236.000         188.000
 -13751321.05749 -10654636.80147  19850229.292    19850228.739    19850238.886
       241.000         207.000
    642401.23049    506148.39647  20263050.918    20263050.253    20263061.029
       239.000         204.000
  -6094500.24649  -4732075.15246  22920890.228    22920889.775    22920903.853
       228.000         173.000
 01 12 19 21 24 29.9970000  0  8G 4G 2G28G27G26G 7G 8G11
   -170081.27543                  24196700.568
       209.000          84.000
   1764290.11849   1374200.73747  21917091.634    21917090.857    21917103.581
       234.000         193.000
  -3317642.40449  -2578067.57647  20275311.197    20275310.718    20275319.203
       241.000         207.000
   6413587.33749   4995079.42346  22496188.985    22496188.119    22496203.970
       218.000         164.000
 -11128370.12049  -8652333.37947  21893309.165    21893309.353    21893321.565
       235.000         189.000
 -13809151.86449 -10699699.70147  19839224.430    19839223.854    19839234.001
       241.000         207.000
    679857.37549    535334.95147  20270178.674    20270177.975    20270188.801
       239.000         204.000
  -6096507.48549  -4733639.35946  22920508.398    22920507.881    22920521.910
       229.000         174.000
 01 12 19 21 24 59.9970000  0  8G 4G 2G28G27G26G 7G 8G11
   -270521.91944                  24172171.609
       206.000         126.000
   1784220.63649   1389730.94747  21920884.310    21920883.538    21920896.282
       234.000         192.000
  -3323254.02449  -2582440.29147  20274243.354    20274242.866    20274251.350
       242.000         207.000
   6481578.21149   5048059.09846  22509127.429    22509126.532    22509142.384
       218.000         165.000
 -11159673.24149  -8676725.35647  21887352.259    21887352.513    21887364.739
       234.000         189.000
 -13866444.11849 -10744342.95647  19828322.024    19828321.465    19828331.594
       241.000         207.000
    717815.28049    564912.48847  20277401.886    20277401.176    20277412.037
       239.000         203.000
  -6097913.72549  -4734735.26046  22920240.877    22920240.357    22920254.383
       229.000         174.000
 01 12 19 21 25 29.9970000  0  8G 4G 2G28G27G26G 7G 8G11
  -1297146.94949   -371055.98845  24147619.844    24147617.437    24147645.827
       208.000         138.000
   1804258.77049   1405345.02647  21924697.441    21924696.674    21924709.468
       233.000         191.000
  -3328684.60449  -2586671.93747  20273209.970    20273209.454    20273217.949
       242.000         208.000
   6549845.41449   5101254.09246  22522118.452    22522117.520    22522133.455
       218.000         163.000
 -11190408.96349  -8700675.20847  21881503.328    21881503.618    21881515.876
       235.000         189.000
 -13923281.97249 -10788632.13547  19817506.120    19817505.544    19817515.676
       241.000         208.000
    756189.82949    594814.69147  20284704.388    20284703.671    20284714.548
       239.000         203.000
  -6098803.53349  -4735428.73146  22920071.683    22920071.125    22920085.135
       228.000         172.000
 01 12 19 21 25 59.9970000  0  8G 4G 2G28G27G26G 7G 8G11
  -1426390.85349   -471764.74655  24123025.127    24123024.110    24123050.163
       209.000         140.000
   1824298.84049   1420960.60447  21928510.941    21928510.184    21928523.025
       233.000         191.000
  -3334040.38949  -2590845.30247  20272190.813    20272190.305    20272198.778
       242.000         208.000
   6618281.27949   5154580.52446  22535141.656    22535140.664    22535156.614
       218.000         164.000
 -11220683.53649  -8724265.72647  21875742.273    21875742.528    21875754.769
       236.000         189.000
 -13979771.61749 -10832649.98647  19806756.455    19806755.870    19806766.023
       241.000         208.000
    794874.25549    624958.36047  20292065.884    20292065.128    20292076.011
       239.000         203.000
  -6099283.24249  -4735802.65346  22919980.502    22919979.933    22919993.807
       228.000         171.000
 01 12 19 21 26 29.9970000  0  8G 4G 2G28G27G26G 7G 8G11
  -1555689.43159   -572516.09645  24098419.800    24098418.655    24098445.245
       205.000         138.000
   1844507.90349   1436707.87547  21932356.676    21932355.890    21932368.726
       234.000         191.000
  -3339154.34349  -2594830.23347  20271217.690    20271217.164    20271225.618
       242.000         207.000
   6687051.18849   5208167.23546  22548228.291    22548227.319    22548243.314
       218.000         164.000
 -11250330.41749  -8747367.14347  21870100.635    21870100.857    21870113.094
       235.000         189.000
 -14035746.05949 -10876266.38147  19796104.820    19796104.236    19796114.410
       241.000         208.000
    834034.76049    655473.00347  20299517.884    20299517.151    20299528.034
       239.000         202.000
  -6099186.58249  -4735727.41646  22919999.015    22919998.411    22920012.256
       228.000         172.000
 01 12 19 21 26 59.9970000  0  8G 4G 2G28G27G26G 7G 8G11
  -1685132.95249   -673380.34045  24073786.979    24073785.927    24073812.591
       201.000         139.000
   1864793.33249   1452514.65247  21936216.956    21936216.114    21936228.946
       232.000         190.000
  -3344120.04949  -2598699.64647  20270272.768    20270272.234    20270280.672
       242.000         207.000
   6756060.63349   5261940.61246  22561360.415    22561359.509    22561375.614
       216.000         164.000
 -11279442.96749  -8770052.19747  21864560.609    21864560.858    21864573.089
       235.000         188.000
 -14091298.54949 -10919553.98047  19785533.473    19785532.907    19785543.077
       239.000         207.000
    873577.10649    686285.18647  20307042.564    20307041.838    20307052.712
       239.000         203.000
  -6098606.79549  -4735275.75246  22920109.345    22920108.803    22920122.702
       226.000         170.000
 01 12 19 21 27 29.9970000  0  8G 4G 2G28G27G26G 7G 8G11
  -1814627.24249   -774284.05145  24049144.419    24049143.697    24049170.148
       207.000         138.000
   1885247.07349   1468452.57147  21940109.186    21940108.356    21940121.176
       233.000         190.000
  -3348845.99149  -2602382.23347  20269373.462    20269372.932    20269381.349
       242.000         207.000
   6825399.74349   5315970.84646  22574555.261    22574554.403    22574570.714
       217.000         163.000
 -11307929.68949  -8792249.59747  21859139.691    21859139.924    21859152.173
       235.000         189.000
 -14146337.22349 -10962441.20747  19775059.828    19775059.315    19775069.489
       239.000         207.000
    913592.63349    717466.07547  20314657.307    20314656.576    20314667.444
       239.000         203.000
  -6097452.65749  -4734376.56546  22920328.906    22920328.424    22920342.424
       225.000         170.000
 01 12 19 21 27 59.9970000  0  8G 4G 2G28G27G26G 7G 8G11
  -1944245.40349   -875284.30845  24024478.305    24024477.803    24024504.371
       207.000         141.000
   1905793.80149   1484462.95147  21944019.125    21944018.310    21944031.114
       233.000         190.000
  -3353407.76949  -2605936.90347  20268505.396    20268504.857    20268513.264
       242.000         207.000
   6894991.20549   5370197.72146  22587798.204    22587797.367    22587813.703
       218.000         163.000
 -11335866.80949  -8814018.72547  21853823.363    21853823.630    21853835.883
       235.000         190.000
 -14200937.95849 -11004987.18447  19764669.580    19764669.081    19764679.247
       239.000         207.000
    954004.66549    748955.93647  20322347.520    20322346.774    20322357.664
       238.000         202.000
  -6095800.67149  -4733089.40046  22920643.328    22920642.809    22920656.857
       226.000         170.000
 01 12 19 21 28 29.9970000  0  8G 4G 2G28G27G26G 7G 8G11
  -2074058.14849   -976436.18345  23999775.408    23999774.913    23999801.350
       212.000         139.000
   1926360.26849   1500488.71047  21947932.878    21947932.033    21947944.835
       234.000         191.000
  -3357879.07649  -2609421.07247  20267654.508    20267653.992    20267662.419
       242.000         207.000
   6964760.01049   5424562.80745  22601074.960    22601074.077    22601090.448
       217.000         162.000
 -11363328.17349  -8835417.15147  21848597.718    21848597.876    21848610.113
       235.000         191.000
 -14255174.50849 -11047249.37747  19754348.653    19754348.153    19754358.306
       239.000         206.000
    994738.65349    780696.67547  20330098.918    20330098.210    20330109.138
       238.000         202.000
  -6093724.33849  -4731471.57346  22921038.414    22921037.980    22921052.006
       226.000         169.000
 01 12 19 21 28 59.9970000  0  8G 4G 2G28G27G26G 7G 8G11
  -2203889.59749  -1077602.66345  23975068.740    23975068.649    23975094.909
       205.000         138.000
   1947120.16549   1516665.19747  21951883.396    21951882.569    21951895.388
       234.000         191.000
  -3362086.88549  -2612699.92547  20266853.779    20266853.268    20266861.708
       242.000         208.000
   7034877.85249   5479199.83245  22614418.189    22614417.240    22614433.667
       216.000         162.000
 -11390140.73349  -8856310.02047  21843495.374    21843495.585    21843507.814
       235.000         190.000
 -14308873.46249 -11089092.67347  19744129.999    19744129.522    19744139.648
       238.000         206.000
   1035967.03649    812822.65147  20337944.421    20337943.722    20337954.698
       238.000         201.000
  -6091051.26949  -4729388.73346  22921547.178    22921546.709    22921560.834
       226.000         171.000
 01 12 19 21 29 29.9970000  0  8G 4G 2G28G27G26G 7G 8G11
  -2333735.65249  -1178780.48745  23950359.359    23950359.409    23950385.663
       204.000         140.000
   1968075.17249   1532993.71847  21955871.074    21955870.238    21955883.100
       234.000         191.000
  -3366029.92149  -2615772.44647  20266103.454    20266102.945    20266111.405
       242.000         207.000
   7105344.71149   5534108.84345  22627827.793    22627826.806    22627843.223
       217.000         162.000
 -11416303.56249  -8876696.59647  21838516.694    21838516.919    21838529.141
       235.000         190.000
 -14362033.53849 -11130516.06247  19734013.877    19734013.436    19734023.571
       238.000         206.000
   1077690.47349    845334.38047  20345884.156    20345883.452    20345894.448
       238.000         202.000
  -6087780.47349  -4726840.14846  22922169.675    22922169.155    22922183.367
       226.000         170.000
 01 12 19 21 29 59.9970000  0  8G 4G 2G28G27G26G 7G 8G11
  -2463746.47049  -1280086.73645  23925618.451    23925618.787    23925644.912
       209.000         141.000
   1989072.70049   1549355.36947  21959866.868    21959866.012    21959878.865
       234.000         191.000
  -3369861.10549  -2618757.81247  20265374.428    20265373.899    20265382.369
       242.000         207.000
   7176006.00849   5589169.40245  22641274.442    22641273.427    22641289.765
       217.000         161.000
 -11441970.07949  -8896696.44047  21833632.510    21833632.718    21833644.892
       234.000         190.000
 -14414807.80949 -11171638.82447  19723971.215    19723970.760    19723980.920
       239.000         206.000
   1119755.32649    878112.14547  20353888.886    20353888.170    20353899.176
       238.000         201.000
  -6084065.40049  -4723945.35846  22922876.639    22922876.166    22922890.394
       225.000         169.000
 01 12 19 21 30 29.9970000  0  8G 4G 2G28G27G26G 7G 8G11
  -2593741.65249  -1381380.73745  23900880.476    23900881.091    23900907.175
       208.000         138.000
   2010290.64749   1565888.77647  21963904.578    21963903.711    21963916.584
       233.000         191.000
  -3373402.96749  -2621517.72047  20264700.480    20264699.948    20264708.388
       242.000         208.000
   7247037.57349   5644518.41545  22654791.442    22654790.477    22654806.898
       216.000         159.000
 -11466963.08649  -8916171.46647  21828876.465    21828876.661    21828888.827
       235.000         189.000
 -14467018.79149 -11212322.66647  19714035.762    19714035.292    19714045.435
       238.000         206.000
   1162338.05749    911293.44247  20361992.166    20361991.429    20362002.441
       239.000         201.000
  -6079728.89249  -4720566.31946  22923701.923    22923701.439    22923715.641
       226.000         168.000
 01 12 19 21 30 59.9970000  0  8G 4G 2G28G27G26G 7G 8G11
  -2723855.49049  -1482767.29945  23876120.094    23876120.898    23876146.783
       206.000         140.000
   2031592.26049   1582487.37747  21967958.153    21967957.325    21967970.230
       233.000         191.000
  -3376792.51549  -2624158.93447  20264055.484    20264054.945    20264063.425
       242.000         208.000
   7318301.03449   5700048.15245  22668352.522    22668351.618    22668368.119
       216.000         160.000
 -11491420.04049  -8935228.79847  21824222.468    21824222.612    21824234.788
       235.000         190.000
 -14518803.67449 -11252674.47647  19704181.382    19704180.895    19704191.040
       238.000         206.000
   1205300.84449    944770.88147  20370167.767    20370167.011    20370178.019
       238.000         201.000
  -6074908.36849  -4716810.10846  22924619.233    22924618.774    22924633.085
       225.000         169.000
 01 12 19 21 31 29.9970000  0  8G 4G 2G28G27G26G 7G 8G11
  -2854076.85249  -1584237.63245  23851339.156    23851340.105    23851365.862
       207.000         137.000
   2052986.27849   1599157.98547  21972029.373    21972028.531    21972041.449
       233.000         190.000
  -3380021.66149  -2626675.15347  20263441.061    20263440.489    20263448.982
       242.000         208.000
   7389803.24949   5755763.96345  22681959.148    22681958.242    22681974.649
       214.000         159.000
 -11515332.92149  -8953862.17947  21819672.016    21819672.107    21819684.274
       235.000         190.000
 -14570153.96749 -11292687.65147  19694409.723    19694409.211    19694419.349
       238.000         205.000
   1248651.37149    978550.45247  20378417.142    20378416.390    20378427.381
       238.000         201.000
  -6069596.25149  -4712670.84546  22925630.209    22925629.683    22925644.022
       226.000         171.000
 01 12 19 21 31 59.9970000  0  8G 4G 2G28G27G26G 7G 8G11
  -2984371.62549  -1685765.20545  23826544.099    23826545.344    23826570.990
       205.000         137.000
   2074504.77849   1615925.58347  21976124.286    21976123.412    21976136.340
       233.000         190.000
  -3383058.76149  -2629041.72147  20262863.145    20262862.567    20262871.079
       242.000         208.000
   7461574.09349   5811689.06045  22695616.904    22695615.940    22695632.421
       214.000         156.000
 -11538670.82349  -8972047.52647  21815230.889    21815230.996    21815243.174
       234.000         190.000
 -14621038.47149 -11332337.87447  19684726.682    19684726.161    19684736.282
       238.000         205.000
   1292420.00549   1012655.81147  20386746.148    20386745.340    20386756.310
       239.000         200.000
  -6063761.58349  -4708124.39046  22926740.610    22926740.080    22926754.434
       227.000         173.000
 01 12 19 21 32 29.9970000  0  8G 4G 2G28G27G26G 7G 8G11
  -3114700.53149  -1787319.39145  23801742.740    23801744.036    23801769.575
       209.000         139.000
   2096184.25049   1632818.61447  21980249.799    21980248.928    21980261.869
       233.000         190.000
  -3385867.83749  -2631230.60347  20262328.604    20262328.031    20262336.563
       242.000         208.000
   7533648.11849   5867850.38945  22709332.229    22709331.308    22709347.971
       214.000         159.000
 -11561398.12749  -8989757.08147  21810905.948    21810906.088    21810918.293
       234.000         190.000
 -14671421.20949 -11371597.11147  19675139.170    19675138.620    19675148.680
       238.000         205.000
   1336642.12349   1047114.53347  20395161.448    20395160.612    20395171.514
       238.000         200.000
  -6057368.81449  -4703143.04646  22927957.205    22927956.640    22927971.047
       226.000         172.000
 01 12 19 21 32 59.9970000  0  8G 4G 2G28G27G26G 7G 8G11
  -3245108.59549  -1888935.26045  23776926.176    23776927.686    23776953.052
       207.000         138.000
   2117977.30849   1649800.15147  21984396.899    21984396.057    21984408.980
       233.000         189.000
  -3388496.52149  -2633278.91347  20261828.396    20261827.825    20261836.340
       242.000         208.000
   7605976.26849   5924209.77245  22723095.952    22723095.026    22723111.791
       214.000         160.000
 -11583562.96049  -9007028.34447  21806688.137    21806688.242    21806700.439
       235.000         190.000
 -14721349.94249 -11410502.57047  19665638.048    19665637.464    19665647.461
       238.000         205.000
   1381269.28449   1081888.86947  20403653.705    20403652.915    20403663.778
       238.000         200.000
  -6050466.16349  -4697764.37546  22929270.738    22929270.216    22929284.709
       226.000         172.000
 01 12 19 21 33 29.9970000  0  8G 4G 2G28G27G26G 7G 8G11
  -3375634.93049  -1990643.32845  23752087.363    23752088.892    23752114.116
       204.000         137.000
   2139842.52349   1666837.91647  21988557.762    21988556.917    21988569.829
       233.000         189.000
  -3390986.60849  -2635219.22947  20261354.568    20261353.985    20261362.529
       243.000         209.000
   7678515.10349   5980733.31545  22736899.793    22736898.881    22736915.697
       213.000         157.000
 -11605207.66849  -9023894.32647  21802569.247    21802569.369    21802581.531
       236.000         190.000
 -14770866.66349 -11449086.98347  19656215.313    19656214.725    19656224.658
       238.000         205.000
   1426258.42949   1116945.26347  20412214.899    20412214.123    20412224.939
       238.000         200.000
  -6043095.99149  -4692021.41446  22930673.171    22930672.733    22930687.284
       226.000         170.000
 01 12 19 21 33 59.9970000  0  8G 4G 2G28G27G26G 7G 8G11
  -3506215.28149  -2092393.51045  23727237.984    23727239.640    23727264.906
       206.000         138.000
   2161841.68149   1683980.05047  21992744.126    21992743.282    21992756.185
       232.000         189.000
  -3393276.89049  -2637003.85347  20260918.746    20260918.176    20260926.744
       242.000         209.000
   7751324.33449   6037467.51945  22750754.963    22750754.131    22750771.151
       214.000         160.000
 -11626271.51149  -9040307.68747  21798560.885    21798561.040    21798573.137
       235.000         190.000
 -14819910.17949 -11487302.66447  19646882.655    19646882.029    19646891.909
       238.000         205.000
   1471670.27849   1152331.04247  20420856.554    20420855.759    20420866.599
       238.000         200.000
  -6035197.99549  -4685867.16646  22932176.122    22932175.704    22932190.251
       225.000         168.000
 01 12 19 21 34 29.9970000  0  8G 4G 2G28G27G26G 7G 8G11
  -3636936.42349  -2194253.38045  23702361.907    23702363.655    23702388.969
       206.000         137.000
   2183885.33849   1701156.85847  21996938.926    21996938.107    21996951.027
       233.000         190.000
  -3395457.20249  -2638702.78747  20260503.836    20260503.266    20260511.899
       243.000         209.000
   7824312.40349   6094341.13445  22764644.231    22764643.411    22764660.505
       213.000         158.000
 -11646844.86649  -9056338.84247  21794645.916    21794646.059    21794658.134
       236.000         191.000
 -14868570.63549 -11525219.85347  19637622.856    19637622.223    19637632.065
       238.000         205.000
   1517413.89349   1187975.33347  20429561.337    20429560.539    20429571.417
       238.000         201.000
  -6026862.31949  -4679371.85146  22933762.383    22933761.972    22933776.436
       224.000         166.000
 01 12 19 21 34 59.9970000  0  8G 4G 2G28G27G26G 7G 8G11
  -3767733.11149  -2296172.16945  23677471.410    23677473.206    23677498.545
       205.000         136.000
   2206036.25649   1718417.23947  22001154.247    22001153.354    22001166.277
       233.000         190.000
  -3397465.15449  -2640267.41247  20260121.744    20260121.166    20260129.821
       243.000         208.000
   7897540.25549   6151401.55445  22778579.192    22778578.391    22778595.489
       212.000         155.000
 -11666865.90949  -9071939.63647  21790835.993    21790836.173    21790848.243
       236.000         191.000
 -14916785.65049 -11562789.93747  19628447.828    19628447.197    19628456.997
       238.000         205.000
   1563550.81549   1223926.09647  20438340.971    20438340.172    20438351.055
       238.000         200.000
  -6018027.24049  -4672487.40146  22935443.574    22935443.244    22935457.648
       225.000         167.000
 01 12 19 21 35 29.9970000  0  8G 4G 2G28G27G26G 7G 8G11
  -3898529.28949  -2398090.53945  23652581.270    23652582.922    23652608.095
       207.000         139.000
   2228368.08549   1735818.57947  22005403.961    22005403.042    22005415.981
       233.000         189.000
  -3399227.41049  -2641640.58847  20259786.381    20259785.830    20259794.487
       243.000         208.000
   7971079.40849   6208704.52945  22792573.490    22792572.591    22792589.755
       216.000         157.000
 -11686262.07649  -9087053.50547  21787145.077    21787145.202    21787157.265
       236.000         191.000
 -14964482.32549 -11599956.12547  19619371.471    19619370.802    19619380.593
       238.000         206.000
   1610153.35149   1260239.67847  20447209.214    20447208.403    20447219.298
       237.000         200.000
  -6008620.21449  -4665157.26246  22937233.760    22937233.386    22937247.854
       226.000         168.000
 01 12 19 21 35 59.9970000  0  8G 4G 2G28G27G26G 7G 8G11
  -4029369.95849  -2500043.60045  23627682.439    23627684.192    23627709.240
       210.000         140.000
   2250833.54049   1753324.03847  22009679.053    22009678.136    22009691.052
       232.000         188.000
  -3400792.01449  -2642859.75147  20259488.660    20259488.109    20259496.725
       243.000         208.000
   8044880.37049   6266211.55845  22806617.610    22806616.669    22806633.753
       213.000         156.000
 -11705081.82249  -9101718.22347  21783563.879    21783563.924    21783575.939
       236.000         191.000
 -15011708.67049 -11636755.82247  19610384.520    19610383.894    19610393.705
       238.000         206.000
   1657172.83149   1296878.14847  20456156.784    20456155.969    20456166.877
       237.000         199.000
  -5998689.98849  -4657419.44146  22939123.536    22939123.122    22939137.551
       224.000         166.000
 01 12 19 21 36 29.9970000  0  8G 4G 2G28G27G26G 7G 8G11
  -4160347.94549  -2602103.68945  23602757.583    23602759.425    23602784.331
       206.000         134.000
   2273337.42449   1770859.43246  22013961.435    22013960.546    22013973.435
       232.000         187.000
  -3402254.44149  -2643999.30147  20259210.399    20259209.819    20259218.437
       243.000         209.000
   8118846.02049   6323846.84745  22820693.085    22820692.007    22820709.237
       216.000         155.000
 -11723421.53049  -9116008.88547  21780073.995    21780073.976    21780085.957
       235.000         190.000
 -15058560.61549 -11673263.77747  19601468.864    19601468.232    19601478.051
       238.000         206.000
   1704512.30649   1333765.96347  20465165.210    20465164.409    20465175.353
       237.000         199.000
  -5988332.69849  -4649348.82946  22941094.372    22941094.043    22941108.439
       224.000         165.000
 01 12 19 21 36 59.9970000  0  8G 4G 2G28G27G26G 7G 8G11
  -4291382.34649  -2704207.76745  23577822.105    23577823.836    23577848.521
       208.000         139.000
   2295958.06849   1788485.81346  22018266.090    22018265.182    22018278.025
       232.000         187.000
  -3403536.52049  -2644998.31547  20258966.449    20258965.868    20258974.457
       243.000         208.000
   8193052.65149   6381669.95445  22834814.258    22834813.247    22834830.466
       213.000         156.000
 -11741203.91549  -9129865.26447  21776690.140    21776690.094    21776702.032
       236.000         190.000
 -15104960.57049 -11709419.53447  19592639.232    19592638.594    19592648.443
       237.000         206.000
   1752248.85149   1370963.19447  20474249.187    20474248.428    20474259.392
       236.000         199.000
  -5977471.40849  -4640885.47446  22943161.255    22943160.884    22943175.245
       224.000         165.000
 01 12 19 21 37 29.9970000  0  8G 4G 2G28G27G26G 7G 8G11
  -4422521.42249  -2806393.40845  23552866.602    23552868.410    23552892.884
       210.000         135.000
   2318644.79049   1806163.67846  22022583.315    22022582.393    22022595.212
       232.000         187.000
  -3404689.31549  -2645896.59747  20258747.115    20258746.517    20258755.099
       244.000         208.000
   8267447.50949   6439639.72145  22848971.252    22848970.273    22848987.591
       214.000         154.000
 -11758480.97249  -9143327.88947  21773402.336    21773402.351    21773414.259
       235.000         190.000
 -15150959.97849 -11745263.17347  19583885.792    19583885.168    19583895.031
       237.000         206.000
   1800330.23949   1408429.13747  20483398.835    20483398.063    20483409.078
       237.000         199.000
  -5966157.97149  -4632069.82146  22945314.164    22945313.782    22945328.169
       223.000         164.000
 01 12 19 21 37 59.9970000  0  8G 4G 2G28G27G26G 7G 8G11
  -4553609.22649  -2908539.07545  23527920.719    23527922.654    23527947.084
       207.000         138.000
   2341551.18949   1824012.70946  22026942.371    22026941.407    22026954.186
       232.000         187.000
  -3405560.06749  -2646575.10347  20258581.455    20258580.847    20258589.372
       243.000         208.000
   8342181.93849   6497874.08445  22863192.989    22863191.996    22863209.323
       211.000         156.000
 -11775100.28249  -9156277.98047  21770239.770    21770239.777    21770251.698
       236.000         190.000
 -15196406.04049 -11780675.63947  19575237.689    19575237.036    19575246.870
       237.000         205.000
   1848908.64649   1446282.35947  20492643.064    20492642.280    20492653.335
       236.000         198.000
  -5954240.00849  -4622783.08246  22947582.113    22947581.686    22947596.095
       223.000         166.000
 01 12 19 21 38 29.9970000  0  8G 4G 2G28G27G26G 7G 8G11
  -4684736.11849  -3010715.25245  23502967.412    23502969.410    23502993.656
       204.000         136.000
   2364583.88449   1841960.16146  22031325.452    22031324.468    22031337.228
       232.000         187.000
  -3406242.38249  -2647106.77947  20258451.617    20258451.017    20258459.522
       244.000         208.000
   8417160.72849   6556298.88845  22877461.095    22877460.150    22877477.494
       212.000         156.000
 -11791156.18149  -9168789.04947  21767184.503    21767184.447    21767196.360
       236.000         190.000
 -15241392.67049 -11815730.10347  19566676.925    19566676.313    19566686.119
       236.000         205.000
   1897889.26749   1484448.99647  20501963.828    20501963.034    20501974.119
       236.000         198.000
  -5941812.06349  -4613098.95346  22949947.029    22949946.668    22949961.092
       223.000         165.000
 01 12 19 21 38 59.9970000  0  8G 4G 2G28G27G26G 7G 8G11
  -4815908.51049  -3112926.82945  23478005.568    23478007.586    23478031.659
       209.000         139.000
   2387734.48649   1859999.47546  22035730.972    22035729.970    22035742.703
       232.000         187.000
  -3406745.15249  -2647498.55447  20258355.957    20258355.356    20258363.819
       243.000         208.000
   8492373.41649   6614905.89245  22891773.683    22891772.753    22891790.321
       216.000         154.000
 -11806658.54449  -9180868.79647  21764234.429    21764234.412    21764246.329
       235.000         189.000
 -15285928.95849 -11850433.65747  19558201.900    19558201.288    19558211.084
       237.000         205.000
   1947262.24349   1522921.36347  20511359.237    20511358.453    20511369.571
       236.000         198.000
  -5928883.82649  -4603025.01846  22952407.220    22952406.819    22952421.239
       223.000         164.000
 01 12 19 21 39 29.9970000  0  8G 4G 2G28G27G26G 7G 8G11
  -4947087.27149  -3215143.40145  23453042.562    23453044.557    23453068.431
       208.000         141.000
   2411039.26849   1878158.93446  22040165.739    22040164.786    22040177.533
       231.000         187.000
  -3407032.40449  -2647722.39247  20258301.298    20258300.704    20258309.132
       244.000         208.000
   8567854.18049   6673721.84945  22906137.276    22906136.406    22906154.015
       214.000         155.000
 -11821572.15649  -9192489.78047  21761396.352    21761396.407    21761408.314
       235.000         189.000
 -15329979.55149 -11884758.74547  19549819.319    19549818.698    19549828.494
       236.000         205.000
   1997062.38349   1561726.58647  20520835.897    20520835.150    20520846.287
       235.000         197.000
  -5915420.50849  -4592534.09746  22954969.212    22954968.801    22954983.146
       224.000         164.000
 01 12 19 21 39 59.9970000  0  8G 4G 2G28G27G26G 7G 8G11
  -5078391.35049  -3317457.60345  23428055.615    23428057.681    23428081.466
       208.000         140.000
   2434377.00049   1896344.07846  22044606.836    22044605.860    22044618.658
       231.000         187.000
  -3407225.66049  -2647872.99147  20258264.511    20258263.924    20258272.336
       244.000         208.000
   8643479.51349   6732650.43445  22920528.576    22920527.673    22920545.259
       214.000         152.000
 -11836019.75349  -9203747.63447  21758647.042    21758647.112    21758658.966
       236.000         189.000
 -15373666.53649 -11918800.50447  19541505.859    19541505.290    19541515.101
       236.000         205.000
   2047166.85149   1600768.94947  20530370.408    20530369.712    20530380.906
       235.000         197.000
  -5901544.60849  -4581721.70446  22957609.748    22957609.360    22957623.598
       226.000         166.000
 01 12 19 21 40 29.9970000  0  8G 4G 2G28G27G26G 7G 8G11
  -5209748.36549  -3419813.06345  23403058.810    23403060.833    23403084.370
       211.000         143.000
   2457817.47249   1914609.27946  22049067.406    22049066.459    22049079.332
       230.000         186.000
  -3407255.73849  -2647896.44547  20258258.802    20258258.212    20258266.591
       244.000         208.000
   8719317.19649   6791744.46645  22934960.378    22934959.340    22934976.985
       213.000         154.000
 -11849932.69149  -9214588.87147  21755999.433    21755999.542    21756011.361
       235.000         190.000
 -15416920.79049 -11952505.07847  19533274.811    19533274.221    19533284.049
       235.000         204.000
   2097644.15549   1640101.83847  20539975.977    20539975.245    20539986.484
       235.000         197.000
  -5887187.49349  -4570534.36946  22960341.828    22960341.449    22960355.716
       223.000         168.000
 01 12 19 21 40 59.9970000  0  8G 4G 2G28G27G26G 7G 8G11
  -5341123.22349  -3522182.45445  23378058.586    23378060.506    23378083.887
       210.000         142.000
   2481393.23849   1932979.89846  22053553.684    22053552.819    22053565.783
       229.000         187.000
  -3407090.34349  -2647767.58147  20258290.275    20258289.694    20258298.069
       244.000         208.000
   8795397.67249   6851027.69545  22949438.298    22949437.168    22949454.826
       216.000         154.000
 -11863279.57949  -9224989.03147  21753459.598    21753459.682    21753471.541
       235.000         190.000
 -15459710.60049 -11985847.74747  19525132.097    19525131.540    19525141.367
       235.000         204.000
   2148525.13949   1679749.28447  20549658.307    20549657.609    20549668.925
       235.000         197.000
  -5872317.86249  -4558947.66546  22963171.484    22963171.080    22963185.362
       224.000         167.000
 01 12 19 21 41 29.9970000  0  8G 4G 2G28G27G26G 7G 8G11
  -5472521.71849  -3624570.27845  23353053.960    23353055.716    23353078.917
       211.000         142.000
   2505095.94349   1951449.43046  22058064.163    22058063.342    22058076.394
       229.000         186.000
  -3406738.35449  -2647493.32647  20258357.261    20258356.685    20258365.071
       244.000         208.000
   8871710.32549   6910491.83945  22963960.411    22963959.220    22963976.883
       215.000         152.000
 -11876070.30949  -9234955.81947  21751025.620    21751025.678    21751037.586
       235.000         191.000
 -15502045.35449 -12018835.82847  19517076.026    19517075.459    19517085.275
       235.000         204.000
   2199799.90249   1719703.56747  20559415.611    20559414.918    20559426.286
       236.000         197.000
  -5856945.69949  -4546969.38746  22966096.839    22966096.363    22966110.634
       223.000         168.000
 01 12 19 21 41 59.9970000  0  9G 4G 2G28G27G26G 9G 7G 8G11
  -5603929.04249  -3726965.00945  23328047.479    23328049.117    23328072.308
       211.000         145.000
   2528937.89449   1970027.47046  22062601.207    22062600.360    22062613.502
       231.000         186.000
  -3406187.67849  -2647064.25347  20258462.083    20258461.500    20258469.848
       244.000         208.000
   8948265.49949   6970144.97845  22978528.606    22978527.362    22978545.028
       214.000         153.000
 -11888293.98349  -9244480.75347  21748699.506    21748699.578    21748711.460
       235.000         190.000
  -2305968.76259  -1764390.21555  24064694.138    24064693.706    24064714.002
       216.000         151.000
 -15543913.43649 -12051460.27247  19509108.781    19509108.198    19509118.001
       236.000         204.000
   2251478.96449   1759972.88947  20569249.922    20569249.198    20569260.564
       236.000         197.000
  -5841060.10549  -4534591.05246  22969119.641    22969119.276    22969133.670
       224.000         166.000
 01 12 19 21 42 29.9970000  0  9G 4G 2G28G27G26G 9G 7G 8G11
  -5735362.26249  -3829379.88345  23303036.075    23303037.615    23303060.772
       211.000         140.000
   2552899.65049   1988698.86046  22067161.063    22067160.205    22067173.407
       230.000         187.000
  -3405458.07949  -2646495.75547  20258600.948    20258600.354    20258608.655
       244.000         208.000
   9025041.46849   7029970.14745  22993138.810    22993137.579    22993155.271
       213.000         149.000
 -11899971.53349  -9253580.13747  21746477.332    21746477.395    21746489.261
       235.000         189.000
  -2436809.46049  -1866343.72145  24039795.794    24039795.462    24039815.744
       213.000         135.000
 -15585335.16849 -12083736.91947  19501226.495    19501225.883    19501235.660
       236.000         204.000
   2303541.45149   1800540.97247  20579157.204    20579156.425    20579167.786
       237.000         197.000
  -5824681.83649  -4521828.82646  22972236.268    22972235.950    22972250.351
       224.000         165.000
 01 12 19 21 42 59.9970000  0  9G 4G 2G28G27G26G 9G 7G 8G11
  -5866782.23749  -3931784.43745  23278027.107    23278028.737    23278051.853
       209.000         145.000
   2577017.72549   2007492.05447  22071750.640    22071749.808    22071763.052
       230.000         188.000
  -3404513.54849  -2645759.78047  20258780.672    20258780.102    20258788.366
       244.000         207.000
   9102072.46149   7089994.03845  23007797.524    23007796.294    23007814.033
       214.000         153.000
 -11911067.79549  -9262226.57047  21744365.764    21744365.838    21744377.650
       235.000         189.000
  -2567565.76949  -1968231.57345  24014913.628    24014913.269    24014933.390
       207.000         142.000
 -15626275.05249 -12115638.10347  19493435.874    19493435.268    19493445.026
       236.000         204.000
   2356022.30849   1841435.06047  20589144.118    20589143.285    20589154.645
       236.000         197.000
  -5807775.97749  -4508655.48246  22975453.447    22975453.039    22975467.438
       225.000         166.000
 01 12 19 21 43 29.9970000  0  9G 4G 2G28G27G26G 9G 7G 8G11
  -5998195.96349  -4034184.13445  23253019.372    23253021.024    23253043.916
       211.000         144.000
   2601282.61649   2026399.66047  22076368.157    22076367.349    22076380.643
       230.000         188.000
  -3403363.98749  -2644864.04247  20258999.449    20258998.877    20259007.127
       244.000         208.000
   9179346.79849   7150207.58445  23022502.442    23022501.315    23022519.070
       210.000         148.000
 -11921593.73249  -9270428.59847  21742362.766    21742362.808    21742374.605
       234.000         190.000
  -2698245.84349  -2070060.05445  23990045.844    23990045.639    23990065.688
       205.000         143.000
 -15666743.47349 -12147171.91447  19485734.912    19485734.346    19485744.068
       235.000         203.000
   2408910.33949   1882646.42047  20599208.416    20599207.594    20599218.983
       235.000         196.000
  -5790353.46849  -4495079.56546  22978768.881    22978768.424    22978782.825
       223.000         165.000
 01 12 19 21 43 59.9970000  0  9G 4G 2G28G27G26G 9G 7G 8G11
  -6129695.49749  -4136650.63845  23227995.301    23227996.983    23228019.886
       211.000         146.000
   2625599.54649   2045347.82147  22080995.632    22080994.774    22081008.172
       230.000         188.000
  -3402104.39449  -2643882.55947  20259239.163    20259238.597    20259246.824
       245.000         207.000
   9256767.82649   7210535.36945  23037235.290    23037234.187    23037252.156
       211.000         148.000
 -11931645.61149  -9278261.23047  21740449.992    21740449.984    21740461.794
       235.000         190.000
  -2828942.71649  -2171901.44045  23965174.927    23965174.743    23965194.810
       210.000         145.000
 -15706836.06549 -12178412.87747  19478105.507    19478104.945    19478114.625
       236.000         203.000
   2462109.21349   1924099.99347  20609331.850    20609331.051    20609342.505
       235.000         196.000
  -5772510.48549  -4481176.00546  22982164.359    22982163.899    22982178.195
       225.000         166.000
 01 12 19 21 44 29.9970000  0  9G 4G 2G28G27G26G 9G 7G 8G11
  -6261141.29349  -4239075.33245  23202981.592    23202983.276    23203005.919
       209.000         149.000
   2650105.44649   2064443.23546  22085658.993    22085658.142    22085671.636
       229.000         187.000
  -3400598.12549  -2642708.86747  20259525.837    20259525.251    20259533.476
       244.000         208.000
   9334470.16649   7271082.40245  23052021.612    23052020.649    23052038.616
       210.000         145.000
 -11941087.79349  -9285618.77347  21738653.108    21738653.171    21738665.010
       234.000         191.000
  -2959517.79349  -2273648.03245  23940327.071    23940327.018    23940347.046
       210.000         151.000
 -15746416.90049 -12209255.07447  19470573.477    19470572.916    19470582.613
       236.000         204.000
   2515754.29849   1965901.26647  20619540.282    20619539.440    20619550.964
       235.000         196.000
  -5754111.48649  -4466839.19746  22985665.619    22985665.151    22985679.418
       223.000         167.000
 01 12 19 21 44 59.9970000  0  9G 4G 2G28G27G26G 9G 7G 8G11
  -6392626.38649  -4341530.58945  23177960.291    23177962.040    23177984.635
       215.000         148.000
   2674704.89049   2083611.53146  22090340.084    22090339.293    22090352.913
       229.000         187.000
  -3398941.16649  -2641417.75947  20259841.120    20259840.571    20259848.799
       244.000         208.000
   9412356.24049   7331772.56545  23066843.104    23066842.094    23066860.202
       214.000         149.000
 -11950017.46149  -9292576.95647  21736953.872    21736953.909    21736965.773
       235.000         191.000
  -3090065.00449  -2375372.93745  23915484.474    23915484.586    23915504.653
       203.000         143.000
 -15785582.34749 -12239773.59347  19463120.604    19463119.998    19463129.642
       236.000         204.000
   2569748.36649   2007974.46247  20629815.183    20629814.267    20629825.811
       236.000         196.000
  -5735253.40049  -4452144.67046  22989254.209    22989253.759    22989268.023
       223.000         163.000
 01 12 19 21 45 29.9970000  0  9G 4G 2G28G27G26G 9G 7G 8G11
  -6524102.35949  -4443978.79045  23152940.841    23152942.466    23152964.901
       213.000         150.000
   2699443.66249   2102888.39946  22095047.821    22095046.996    22095060.657
       229.000         187.000
  -3397088.12549  -2639973.86347  20260193.807    20260193.222    20260201.462
       245.000         208.000
   9490469.43849   7392639.76145  23081707.713    23081706.685    23081724.741
       211.000         148.000
 -11958390.34649  -9299101.28047  21735360.560    21735360.561    21735372.483
       234.000         191.000
  -3220536.76849  -2477038.94845  23890656.315    23890656.536    23890676.526
       201.000         139.000
 -15824287.51949 -12269933.46047  19455755.282    19455754.631    19455764.261
       235.000         204.000
   2624135.67949   2050354.07547  20640164.879    20640163.925    20640175.459
       235.000         196.000
  -5715892.18949  -4437058.07845  22992938.593    22992938.095    22992952.368
       219.000         160.000
 01 12 19 21 45 59.9970000  0  9G 4G 2G28G27G26G 9G 7G 8G11
  -6655661.48549  -4546491.75445  23127905.503    23127907.126    23127929.492
       212.000         149.000
   2724226.91249   2122199.92446  22099764.022    22099763.171    22099776.806
       228.000         185.000
  -3395133.98749  -2638451.18847  20260565.681    20260565.112    20260573.376
       244.000         208.000
   9568712.81849   7453608.30745  23096597.171    23096596.117    23096614.333
       211.000         144.000
 -11966302.75849  -9305266.80647  21733854.819    21733854.877    21733866.825
       234.000         191.000
  -3351026.24749  -2578718.84545  23865824.777    23865825.004    23865845.039
       197.000         144.000
 -15862628.14649 -12299809.26447  19448459.286    19448458.648    19448468.228
       235.000         203.000
   2678819.59449   2092964.80747  20650570.962    20650570.020    20650581.558
       236.000         196.000
  -5696123.87449  -4421654.28745  22996700.201    22996699.798    22996714.180
       217.000         160.000
 01 12 19 21 46 29.9970000  0  9G 4G 2G28G27G26G 9G 7G 8G11
  -6787191.98149  -4648982.42745  23102875.725    23102877.236    23102899.516
       211.000         152.000
   2749163.65649   2141631.05846  22104509.401    22104508.538    22104522.186
       229.000         184.000
  -3392969.99349  -2636764.99047  20260977.509    20260976.925    20260985.197
       244.000         209.000
   9647193.23749   7514761.64545  23111531.913    23111530.660    23111548.858
       210.000         148.000
 -11973647.24749  -9310989.79447  21732457.182    21732457.268    21732469.197
       235.000         191.000
  -3481422.69749  -2680326.20645  23841010.928    23841011.190    23841031.254
       205.000         143.000
 -15900496.33849 -12329316.93747  19441253.239    19441252.568    19441262.105
       236.000         204.000
   2733907.59249   2135890.39947  20661053.911    20661052.991    20661064.557
       235.000         195.000
  -5675841.42549  -4405849.87645  23000559.707    23000559.360    23000573.858
       220.000         162.000
 01 12 19 21 46 59.9970000  0  9G 4G 2G28G27G26G 9G 7G 8G11
  -6918743.63449  -4751489.60245  23077841.866    23077843.322    23077865.461
       213.000         153.000
   2774202.02649   2161141.38346  22109274.172    22109273.267    22109286.872
       230.000         184.000
  -3390648.84149  -2634956.32747  20261419.229    20261418.645    20261426.945
       244.000         208.000
   9725856.30649   7576057.23645  23126501.158    23126499.925    23126518.271
       207.000         140.000
 -11980477.66849  -9316312.21247  21731157.447    21731157.488    21731169.410
       236.000         192.000
  -3611776.68049  -2781900.40645  23816205.262    23816205.421    23816225.566
       209.000         144.000
 -15937945.24349 -12358497.88947  19434126.956    19434126.287    19434135.771
       234.000         204.000
   2789345.86349   2179088.92347  20671603.484    20671602.626    20671614.212
       235.000         195.000
  -5655098.47549  -4389686.64046  23004507.065    23004506.686    23004521.213
       222.000         163.000
 01 12 19 21 47 29.9970000  0  9G 4G 2G28G27G26G 9G 7G 8G11
  -7050270.19949  -4853977.22645  23052812.680    23052814.217    23052836.231
       215.000         153.000
   2799385.33249   2180764.64646  22114066.497    22114065.603    22114079.141
       230.000         183.000
  -3388127.23749  -2632991.46847  20261899.119    20261898.519    20261906.815
       244.000         208.000
   9804743.25949   7637527.33745  23141513.197    23141511.859    23141530.185
       206.000         141.000
 -11986752.09749  -9321201.38847  21729963.484    21729963.521    21729975.464
       236.000         193.000
  -3742042.96949  -2883406.41445  23791416.306    23791416.396    23791436.464
       214.000         147.000
 -15974932.35049 -12387318.99847  19427088.492    19427087.839    19427097.349
       234.000         204.000
   2845176.21449   2222592.96447  20682227.732    20682226.876    20682238.446
       235.000         194.000
  -5633852.81849  -4373131.66245  23008550.101    23008549.678    23008564.182
       223.000         162.000
 01 12 19 21 47 59.9970000  0  9G 4G 2G28G27G26G 9G 7G 8G11
  -7181741.18449  -4956421.58845  23027794.129    23027795.696    23027817.578
       213.000         153.000
   2824741.59849   2200522.67746  22118891.658    22118890.797    22118904.348
       230.000         184.000
  -3385377.49249  -2630848.83547  20262422.363    20262421.767    20262430.117
       244.000         208.000
   9883879.98349   7699191.99345  23156572.505    23156571.223    23156589.560
       207.000         141.000
 -11992444.14149  -9325636.76847  21728880.354    21728880.364    21728892.275
       236.000         192.000
  -3872191.92349  -2984820.87545  23766649.627    23766649.725    23766669.661
       214.000         136.000
 -16011430.67349 -12415759.23647  19420143.048    19420142.417    19420151.948
       234.000         204.000
   2901424.68449   2266422.80547  20692931.562    20692930.694    20692942.209
       235.000         194.000
  -5612078.34149  -4356164.63645  23012693.671    23012693.276    23012707.772
       220.000         162.000
 01 12 19 21 48 29.9960000  0  9G 4G 2G28G27G26G 9G 7G 8G11
  -7313194.10549  -5058851.91445  23002778.964    23002780.504    23002802.241
       214.000         151.000
   2850225.37849   2220380.07546  22123741.250    22123740.310    22123753.826
       231.000         184.000
  -3382444.66649  -2628563.54547  20262980.432    20262979.863    20262988.264
       243.000         208.000
   9963216.86349   7761012.61545  23171669.764    23171668.614    23171687.228
       209.000         146.000
 -11997599.90549  -9329654.25247  21727899.236    21727899.275    21727911.184
       234.000         192.000
  -4002262.34749  -3086174.15045  23741897.905    23741897.986    23741917.918
       212.000         139.000
 -16047484.65649 -12443853.22647  19413282.164    19413281.554    19413291.121
       234.000         204.000
   2958043.26249   2310541.04547  20703705.856    20703704.945    20703716.436
       235.000         194.000
  -5589822.11349  -4338822.22745  23016929.003    23016928.526    23016943.170
       221.000         161.000
 01 12 19 21 48 59.9960000  0  9G 4G 2G28G27G26G 9G 7G 8G11
  -7444642.15549  -5161278.46945  22977764.899    22977766.342    22977787.937
       214.000         152.000
   2875831.48349   2240332.79646  22128614.058    22128613.109    22128626.584
       229.000         185.000
  -3379336.00849  -2626141.24847  20263571.952    20263571.414    20263579.867
       243.000         207.000
  10042749.94649   7822986.24145  23186804.552    23186803.574    23186821.866
       203.000         135.000
 -12002228.63549  -9333261.07147  21727018.441    21727018.453    21727030.366
       234.000         191.000
  -4132268.03549  -3187477.13345  23717158.560    23717158.615    23717178.345
       206.000         142.000
 -16083104.88949 -12471609.23047  19406503.868    19406503.240    19406512.802
       234.000         204.000
   3015026.72249   2354943.59347  20714549.522    20714548.621    20714560.126
       234.000         194.000
  -5567091.21649  -4321109.95545  23021254.561    23021254.092    23021268.886
       221.000         161.000
 01 12 19 21 49 29.9960000  0  9G 4G 2G28G27G26G 9G 7G 8G11
  -7576114.27049  -5263723.81645  22952746.165    22952747.623    22952768.968
       214.000         154.000
   2901522.95649   2260352.05246  22133503.084    22133502.135    22133515.615
       229.000         185.000
  -3376087.94349  -2623610.31647  20264190.028    20264189.501    20264197.991
       243.000         207.000
  10122438.43749   7885080.74945  23201968.951    23201967.924    23201986.726
       209.000         147.000
 -12006367.79349  -9336486.39747  21726230.820    21726230.804    21726242.714
       235.000         191.000
  -4262239.00549  -3288752.96745  23692425.742    23692425.726    23692445.371
       209.000         137.000
 -16118327.15649 -12499055.11647  19399801.306    19399800.645    19399810.223
       235.000         204.000
   3072335.62349   2399599.74547  20725455.092    20725454.226    20725465.753
       235.000         193.000
  -5543924.18049  -4303057.82345  23025663.183    23025662.705    23025677.557
       221.000         162.000
 01 12 19 21 49 59.9960000  0  9G 4G 2G28G27G26G 9G 7G 8G11
  -7707569.98549  -5366156.35745  22927730.601    22927732.040    22927753.165
       215.000         152.000
   2927337.47849   2280467.16646  22138415.490    22138414.547    22138428.094
       230.000         185.000
  -3372662.78549  -2620941.39747  20264841.856    20264841.316    20264849.790
       243.000         207.000
  10202317.89949   7947324.24345  23217169.369    23217168.526    23217187.133
       211.000         144.000
 -12009981.32649  -9339302.15047  21725543.247    21725543.183    21725555.090
       236.000         191.000
  -4392135.66049  -3389970.85045  23667707.076    23667706.998    23667726.588
       209.000         140.000
 -16153114.84349 -12526162.37647  19393181.465    19393180.774    19393190.361
       234.000         203.000
   3130005.95749   2444537.52347  20736429.514    20736428.624    20736440.165
       235.000         193.000
  -5520284.75349  -4284637.61645  23030161.715    23030161.180    23030176.129
       222.000         161.000
 01 12 19 21 50 29.9960000  0  9G 4G 2G28G27G26G 9G 7G 8G11
  -7839035.86749  -5468596.80945  22902713.222    22902714.545    22902735.523
       215.000         153.000
   2953246.21149   2300655.70346  22143345.863    22143344.905    22143358.484
       230.000         185.000
  -3369090.20749  -2618157.60147  20265521.707    20265521.163    20265529.665
       243.000         207.000
  10282356.96149   8009691.93645  23232400.540    23232399.725    23232418.690
       205.000         140.000
 -12013100.06449  -9341732.35247  21724949.730    21724949.725    21724961.634
       236.000         190.000
  -4521985.40049  -3491152.23245  23642997.276    23642997.225    23643016.645
       212.000         143.000
 -16187498.14649 -12552954.52947  19386638.533    19386637.843    19386647.424
       234.000         204.000
   3188006.79549   2489732.82947  20747466.899    20747465.922    20747477.472
       235.000         194.000
  -5496203.74549  -4265873.34246  23034744.237    23034743.689    23034758.749
       223.000         163.000
 01 12 19 21 50 59.9960000  0  9G 4G 2G28G27G26G 9G 7G 8G11
  -7970562.10749  -5571084.33645  22877684.361    22877685.614    22877706.300
       215.000         155.000
   2979196.35549   2320876.49946  22148284.167    22148283.176    22148296.714
       230.000         184.000
  -3365423.25549  -2615300.27347  20266219.542    20266218.971    20266227.475
       243.000         206.000
  10362500.38849   8072141.14745  23247651.881    23247650.838    23247669.508
       205.000         148.000
 -12015778.69749  -9343819.62247  21724439.957    21724439.992    21724451.890
       235.000         190.000
  -4651839.37149  -3592336.89945  23618286.607    23618286.623    23618306.027
       212.000         143.000
 -16221530.98049 -12579473.58747  19380162.327    19380161.601    19380171.168
       234.000         203.000
   3246283.53449   2535143.13047  20758556.667    20758555.699    20758567.297
       234.000         193.000
  -5471735.89249  -4246807.63146  23039400.452    23039399.855    23039414.945
       222.000         164.000
 01 12 19 21 51 29.9960000  0  9G 4G 2G28G27G26G 9G 7G 8G11
  -8101957.87249  -5673470.20245  22852680.344    22852681.499    22852701.948
       214.000         154.000
   3005375.97449   2341276.10046  22153266.075    22153265.075    22153278.634
       230.000         184.000
  -3361473.87649  -2612222.86447  20266971.105    20266970.526    20266979.024
       243.000         206.000
  10442934.18249   8134816.41845  23262958.311    23262957.105    23262976.021
       208.000         143.000
 -12017830.77149  -9345418.66247  21724049.382    21724049.480    21724061.416
       236.000         190.000
  -4781507.71849  -3693376.89645  23593611.407    23593611.405    23593630.769
       213.000         144.000
 -16255026.36549 -12605573.85247  19373788.324    19373787.621    19373797.184
       234.000         202.000
   3305022.59849   2580913.68447  20769734.365    20769733.454    20769745.117
       234.000         192.000
  -5446694.66249  -4227295.12846  23044165.666    23044165.135    23044180.252
       222.000         164.000
 01 12 19 21 51 59.9960000  0  9G 4G 2G28G27G26G 9G 7G 8G11
  -8233342.63949  -5775847.51045  22827678.310    22827679.460    22827699.732
       214.000         156.000
   3031662.82049   2361759.25546  22158268.357    22158267.373    22158280.955
       230.000         183.000
  -3357364.60949  -2609020.86447  20267753.103    20267752.531    20267760.986
       243.000         206.000
  10523533.95349   8197621.09745  23278296.186    23278294.933    23278313.880
       210.000         145.000
 -12019380.24949  -9346626.06347  21723754.541    21723754.628    21723766.589
       235.000         191.000
  -4911110.75249  -3794365.99645  23568948.626    23568948.578    23568967.878
       216.000         149.000
 -16288107.47449 -12631351.30247  19367493.143    19367492.473    19367502.047
       233.000         202.000
   3364099.98749   2626947.87447  20780976.401    20780975.568    20780987.340
       233.000         192.000
  -5421203.77649  -4207432.26646  23049016.569    23049015.968    23049031.131
       220.000         163.000
 01 12 19 21 52 29.9960000  0  9G 4G 2G28G27G26G 9G 7G 8G11
  -8364774.41749  -5878261.46845  22802667.388    22802668.528    22802688.555
       218.000         157.000
   3057996.33849   2382278.77346  22163279.547    22163278.567    22163292.184
       230.000         183.000
  -3353156.69249  -2605741.99647  20268553.843    20268553.277    20268561.698
       242.000         205.000
  10604236.52849   8260505.86645  23293653.588    23293652.438    23293671.465
       207.000         142.000
 -12020490.00449  -9347490.82947  21723543.392    21723543.436    21723555.438
       234.000         191.000
  -5040707.76849  -3895350.45145  23544286.922    23544286.964    23544306.102
       214.000         149.000
 -16320836.39949 -12656854.32047  19361265.022    19361264.349    19361273.914
       233.000         202.000
   3423452.96949   2673196.79547  20792270.906    20792270.128    20792281.961
       233.000         191.000
  -5395326.16349  -4187268.04746  23053941.068    23053940.444    23053955.599
       220.000         163.000
 01 12 19 21 52 59.9960000  0  9G 4G 2G28G27G26G 9G 7G 8G11
  -8496103.07149  -5980595.07945  22777676.096    22777677.229    22777697.022
       214.000         158.000
   3084524.01949   2402949.58246  22168327.689    22168326.723    22168340.318
       229.000         182.000
  -3348702.81249  -2602271.46847  20269401.390    20269400.839    20269409.240
       242.000         204.000
  10685187.32349   8323584.05445  23309058.079    23309057.076    23309076.113
       203.000         142.000
 -12021014.13249  -9347899.27247  21723443.665    21723443.722    21723455.732
       236.000         191.000
  -5170149.14549  -3996213.58545  23519654.797    23519654.931    23519674.032
       214.000         148.000
 -16353066.67049 -12681968.77947  19355131.794    19355131.110    19355140.686
       233.000         202.000
   3483227.50149   2719774.19947  20803645.770    20803644.945    20803656.756
       234.000         190.000
  -5368916.01349  -4166688.87546  23058966.851    23058966.228    23058981.458
       221.000         164.000
 01 12 19 21 53 29.9960000  0  9G 4G 2G28G27G26G 9G 7G 8G11
  -8627357.57649  -6082870.90245  22752698.775    22752699.948    22752719.634
       216.000         158.000
   3111214.24649   2423747.05046  22173406.740    22173405.764    22173419.390
       229.000         182.000
  -3344034.69749  -2598634.00447  20270289.687    20270289.141    20270297.545
       242.000         205.000
  10766352.38149   8386829.23045  23324503.522    23324502.407    23324521.669
       204.000         142.000
 -12020986.26449  -9347877.57847  21723449.031    21723449.039    21723461.012
       237.000         190.000
  -5299464.70449  -4096978.70045  23495046.662    23495046.892    23495065.852
       215.000         151.000
 -16384831.11149 -12706720.25247  19349087.214    19349086.517    19349096.111
       233.000         201.000
   3543389.97449   2766653.89347  20815094.477    20815093.601    20815105.378
       233.000         190.000
  -5342006.57149  -4145720.64946  23064087.765    23064087.009    23064102.285
       224.000         164.000
 01 12 19 21 53 59.9960000  0  9G 4G 2G28G27G26G 9G 7G 8G11
  -8758555.43249  -6185102.58145  22727732.249    22727733.459    22727753.059
       215.000         157.000
   3138046.81149   2444655.42446  22178512.883    22178511.908    22178525.524
       229.000         181.000
  -3339173.04549  -2594845.73647  20271214.856    20271214.302    20271222.716
       242.000         205.000
  10847709.23649   8450223.77945  23339985.378    23339984.376    23340003.900
       199.000         141.000
 -12020428.45649  -9347442.96047  21723555.182    21723555.221    21723567.174
       235.000         191.000
  -5428673.05649  -4197660.27745  23470458.865    23470459.111    23470478.085
       213.000         150.000
 -16416151.19149 -12731125.47147  19343127.113    19343126.470    19343136.053
       232.000         201.000
   3603918.23349   2813818.61747  20826612.767    20826611.858    20826623.597
       233.000         189.000
  -5314620.02249  -4124380.61946  23069299.380    23069298.574    23069313.931
       221.000         163.000
 01 12 19 21 54 29.9960000  0  9G 4G 2G28G27G26G 9G 7G 8G11
  -8889688.78549  -6287284.01745  22702777.899    22702779.208    22702798.722
       216.000         157.000
   3165027.00749   2465678.84146  22183647.105    22183646.140    22183659.752
       229.000         181.000
  -3334112.68349  -2590902.62447  20272177.860    20272177.280    20272185.707
       242.000         205.000
  10929260.73249   8513770.12045  23355504.538    23355503.366    23355522.736
       208.000         147.000
 -12019337.37649  -9346592.79847  21723762.809    21723762.850    21723774.832
       234.000         191.000
  -5557766.85649  -4298252.56145  23445892.881    23445893.173    23445912.167
       213.000         150.000
 -16447022.83249 -12755181.25847  19337252.451    19337251.765    19337261.336
       232.000         201.000
   3664815.59149   2861270.96647  20838201.223    20838200.319    20838212.093
       233.000         190.000
  -5286752.77449  -4102666.00445  23074602.457    23074601.666    23074617.019
       221.000         162.000
 01 12 19 21 54 59.9960000  0  9G 4G 2G28G27G26G 9G 7G 8G11
  -9020785.25849  -6389436.68845  22677830.728    22677831.975    22677851.472
       218.000         159.000
   3192124.25549   2486793.45546  22188803.641    22188802.660    22188816.278
       229.000         181.000
  -3328884.55749  -2586828.78447  20273172.755    20273172.155    20273180.616
       242.000         204.000
  11010974.18249   8577442.47945  23371054.306    23371053.054    23371072.868
       208.000         144.000
 -12017745.56749  -9345352.45547  21724065.814    21724065.763    21724077.758
       234.000         191.000
  -5686775.14149  -4398778.22945  23421343.086    23421343.548    23421362.468
       212.000         151.000
 -16477477.78949 -12778912.36247  19331457.019    19331456.347    19331465.912
       232.000         201.000
   3726049.93049   2908985.88847  20849853.823    20849852.918    20849864.747
       233.000         190.000
  -5258437.31149  -4080602.16845  23079990.920    23079990.066    23080005.360
       222.000         161.000
 01 12 19 21 55 29.9960000  0  9G 4G 2G28G27G26G 9G 7G 8G11
  -9151773.09649  -6491504.71945  22652904.179    22652905.464    22652924.839
       217.000         157.000
   3219407.62249   2508053.08546  22193995.629    22193994.612    22194008.178
       229.000         181.000
  -3323419.72449  -2582570.50147  20274212.633    20274212.079    20274220.583
       242.000         205.000
  11092916.10149   8641293.08445  23386647.574    23386646.367    23386665.895
       202.000         136.000
 -12015585.85449  -9343669.58747  21724476.777    21724476.752    21724488.747
       235.000         191.000
  -5815626.89849  -4499181.94245  23396823.284    23396823.646    23396842.539
       212.000         150.000
 -16507448.26849 -12802265.94847  19325753.794    19325753.124    19325762.675
       232.000         201.000
   3787688.32349   2957015.67647  20861583.425    20861582.445    20861594.298
       233.000         189.000
  -5229606.52449  -4058136.76145  23085477.334    23085476.475    23085491.749
       221.000         162.000
 01 12 19 21 55 59.9960000  0  9G 4G 2G28G27G26G 9G 7G 8G11
  -9282848.46949  -6593640.94245  22627961.033    22627962.321    22627981.564
       219.000         159.000
   3246678.38049   2529302.90746  22199185.145    22199184.133    22199197.695
       228.000         180.000
  -3317917.34049  -2578282.95647  20275259.650    20275259.134    20275267.667
       242.000         205.000
  11174885.39049   8705164.79545  23402245.936    23402244.833    23402264.889
       200.000         144.000
 -12013059.18349  -9341700.79547  21724957.532    21724957.567    21724969.599
       233.000         191.000
  -5944519.16749  -4599617.20345  23372295.670    23372296.042    23372314.927
       212.000         147.000
 -16537134.22549 -12825397.83147  19320104.719    19320104.053    19320113.583
       233.000         201.000
   3849530.01549   3005203.87247  20873351.660    20873350.649    20873362.538
       233.000         189.000
  -5200461.03049  -4035426.14145  23091023.525    23091022.747    23091038.041
       221.000         162.000
 01 12 19 21 56 29.9960000  0  9G 4G 2G28G27G26G 9G 7G 8G11
  -9413823.86149  -6695699.27045  22603036.952    22603038.201    22603057.292
       219.000         157.000
   3274121.48249   2550687.02346  22204407.408    22204406.447    22204420.075
       227.000         180.000
  -3312192.90149  -2573822.38147  20276349.018    20276348.483    20276357.008
       242.000         205.000
  11257064.50349   8769200.23145  23417884.352    23417883.246    23417902.805
       207.000         142.000
 -12009982.72149  -9339303.57447  21725542.994    21725543.019    21725555.095
       234.000         191.000
  -6073265.38849  -4699938.63945  23347795.902    23347796.222    23347815.047
       212.000         147.000
 -16566352.23449 -12848165.08547  19314544.695    19314544.029    19314553.528
       232.000         201.000
   3911757.95649   3053693.03547  20885193.424    20885192.353    20885204.253
       233.000         189.000
  -5170818.15349  -4012327.94845  23096664.431    23096663.708    23096679.023
       220.000         162.000
 01 12 19 21 56 59.9960000  0  9G 4G 2G28G27G26G 9G 7G 8G11
  -9544700.40749  -6797680.54745  22578131.697    22578132.938    22578151.874
       220.000         158.000
   3301733.09949   2572202.44646  22209661.794    22209660.824    22209674.537
       227.000         180.000
  -3306250.61849  -2569192.05447  20277479.816    20277479.271    20277487.816
       242.000         205.000
  11339447.36749   8833394.21845  23433561.526    23433560.402    23433580.491
       207.000         139.000
 -12006362.31449  -9336482.50347  21726231.973    21726231.990    21726244.063
       234.000         190.000
  -6201867.59549  -4800147.88045  23323323.503    23323323.858    23323342.594
       214.000         146.000
 -16595107.40849 -12870571.69647  19309072.671    19309072.048    19309081.559
       232.000         200.000
   3974366.11149   3102478.47047  20897107.523    20897106.401    20897118.325
       233.000         189.000
  -5140683.31649  -3988846.40945  23102398.999    23102398.233    23102413.665
       222.000         162.000
 01 12 19 21 57 29.9960000  0  9G 4G 2G28G27G26G 9G 7G 8G11
  -9675513.08449  -6899612.03045  22553238.573    22553239.789    22553258.617
       220.000         159.000
   3329475.58949   2593819.83946  22214941.029    22214940.086    22214953.923
       226.000         180.000
  -3300128.43649  -2564421.54647  20278644.826    20278644.285    20278652.870
       242.000         204.000
  11421993.88748   8897715.92745  23449270.177    23449268.943    23449288.755
       193.000         132.000
 -12002237.66149  -9333268.52147  21727016.953    21727016.921    21727028.955
       232.000         191.000
  -6330361.73349  -4900272.90845  23298871.546    23298871.978    23298890.722
       214.000         141.000
 -16623438.70249 -12892648.01547  19303681.375    19303680.743    19303690.243
       232.000         200.000
   4037315.15449   3151529.53847  20909086.478    20909085.320    20909097.261
       233.000         189.000
  -5110096.42049  -3965012.61246  23108219.632    23108218.833    23108234.328
       220.000         163.000
 01 12 19 21 57 59.9960000  0  9G 4G 2G28G27G26G 9G 7G 8G11
  -9806290.62249  -7001516.11145  22528352.173    22528353.336    22528372.036
       220.000         159.000
   3357317.45849   2615514.67646  22220239.227    22220238.282    22220252.206
       226.000         179.000
  -3293858.02349  -2559535.53547  20279838.100    20279837.534    20279846.096
       243.000         204.000
  11504670.30349   8962138.75445  23465003.470    23465001.961    23465022.039
       203.000         141.000
 -11997642.50449  -9329687.89547  21727891.467    21727891.360    21727903.444
       233.000         190.000
  -6458777.38549  -5000336.74945  23274434.648    23274435.014    23274453.650
       212.000         140.000
 -16651378.86149 -12914419.55547  19298364.610    19298363.927    19298373.367
       233.000         201.000
   4100571.56349   3200820.11447  20921123.859    20921122.722    20921134.730
       232.000         188.000
  -5079090.99249  -3940852.65245  23114119.934    23114119.130    23114134.600
       221.000         162.000
 01 12 19 21 58 29.9960000  0  9G 4G 2G28G27G26G 9G 7G 8G11
  -9936947.66049  -7103326.29645  22503488.608    22503489.808    22503508.379
       220.000         160.000
   3385341.18749   2637351.20846  22225572.108    22225571.123    22225585.029
       227.000         179.000
  -3287356.91649  -2554469.76047  20281075.315    20281074.708    20281083.210
       243.000         205.000
  11587556.88849   9026725.31445  23480776.526    23480775.026    23480795.201
       200.000         132.000
 -11992496.27149  -9325677.86447  21728870.774    21728870.676    21728882.776
       234.000         190.000
  -6587030.00049  -5100273.55645  23250028.760    23250029.171    23250047.714
       212.000         139.000
 -16678846.74749 -12935823.09247  19293137.692    19293136.982    19293146.391
       232.000         201.000
   4164215.84849   3250412.93347  20933234.975    20933233.915    20933245.998
       231.000         188.000
  -5047586.28549  -3916303.65045  23120115.301    23120114.417    23120129.867
       219.000         160.000
 01 12 19 21 58 59.9960000  0  9G 4G 2G28G27G26G 9G 7G 8G11
 -10067524.00949  -7205073.58145  22478640.390    22478641.619    22478660.088
       220.000         160.000
   3413504.36249   2659296.41346  22230931.496    22230930.478    22230944.402
       227.000         178.000
  -3280667.34349  -2549257.12347  20282348.407    20282347.760    20282356.201
       244.000         205.000
  11670608.76349   9091440.72345  23496581.128    23496579.601    23496599.709
       209.000         139.000
 -11986843.32549  -9321272.98347  21729946.515    21729946.431    21729958.491
       233.000         189.000
  -6715160.11749  -5200114.93045  23225646.280    23225646.663    23225665.012
       211.000         144.000
 -16705885.91449 -12956892.56747  19287992.284    19287991.568    19288000.977
       232.000         201.000
   4228203.83749   3300273.57546  20945411.547    20945410.513    20945422.653
       231.000         187.000
  -5015626.31549  -3891399.91545  23126197.101    23126196.257    23126211.791
       216.000         156.000
 01 12 19 21 59 29.9960000  0  9G 4G 2G28G27G26G 9G 7G 8G11
 -10198019.92649  -7306758.19345  22453807.474    22453808.739    22453827.066
       221.000         160.000
   3441804.03249   2681347.98046  22236316.892    22236315.838    22236329.745
       227.000         179.000
  -3273793.21349  -2543900.67147  20283656.605    20283655.906    20283664.336
       243.000         205.000
  11753820.69549   9156280.87645  23512415.945    23512414.473    23512434.666
       205.000         142.000
 -11980689.11449  -9316477.52047  21731117.685    21731117.573    21731129.566
       235.000         189.000
  -6843168.90549  -5299861.73445  23201286.828    23201287.201    23201305.505
       214.000         145.000
 -16732500.93749 -12977631.54347  19282927.566    19282926.862    19282936.297
       232.000         201.000
   4292530.30849   3350397.95846  20957652.578    20957651.535    20957663.703
       231.000         187.000
  -4983216.48649  -3866145.61545  23132364.585    23132363.748    23132379.261
       216.000         155.000
 01 12 19 21 59 59.9960000  0  9G 4G 2G28G27G26G 9G 7G 8G11
 -10328477.74849  -7408413.11345  22428981.857    22428983.100    22429001.318
       221.000         160.000
   3470195.05649   2703470.73046  22241719.587    22241718.551    22241732.499
       227.000         179.000
  -3266779.69049  -2538435.60947  20284991.263    20284990.584    20284999.016
       243.000         206.000
  11837145.15949   9221208.63644  23528272.371    23528270.885    23528290.951
       205.000         127.000
 -11974080.82549  -9311328.21547  21732375.119    21732375.085    21732387.086
       235.000         188.000
  -6971099.60249  -5399547.67645  23176942.127    23176942.614    23176960.877
       214.000         146.000
 -16758738.17949 -12998076.14747  19277934.775    19277934.068    19277943.503
       233.000         201.000
   4357148.21849   3400749.45046  20969949.097    20969948.029    20969960.209
       231.000         187.000
  -4950404.03149  -3840577.57645  23138608.727    23138607.861    23138623.313
       218.000         156.000
 01 12 19 22  0 29.9960000  0  9G 4G 2G28G27G26G 9G 7G 8G11
 -10458932.35449  -7510065.52245  22404156.737    22404158.085    22404176.100
       221.000         161.000
   3498639.98149   2725635.47146  22247132.587    22247131.568    22247145.503
       228.000         180.000
  -3259664.58149  -2532891.38647  20286345.226    20286344.564    20286353.019
       243.000         206.000
  11920542.11849   9286193.04245  23544142.490    23544141.165    23544161.189
       200.000         140.000
 -11967058.10849  -9305855.99147  21733711.507    21733711.471    21733723.450
       235.000         189.000
  -7098987.82849  -5499200.50645  23152605.665    23152606.087    23152624.283
       217.000         151.000
 -16784636.43949 -13018256.60547  19273006.539    19273005.817    19273015.225
       233.000         202.000
   4422018.17349   3451297.32446  20982293.612    20982292.492    20982304.724
       231.000         187.000
  -4917228.54449  -3814726.65845  23144921.890    23144921.052    23144936.439
       216.000         156.000
 01 12 19 22  0 59.9960000  0  9G 4G 2G28G27G26G 9G 7G 8G11
 -10589228.23849  -7611594.25445  22379361.807    22379363.246    22379381.148
       221.000         162.000
   3527291.42649   2747961.13946  22252584.968    22252583.873    22252597.883
       227.000         180.000
  -3252295.64449  -2527149.37547  20287747.515    20287746.855    20287755.326
       244.000         205.000
  12004161.90749   9351350.98644  23560055.318    23560053.877    23560073.551
       206.000         125.000
 -11959470.59949  -9299943.65647  21735155.460    21735155.357    21735167.296
       235.000         188.000
  -7226678.94749  -5598699.73145  23128306.589    23128307.060    23128325.244
       216.000         156.000
 -16810044.58949 -13038055.15847  19268171.531    19268170.807    19268180.221
       232.000         202.000
   4487290.49549   3502158.73746  20994714.661    20994713.534    20994725.781
       231.000         187.000
  -4883539.28349  -3788475.41845  23151332.838    23151331.992    23151347.378
       221.000         157.000
 01 12 19 22  1 29.9960000  0  9G 4G 2G28G27G26G 9G 7G 8G11
 -10719471.15349  -7713081.71545  22354577.033    22354578.435    22354596.228
       221.000         160.000
   3556041.01549   2770363.28746  22258055.978    22258054.846    22258068.928
       227.000         179.000
  -3244781.29449  -2521294.05147  20289177.457    20289176.815    20289185.283
       243.000         205.000
  12087893.94049   9416596.35745  23575989.131    23575987.715    23576007.848
       208.000         142.000
 -11951428.83949  -9293677.36546  21736685.608    21736685.644    21736697.665
       234.000         187.000
  -7354279.60749  -5698128.48245  23104024.803    23104025.272    23104043.360
       218.000         158.000
 -16835072.18749 -13057557.17647  19263408.870    19263408.186    19263417.620
       232.000         202.000
   4552855.11549   3553247.90146  21007191.227    21007190.152    21007202.442
       230.000         186.000
  -4849446.61549  -3761909.78545  23157820.561    23157819.718    23157835.088
       218.000         157.000
 01 12 19 22  1 59.9960000  0  9G 4G 2G28G27G26G 9G 7G 8G11
 -10849542.96149  -7814435.86545  22329824.878    22329826.222    22329843.847
       221.000         160.000
   3585003.99849   2792931.71746  22263567.506    22263566.406    22263580.531
       226.000         179.000
  -3237006.52649  -2515235.79447  20290656.929    20290656.317    20290664.799
       243.000         205.000
  12171850.97549   9482017.17844  23591965.759    23591964.571    23591984.553
       198.000         130.000
 -11942819.73649  -9286968.98546  21738323.992    21738323.933    21738335.880
       234.000         187.000
  -7481672.72849  -5797395.50145  23079782.496    23079782.957    23079800.993
       219.000         159.000
 -16859605.63749 -13076674.13847  19258740.335    19258739.634    19258749.062
       233.000         202.000
   4618825.05149   3604652.89246  21019744.864    21019743.882    21019756.227
       230.000         186.000
  -4814837.38249  -3734941.64345  23164406.622    23164405.738    23164421.090
       214.000         159.000
 01 12 19 22  2 29.9960000  0  9G 4G 2G28G27G26G 9G 7G 8G11
 -10979542.87449  -7915733.97845  22305086.376    22305087.674    22305105.192
       222.000         161.000
   3614078.37149   2815586.94246  22269100.237    22269099.152    22269113.329
       226.000         179.000
  -3229073.47949  -2509054.20147  20292166.560    20292165.935    20292174.443
       243.000         205.000
  12255928.81149   9547531.99545  23607965.274    23607964.214    23607984.530
       200.000         132.000
 -11933747.61049  -9279899.82146  21740050.420    21740050.319    21740062.235
       235.000         187.000
  -7608958.42549  -5896578.78345  23055560.593    23055561.054    23055579.096
       220.000         161.000
 -16883748.01649 -13095486.36547  19254146.195    19254145.477    19254154.915
       233.000         202.000
   4685096.51949   3656292.84146  21032356.033    21032355.035    21032367.419
       230.000         186.000
  -4779815.88749  -3707652.29645  23171071.152    23171070.247    23171085.662
       219.000         159.000
 01 12 19 22  2 59.9960000  0  9G 4G 2G28G27G26G 9G 7G 8G11
 -11109461.81349  -8016969.03745  22280363.320    22280364.578    22280381.876
       222.000         161.000
   3643270.51149   2838333.93046  22274655.412    22274654.333    22274668.557
       226.000         178.000
  -3220976.06649  -2502744.53347  20293707.435    20293706.837    20293715.336
       243.000         205.000
  12340131.34349   9613144.10145  23623988.827    23623987.640    23624007.977
       207.000         141.000
 -11924208.52749  -9272466.79546  21741865.674    21741865.551    21741877.474
       235.000         187.000
  -7736128.46549  -5995671.96145  23031360.627    23031361.162    23031379.177
       219.000         161.000
 -16907494.60849 -13113990.18347  19249627.354    19249626.648    19249636.076
       232.000         201.000
   4751673.59549   3708170.91946  21045025.345    21045024.354    21045036.799
       229.000         185.000
  -4744377.63949  -3680038.17245  23177815.026    23177814.055    23177829.439
       213.000         157.000
 01 12 19 22  3 29.9960000  0  9G 4G 2G28G27G26G 9G 7G 8G11
 -11239266.43049  -8118115.00445  22255662.027    22255663.254    22255680.297
       222.000         162.000
   3672611.10949   2861196.61446  22280238.824    22280237.757    22280252.000
       224.000         176.000
  -3212683.97849  -2496283.16647  20295285.376    20295284.768    20295293.262
       243.000         205.000
  12424486.75749   9678875.24744  23640041.479    23640040.226    23640060.863
       203.000         127.000
 -11914173.95149  -9264647.66846  21743775.141    21743775.076    21743786.990
       234.000         186.000
  -7863150.10249  -6094649.50245  23007188.911    23007189.471    23007207.459
       220.000         161.000
 -16930816.16849 -13132162.80447  19245189.389    19245188.675    19245198.093
       231.000         201.000
   4818584.81449   3760309.37646  21057758.295    21057757.254    21057769.754
       229.000         186.000
  -4708494.22049  -3652077.18545  23184643.467    23184642.546    23184657.929
       218.000         156.000
 01 12 19 22  3 59.9960000  0  9G 4G 2G28G27G26G 9G 7G 8G11
 -11368904.83849  -8219131.49145  22230992.356    22230993.571    22231010.456
       221.000         162.000
   3702149.49049   2884213.38746  22285859.798    22285858.783    22285873.114
       224.000         177.000
  -3204148.07349  -2489631.82047  20296909.730    20296909.124    20296917.589
       244.000         205.000
  12509041.51949   9744761.80645  23656132.330    23656130.732    23656151.390
       201.000         135.000
 -11903597.08349  -9256405.99146  21745787.926    21745787.792    21745799.666
       234.000         186.000
  -7989972.57849  -6193471.87645  22983055.233    22983055.733    22983073.645
       219.000         161.000
 -16953665.08449 -13149967.13647  19240841.355    19240840.642    19240850.040
       232.000         201.000
   4885877.33749   3812744.94246  21070563.770    21070562.696    21070575.280
       230.000         186.000
  -4672118.53749  -3623732.57645  23191565.667    23191564.689    23191580.129
       216.000         157.000
 01 12 19 22  4 29.9960000  0  9G 4G 2G28G27G26G 9G 7G 8G11
 -11498490.08549  -8320106.58346  22206332.808    22206333.965    22206350.706
       222.000         163.000
   3731769.71249   2907293.93746  22291496.472    22291495.413    22291509.814
       224.000         177.000
  -3195484.57049  -2482881.04547  20298558.383    20298557.761    20298566.214
       244.000         205.000
  12593677.86749   9810711.91745  23672238.136    23672236.637    23672257.339
       199.000         136.000
 -11892595.99149  -9247833.74446  21747881.447    21747881.279    21747893.065
       234.000         186.000
  -8116709.76349  -6292227.81145  22958937.657    22958938.182    22958956.095
       217.000         158.000
 -16976158.43049 -13167494.39947  19236560.999    19236560.283    19236569.683
       232.000         200.000
   4953433.36049   3865385.85546  21083419.399    21083418.298    21083430.952
       231.000         186.000
  -4635368.65249  -3595096.36645  23198558.892    23198557.962    23198573.476
       217.000         157.000
 01 12 19 22  4 59.9960000  0  9G 4G 2G28G27G26G 9G 7G 8G11
 -11627996.38449  -8421020.16045  22181688.269    22181689.393    22181706.023
       221.000         162.000
   3761494.92149   2930456.30346  22297153.140    22297152.053    22297166.495
       224.000         177.000
  -3186670.50149  -2476012.94147  20300235.688    20300235.034    20300243.509
       244.000         206.000
  12678416.12549   9876741.31244  23688363.653    23688362.098    23688382.821
       199.000         125.000
 -11881150.17949  -9238914.96546  21750059.541    21750059.374    21750071.150
       235.000         186.000
  -8243336.65749  -6390897.79645  22934840.964    22934841.610    22934859.480
       218.000         157.000
 -16998274.88749 -13184727.97547  19232352.363    19232351.661    19232361.038
       231.000         200.000
   5021273.74649   3918248.34746  21096329.097    21096328.006    21096340.733
       230.000         186.000
  -4598223.75249  -3566152.38845  23205627.431    23205626.526    23205642.147
       217.000         158.000
 01 12 19 22  5 29.9960000  0  9G 4G 2G28G27G26G 9G 7G 8G11
 -11757354.20149  -8521818.07646  22157071.936    22157073.029    22157089.561
       221.000         163.000
   3791391.68949   2953752.34446  22302842.376    22302841.318    22302855.855
       224.000         176.000
  -3177639.32849  -2468975.67247  20301954.248    20301953.629    20301962.142
       243.000         206.000
  12763320.89549   9942900.55345  23704520.538    23704518.992    23704539.679
       210.000         134.000
 -11869195.15949  -9229599.41946  21752334.466    21752334.347    21752346.168
       235.000         187.000
  -8369784.37449  -6489428.17345  22910778.358    22910779.087    22910796.876
       217.000         154.000
 -17019948.96949 -13201616.85547  19228227.844    19228227.175    19228236.564
       230.000         199.000
   5089463.07749   3971382.74546  21109305.257    21109304.134    21109316.912
       230.000         186.000
  -4560619.11449  -3536850.15145  23212783.388    23212782.497    23212798.154
       217.000         155.000
 01 12 19 22  5 59.9960000  0  9G 4G 2G28G27G26G 9G 7G 8G11
 -11886611.19349  -8622537.47146  22132474.746    22132475.868    22132492.301
       221.000         164.000
   3821409.27649   2977142.51746  22308554.697    22308553.604    22308568.154
       225.000         176.000
  -3168442.10449  -2461809.01547  20303704.423    20303703.812    20303712.373
       243.000         206.000
  12848338.92649  10009148.04344  23720699.062    23720697.780    23720718.341
       200.000         127.000
 -11856783.98449  -9219928.42346  21754696.181    21754696.137    21754707.930
       234.000         187.000
  -8496101.57149  -6587856.87245  22886740.814    22886741.481    22886759.138
       220.000         155.000
 -17041232.93149 -13218201.74547  19224177.575    19224176.945    19224186.321
       232.000         199.000
   5157948.73949   4024748.04946  21122337.685    21122336.644    21122349.445
       230.000         185.000
  -4522607.84749  -3507231.05545  23220016.700    23220015.858    23220031.606
       213.000         154.000
 01 12 19 22  6 29.9960000  0  8G 4G 2G28G26G 9G 7G 8G11
 -12015778.06549  -8723186.64646  22107894.702    22107895.887    22107912.240
       221.000         164.000
   3851534.52449   3000616.58946  22314287.565    22314286.388    22314300.885
       225.000         176.000
  -3159091.97749  -2454523.20847  20305483.648    20305483.069    20305491.697
       243.000         206.000
 -11843932.39149  -9209914.24347  21757141.704    21757141.734    21757153.601
       235.000         188.000
  -8622299.84049  -6686192.91145  22862725.846    22862726.508    22862744.062
       219.000         156.000
 -17062141.51149 -13234494.13047  19220198.795    19220198.155    19220207.542
       230.000         200.000
   5226715.17549   4078332.14246  21135423.589    21135422.577    21135435.378
       231.000         183.000
  -4484205.22449  -3477307.01845  23227324.352    23227323.680    23227339.431
       212.000         153.000
 01 12 19 22  6 59.9960000  0  8G 4G 2G28G26G 9G 7G 8G11
 -12144787.15049  -8823712.91346  22083344.826    22083345.956    22083362.250
       223.000         165.000
   3881832.20049   3024225.01446  22320053.106    22320051.945    22320066.418
       224.000         175.000
  -3149524.49949  -2447068.03947  20307304.275    20307303.708    20307312.334
       244.000         206.000
 -11830577.89749  -9199508.19946  21759683.017    21759683.037    21759694.967
       233.000         187.000
  -8748312.33749  -6784384.20445  22838746.287    22838746.904    22838764.353
       222.000         160.000
 -17082611.41849 -13250444.69947  19216303.506    19216302.841    19216312.226
       230.000         199.000
   5295825.16649   4132183.93246  21148574.760    21148573.853    21148586.691
       230.000         184.000
  -4445348.78049  -3447029.35945  23234718.534    23234717.925    23234733.685
       215.000         155.000
 01 12 19 22  7 29.9960000  0  8G 4G 2G28G26G 9G 7G 8G11
 -12273745.35049  -8924199.55346  22058804.668    22058805.723    22058821.954
       221.000         167.000
   3912192.85249   3047882.51046  22325830.623    22325829.485    22325843.982
       225.000         174.000
  -3139849.57349  -2439529.14947  20309145.414    20309144.824    20309153.427
       244.000         206.000
 -11816832.68149  -9188797.69147  21762298.806    21762298.721    21762310.617
       234.000         188.000
  -8874246.78249  -6882514.67645  22814781.598    22814782.182    22814799.506
       222.000         162.000
 -17102753.70449 -13266139.97547  19212470.542    19212469.874    19212479.251
       230.000         199.000
   5365166.94949   4186216.34546  21161770.082    21161769.223    21161782.112
       230.000         183.000
  -4406150.25849  -3416485.13645  23242178.034    23242177.254    23242192.948
       219.000         154.000
 01 12 19 22  7 59.9960000  0  8G 4G 2G28G26G 9G 7G 8G11
 -12402502.63249  -9024529.65446  22034302.646    22034303.737    22034319.920
       222.000         166.000
   3942763.62849   3071703.76746  22331648.224    22331647.050    22331661.445
       224.000         174.000
  -3129920.19549  -2431791.99347  20311034.985    20311034.375    20311042.961
       245.000         207.000
 -11802551.90749  -9177669.88346  21765016.407    21765016.314    21765028.163
       234.000         187.000
  -8999953.88449  -6980468.00846  22790860.128    22790860.749    22790877.981
       223.000         163.000
 -17122422.93849 -13281466.64547  19208727.587    19208726.931    19208736.296
       231.000         199.000
   5434885.53149   4240542.36646  21175037.199    21175036.333    21175049.210
       230.000         183.000
  -4366464.76849  -3385561.49345  23249730.117    23249729.213    23249744.932
       217.000         154.000
 01 12 19 22  8 29.9960000  0  8G 4G 2G28G26G 9G 7G 8G11
 -12531207.27649  -9124818.74546  22009810.724    22009811.774    22009827.948
       221.000         167.000
   3973393.37549   3095570.96746  22337476.942    22337475.801    22337490.242
       225.000         176.000
  -3119887.56749  -2423974.38947  20312944.153    20312943.554    20312952.154
       244.000         207.000
 -11787889.29949  -9166244.53446  21767806.610    21767806.519    21767818.373
       232.000         186.000
  -9125583.00949  -7078360.58246  22766953.521    22766954.126    22766971.250
       222.000         165.000
 -17141771.64949 -13296543.55747  19205045.612    19205044.965    19205054.371
       230.000         199.000
   5504827.58249   4295042.52546  21188346.912    21188345.980    21188358.886
       230.000         183.000
  -4326445.53149  -3354377.73945  23257345.396    23257344.622    23257360.263
       218.000         154.000
 01 12 19 22  8 59.9960000  0  8G 4G 2G28G26G 9G 7G 8G11
 -12659856.43949  -9225064.61246  21985329.339    21985330.369    21985346.528
       223.000         168.000
   4004082.10849   3119484.13246  22343316.988    22343315.852    22343330.283
       226.000         174.000
  -3109751.90549  -2416076.50147  20314872.943    20314872.327    20314880.942
       244.000         206.000
 -11772847.02749  -9154523.34346  21770669.114    21770669.003    21770680.855
       232.000         187.000
  -9251131.91249  -7176190.66046  22743062.316    22743062.750    22743079.808
       223.000         166.000
 -17160801.19849 -13311371.76847  19201424.340    19201423.726    19201433.174
       230.000         200.000
   5574991.05149   4349715.21846  21201698.715    21201697.750    21201710.701
       229.000         183.000
  -4286094.88649  -3322935.79945  23265023.985    23265023.152    23265038.812
       214.000         153.000
 01 12 19 22  9 29.9960000  0  8G 4G 2G28G26G 9G 7G 8G11
 -12788291.07949  -9325143.33246  21960888.736    21960889.817    21960905.878
       222.000         168.000
   4034986.23249   3143565.11146  22349197.928    22349196.820    22349211.303
       223.000         174.000
  -3099356.99149  -2407976.59747  20316851.007    20316850.415    20316859.073
       244.000         207.000
 -11757271.61349  -9142386.71747  21773633.145    21773632.953    21773644.845
       233.000         188.000
  -9376442.32849  -7273834.90746  22719216.424    22719216.787    22719233.748
       222.000         167.000
 -17179357.00749 -13325830.83847  19197893.217    19197892.624    19197902.110
       229.000         199.000
   5645529.94949   4404680.45046  21215121.889    21215120.919    21215133.974
       228.000         181.000
  -4245259.10349  -3291115.80745  23272794.856    23272794.021    23272809.680
       213.000         155.000
 01 12 19 22  9 59.9960000  0  8G 4G 2G28G26G 9G 7G 8G11
 -12916594.06849  -9425119.46946  21936473.271    21936474.296    21936490.320
       223.000         168.000
   4066019.67949   3167746.88446  22355103.412    22355102.372    22355116.907
       223.000         173.000
  -3088788.99249  -2399741.82947  20318862.043    20318861.445    20318870.130
       243.000         206.000
 -11741251.25849  -9129903.37847  21776681.710    21776681.558    21776693.486
       234.000         188.000
  -9501598.12349  -7371358.63746  22695399.889    22695400.236    22695417.141
       223.000         166.000
 -17197526.44549 -13339988.83647  19194435.613    19194435.043    19194444.585
       230.000         200.000
   5716356.45949   4459869.79546  21228599.727    21228598.837    21228611.990
       227.000         182.000
  -4204025.93849  -3258986.18745  23280641.218    23280640.480    23280656.201
       215.000         154.000
 01 12 19 22 10 29.9960000  0  8G 4G 2G28G26G 9G 7G 8G11
 -13044716.17249  -9524954.63946  21912092.307    21912093.263    21912109.170
       223.000         169.000
   4097229.18849   3192065.85346  22361042.506    22361041.456    22361056.002
       223.000         172.000
  -3078001.46249  -2391336.00947  20320914.827    20320914.241    20320922.963
       244.000         206.000
 -11724741.85449  -9117038.97447  21779823.419    21779823.252    21779835.212
       234.000         188.000
  -9626550.49649  -7468723.85946  22671622.018    22671622.397    22671639.253
       222.000         167.000
 -17215264.37849 -13353810.59647  19191060.260    19191059.626    19191069.146
       231.000         200.000
   5787514.96749   4515317.83846  21242140.826    21242139.951    21242153.172
       228.000         182.000
  -4162351.15949  -3226512.45445  23288571.655    23288570.965    23288586.788
       218.000         153.000
 01 12 19 22 10 59.9960000  0  8G 4G 2G28G26G 9G 7G 8G11
 -13172603.94349  -9624607.24346  21887755.980    21887756.815    21887772.607
       224.000         169.000
   4128665.09949   3216561.23146  22367024.618    22367023.583    22367038.159
       221.000         171.000
  -3066944.09149  -2382719.92547  20323018.994    20323018.414    20323027.156
       243.000         206.000
 -11707695.64349  -9103756.27547  21783067.188    21783067.070    21783079.093
       233.000         188.000
  -9751247.25149  -7565889.87646  22647892.742    22647893.191    22647909.985
       222.000         166.000
 -17232522.10749 -13367258.16347  19187776.245    19187775.586    19187785.096
       231.000         200.000
   5859053.64049   4571062.10446  21255754.356    21255753.412    21255766.666
       228.000         180.000
  -4120186.75149  -3193657.18445  23296595.415    23296594.596    23296610.495
       215.000         154.000
 01 12 19 22 11 29.9960000  0  8G 4G 2G28G26G 9G 7G 8G11
 -13300436.03249  -9724216.43746  21863430.256    21863431.008    21863446.679
       224.000         169.000
   4160146.06349   3241091.72046  22373015.319    22373014.298    22373028.931
       223.000         171.000
  -3055798.28849  -2374034.93547  20325139.989    20325139.399    20325148.183
       243.000         206.000
 -11690296.41349  -9090198.50647  21786378.163    21786378.062    21786390.084
       233.000         188.000
  -9875867.56349  -7662996.32346  22624178.077    22624178.529    22624195.247
       223.000         166.000
 -17249482.38949 -13380473.95447  19184548.878    19184548.160    19184557.688
       231.000         200.000
   5930788.88949   4626959.55046  21269405.282    21269404.302    21269417.588
       228.000         181.000
  -4077716.34349  -3160563.50145  23304677.235    23304676.494    23304692.495
       216.000         151.000
 01 12 19 22 11 59.9960000  0  8G 4G 2G28G26G 9G 7G 8G11
 -13428211.25349  -9823781.29746  21839115.340    21839116.001    21839131.577
       225.000         169.000
   4191670.38049   3265655.99646  22379014.323    22379013.256    22379027.937
       223.000         171.000
  -3044566.06449  -2365282.61247  20327277.434    20327276.837    20327285.662
       244.000         206.000
 -11672548.63149  -9076369.12447  21789755.529    21789755.387    21789767.414
       232.000         188.000
 -10000411.26149  -7760043.09046  22600478.020    22600478.469    22600495.106
       220.000         166.000
 -17266148.69049 -13393460.67247  19181377.359    19181376.673    19181386.228
       231.000         201.000
   6002716.94949   4683007.23846  21283092.937    21283091.890    21283105.198
       228.000         180.000
  -4034943.99149  -3127234.54045  23312816.670    23312815.869    23312831.867
       214.000         149.000
 01 12 19 22 12 29.9960000  0  8G 4G 2G28G26G 9G 7G 8G11
 -13555691.00049  -9923115.90946  21814856.626    21814857.230    21814872.723
       225.000         168.000
   4223474.00849   3290437.91146  22385066.376    22385065.351    22385080.138
       223.000         173.000
  -3033011.62749  -2356279.22247  20329476.179    20329475.589    20329484.444
       244.000         206.000
 -11654218.82949  -9062086.22347  21793243.714    21793243.504    21793255.536
       233.000         188.000
 -10124640.54549  -7856844.83946  22576837.657    22576838.191    22576854.804
       222.000         164.000
 -17282286.70849 -13406035.74247  19178306.378    19178305.695    19178315.297
       231.000         201.000
   6075071.24749   4739387.06446  21296861.681    21296860.580    21296873.914
       228.000         180.000
  -3991636.19849  -3093488.35345  23321057.981    23321057.192    23321073.219
       215.000         152.000
 01 12 19 22 12 59.9960000  0  8G 4G 2G28G26G 9G 7G 8G11
 -13683074.33249 -10022375.37346  21790616.233    21790616.790    21790632.193
       226.000         170.000
   4255354.68249   3315279.86246  22391133.169    22391132.136    22391146.989
       223.000         173.000
  -3021337.09449  -2347182.24747  20331697.866    20331697.224    20331706.070
       243.000         206.000
 -11635511.77149  -9047509.35347  21796803.649    21796803.366    21796815.428
       233.000         188.000
 -10248755.22749  -7953557.31046  22553219.143    22553219.716    22553236.279
       222.000         164.000
 -17298100.07749 -13418357.83247  19175297.228    19175296.492    19175306.125
       230.000         201.000
   6147647.53649   4795939.87346  21310672.604    21310671.522    21310684.880
       228.000         180.000
  -3947997.16149  -3059484.06745  23329362.306    23329361.526    23329377.641
       217.000         155.000
 01 12 19 22 13 29.9960000  0  8G 4G 2G28G26G 9G 7G 8G11
 -13810260.43649 -10121481.16346  21766413.273    21766413.890    21766429.174
       224.000         168.000
   4287410.61349   3340258.38146  22397233.379    22397232.322    22397247.196
       222.000         172.000
  -3009444.57449  -2337915.41547  20333961.016    20333960.339    20333969.188
       244.000         206.000
 -11616331.78949  -9032563.97646  21800453.558    21800453.252    21800465.290
       234.000         187.000
 -10372655.17349  -8050102.46246  22529641.613    22529642.144    22529658.623
       224.000         165.000
 -17313492.25649 -13430351.72847  19172368.185    19172367.465    19172377.126
       231.000         201.000
   6220542.09749   4852740.66946  21324544.162    21324543.031    21324556.442
       228.000         180.000
  -3903931.09249  -3025147.01045  23337747.937    23337747.161    23337763.303
       217.000         157.000
 01 12 19 22 13 59.9960000  0  8G 4G 2G28G26G 9G 7G 8G11
 -13937246.81349 -10220431.31246  21742248.314    21742248.956    21742264.194
       224.000         169.000
   4319641.28149   3365373.04046  22403366.839    22403365.715    22403380.701
       224.000         172.000
  -2997334.67049  -2328479.20047  20336265.557    20336264.842    20336273.693
       244.000         207.000
 -11596682.20849  -9017252.68746  21804192.700    21804192.467    21804204.544
       234.000         187.000
 -10496338.94049  -8146479.17446  22506105.238    22506105.727    22506122.116
       224.000         165.000
 -17328465.31649 -13442019.03747  19169518.904    19169518.175    19169527.860
       231.000         201.000
   6293751.68349   4909786.94046  21338475.540    21338474.466    21338487.946
       228.000         179.000
  -3859441.21349  -2990479.70045  23346214.279    23346213.441    23346229.615
       217.000         156.000
 01 12 19 22 14 29.9960000  0  8G 4G 2G28G26G 9G 7G 8G11
 -14064111.71749 -10319286.78746  21718106.478    21718107.150    21718122.320
       223.000         169.000
   4351965.90149   3390560.94046  22409518.088    22409516.985    22409532.028
       223.000         170.000
  -2985088.48049  -2318936.79047  20338596.026    20338595.277    20338604.118
       244.000         206.000
 -11576646.53249  -9001640.53546  21808005.355    21808005.166    21808017.250
       232.000         186.000
 -10619885.14049  -8242748.67046  22482595.009    22482595.456    22482611.781
       224.000         165.000
 -17343101.82549 -13453424.09847  19166733.682    19166732.936    19166742.627
       231.000         201.000
   6367193.53049   4967014.20346  21352451.176    21352450.103    21352463.597
       228.000         179.000
  -3814610.47549  -2955546.78345  23354745.549    23354744.583    23354760.760
       213.000         152.000
 01 12 19 22 14 59.9960000  0  8G 4G 2G28G26G 9G 7G 8G11
 -14190868.11449 -10418057.71546  21693985.312    21693985.992    21694001.137
       224.000         169.000
   4384368.47249   3415809.56246  22415684.113    22415683.095    22415698.180
       223.000         172.000
  -2972722.07449  -2309300.70047  20340949.353    20340948.577    20340957.433
       244.000         206.000
 -11556243.24049  -8985741.92746  21811888.040    21811887.808    21811899.833
       231.000         186.000
 -10743307.70849  -8338921.84746  22459108.358    22459108.718    22459124.932
       224.000         166.000
 -17357419.43649 -13464580.67047  19164009.122    19164008.374    19164018.056
       231.000         201.000
   6440849.29849   5024408.15646  21366467.584    21366466.464    21366479.955
       228.000         178.000
  -3769457.40749  -2920362.70845  23363338.031    23363337.065    23363353.225
       211.000         149.000
 01 12 19 22 15 29.9960000  0  8G 4G 2G28G26G 9G 7G 8G11
 -14317357.65249 -10516620.71046  21669915.030    21669915.637    21669930.675
       225.000         169.000
   4417004.57349   3441240.16746  22421894.632    22421893.617    22421908.714
       224.000         170.000
  -2960080.02349  -2299449.81747  20343355.113    20343354.345    20343363.204
       244.000         206.000
 -11535319.60349  -8969437.86146  21815869.890    21815869.535    21815881.537
       233.000         186.000
 -10866449.22249  -8434876.00346  22435675.117    22435675.477    22435691.612
       223.000         166.000
 -17371264.20449 -13475368.78947  19161374.573    19161373.811    19161383.445
       232.000         200.000
   6514872.27249   5082088.25446  21380553.890    21380552.725    21380566.182
       229.000         179.000
  -3723828.78649  -2884808.05645  23372020.937    23372019.950    23372036.152
       215.000         149.000
 01 12 19 22 15 59.9960000  0  8G 4G 2G28G26G 9G 7G 8G11
 -14443725.87849 -10615089.17446  21645867.815    21645868.399    21645883.291
       223.000         170.000
   4449725.84149   3466737.13546  22428121.450    22428120.399    22428135.472
       224.000         172.000
  -2947310.86449  -2289499.88747  20345785.084    20345784.312    20345793.158
       244.000         206.000
 -11514026.75549  -8952846.07846  21819921.931    21819921.503    21819933.518
       234.000         186.000
 -10989456.03449  -8530725.20546  22412267.446    22412267.831    22412283.918
       223.000         164.000
 -17384786.19649 -13485905.40147  19158801.456    19158800.672    19158810.244
       232.000         200.000
   6589111.87549   5139937.13646  21394681.388    21394680.190    21394693.644
       228.000         178.000
  -3677875.33849  -2849000.33245  23380765.652    23380764.725    23380780.865
       210.000         147.000
 01 12 19 22 16 29.9960000  0  8G 4G 2G28G26G 9G 7G 8G11
 -14569872.37449 -10713384.87246  21621862.688    21621863.292    21621878.068
       224.000         170.000
   4482629.75849   3492376.42046  22434383.013    22434381.928    22434397.007
       223.000         169.000
  -2934317.07549  -2279374.91047  20348257.754    20348256.990    20348265.863
       243.000         205.000
 -11492269.59649  -8935892.49946  21824062.162    21824061.787    21824073.843
       234.000         186.000
 -11112228.27649  -8626391.62346  22388904.312    22388904.824    22388920.838
       222.000         164.000
 -17397889.33649 -13496115.63847  19156307.986    19156307.214    19156316.754
       232.000         200.000
   6663663.39149   5198029.06046  21408868.235    21408867.008    21408880.433
       228.000         178.000
  -3631501.88649  -2812865.30345  23389590.345    23389589.371    23389605.602
       215.000         151.000
 01 12 19 22 16 59.9960000  0  8G 4G 2G28G26G 9G 7G 8G11
 -14695848.89749 -10811548.13646  21597889.925    21597890.542    21597905.185
       224.000         169.000
   4515661.77249   3518115.53646  22440668.960    22440667.833    22440682.870
       222.000         169.000
  -2921153.29549  -2269117.47147  20350762.785    20350762.010    20350770.921
       242.000         205.000
 -11470105.53449  -8918621.85646  21828279.831    21828279.503    21828291.567
       232.000         185.000
 -11234818.39249  -8721916.12346  22365575.998    22365576.463    22365592.410
       222.000         165.000
 -17410630.03149 -13506043.45247  19153883.543    19153882.756    19153892.236
       233.000         201.000
   6738470.03849   5256319.80846  21423103.591    21423102.376    21423115.719
       228.000         177.000
  -3584765.49249  -2776447.45845  23398484.002    23398483.090    23398499.460
       214.000         147.000
 01 12 19 22 17 29.9960000  0  8G 4G 2G28G26G 9G 7G 8G11
 -14821532.67649 -10909483.30846  21573972.754    21573973.463    21573988.009
       225.000         169.000
   4548941.72649   3544047.87346  22447001.983    22447000.892    22447015.918
       222.000         168.000
  -2907699.83149  -2258634.30847  20353322.870    20353322.153    20353331.075
       243.000         204.000
 -11447417.40649  -8900942.86146  21832597.283    21832596.948    21832609.025
       232.000         184.000
 -11357104.50849  -8817203.74046  22342305.484    22342305.969    22342321.883
       224.000         167.000
 -17422889.96549 -13515596.64647  19151550.636    19151549.800    19151559.228
       233.000         201.000
   6813649.33349   5314900.92646  21437409.863    21437408.660    21437421.942
       229.000         177.000
  -3537548.75949  -2739655.31845  23407469.179    23407468.254    23407484.624
       213.000         147.000
 01 12 19 22 17 59.9960000  0  8G 4G 2G28G26G 9G 7G 8G11
 -14947074.40349 -11007307.78546  21550082.587    21550083.420    21550097.824
       226.000         171.000
   4582316.06049   3570053.73046  22453353.025    22453351.910    22453366.912
       221.000         168.000
  -2894110.43349  -2248045.21247  20355908.875    20355908.166    20355917.084
       243.000         204.000
 -11424361.49949  -8882977.28046  21836984.721    21836984.392    21836996.550
       233.000         184.000
 -11479238.21649  -8912372.60146  22319064.101    22319064.479    22319080.328
       226.000         168.000
 -17434824.46149 -13524896.25347  19149279.585    19149278.753    19149288.136
       233.000         201.000
   6889045.39149   5373650.95146  21451757.397    21451756.199    21451769.452
       228.000         176.000
  -3490007.60549  -2702610.37645  23416516.134    23416515.201    23416531.564
       214.000         148.000
 01 12 19 22 18 29.9950000  0  8G 4G 2G28G26G 9G 7G 8G11
 -15072439.06749 -11104994.29546  21526226.297    21526227.092    21526241.366
       227.000         171.000
   4615811.77749   3596154.17346  22459727.132    22459726.030    22459741.094
       222.000         168.000
  -2880357.39249  -2237328.59247  20358526.030    20358525.323    20358534.225
       242.000         204.000
 -11400913.19549  -8864705.93846  21841446.681    21841446.477    21841458.647
       232.000         183.000
 -11601185.02049  -9007395.83146  22295858.267    22295858.605    22295874.342
       227.000         170.000
 -17446406.64549 -13533921.33147  19147075.566    19147074.735    19147084.081
       233.000         201.000
   6964681.77549   5432588.26446  21466150.703    21466149.486    21466162.731
       228.000         176.000
  -3442117.97849  -2665293.93545  23425629.314    23425628.397    23425644.786
       214.000         149.000
 01 12 19 22 18 59.9950000  0  8G 4G 2G28G26G 9G 7G 8G11
 -15197639.68549 -11202552.99946  21502401.228    21502401.998    21502416.166
       226.000         173.000
   4649423.22749   3622344.79346  22466123.412    22466122.245    22466137.222
       223.000         168.000
  -2866447.75249  -2226489.94647  20361172.966    20361172.272    20361181.174
       242.000         204.000
 -11377081.59149  -8846135.90246  21845981.690    21845981.512    21845993.724
       231.000         184.000
 -11722958.64249  -9102284.11846  22272685.404    22272685.687    22272701.328
       228.000         169.000
 -17457646.87049 -13542679.94847  19144936.609    19144935.793    19144945.142
       233.000         201.000
   7040553.11849   5491708.64546  21480588.652    21480587.449    21480600.740
       227.000         177.000
  -3393886.92349  -2627711.40645  23434807.478    23434806.597    23434822.950
       210.000         147.000
 01 12 19 22 19 29.9950000  0  8G 4G 2G28G26G 9G 7G 8G11
 -15322663.70649 -11299974.10646  21478609.767    21478610.497    21478624.569
       227.000         172.000
   4683155.03549   3648629.17346  22472542.562    22472541.318    22472556.305
       223.000         168.000
  -2852376.34249  -2215525.23247  20363850.705    20363850.002    20363858.906
       242.000         203.000
 -11352864.44449  -8827265.45446  21850590.053    21850589.904    21850602.206
       231.000         183.000
 -11844547.22849  -9197028.23346  22249547.752    22249547.981    22249563.513
       225.000         167.000
 -17468540.52049 -13551168.50747  19142863.658    19142862.819    19142872.136
       234.000         202.000
   7116660.58749   5551013.01946  21495071.523    21495070.340    21495083.698
       227.000         176.000
  -3345312.82249  -2589861.59145  23444051.038    23444050.053    23444066.390
       212.000         151.000
 01 12 19 22 19 59.9950000  0  8G 4G 2G28G26G 9G 7G 8G11
 -15447433.57249 -11397197.18946  21454866.660    21454867.380    21454881.393
       227.000         174.000
   4717081.98149   3675065.61246  22478998.771    22478997.504    22479012.527
       221.000         167.000
  -2838068.58149  -2204376.35347  20366573.395    20366572.693    20366581.605
       242.000         203.000
 -11328189.88649  -8808038.57346  21855285.497    21855285.364    21855297.647
       233.000         183.000
 -11965874.33949  -9291568.58046  22226459.701    22226459.963    22226475.439
       224.000         165.000
 -17479014.74649 -13559330.23747  19140870.499    19140869.678    19140878.931
       234.000         202.000
   7193076.38249   5610557.64846  21509613.160    21509611.933    21509625.309
       228.000         176.000
  -3296323.56249  -2551688.27645  23453373.287    23453372.453    23453388.811
       210.000         144.000
 01 12 19 22 20 29.9950000  0  8G 4G 2G28G26G 9G 7G 8G11
 -15572007.40049 -11494267.52646  21431160.943    21431161.594    21431175.515
       228.000         176.000
   4751142.85649   3701606.44046  22485480.331    22485479.152    22485494.243
       221.000         169.000
  -2823585.70849  -2193091.01847  20369329.388    20369328.698    20369337.639
       242.000         203.000
 -11303121.72849  -8788505.00846  21860055.909    21860055.714    21860068.019
       232.000         184.000
 -12086998.87749  -9385951.10646  22203410.214    22203410.490    22203425.907
       224.000         166.000
 -17489132.29049 -13567214.03347  19138945.202    19138944.380    19138953.611
       234.000         202.000
   7269737.13649   5670293.14546  21524201.381    21524200.111    21524213.548
       226.000         175.000
  -3246982.50149  -2513240.82745  23462762.807    23462761.894    23462778.268
       210.000         151.000
 01 12 19 22 20 59.9950000  0  8G 4G 2G28G26G 9G 7G 8G11
 -15696420.01049 -11591212.23646  21407485.921    21407486.520    21407500.378
       228.000         177.000
   4785300.16849   3728222.39846  22491980.187    22491979.117    22491994.369
       219.000         167.000
  -2808965.58649  -2181698.73447  20372111.507    20372110.830    20372119.759
       242.000         203.000
 -11277700.53349  -8768696.33546  21864893.383    21864893.226    21864905.529
       230.000         183.000
 -12207956.10349  -9480203.23446  22180392.576    22180392.902    22180408.249
       224.000         167.000
 -17498932.43449 -13574850.50347  19137080.291    19137079.465    19137088.680
       233.000         202.000
   7346603.06049   5730188.51046  21538828.483    21538827.298    21538840.817
       226.000         176.000
  -3197329.84549  -2474550.53945  23472211.469    23472210.548    23472226.828
       214.000         150.000
 01 12 19 22 21 29.9950000  0  8G 4G 2G28G26G 9G 7G 8G11
 -15820650.48049 -11688015.01446  21383845.586    21383846.095    21383859.917
       228.000         176.000
   4819571.84649   3754927.48146  22498501.822    22498500.853    22498516.246
       219.000         168.000
  -2794190.14749  -2170185.42547  20374923.215    20374922.522    20374931.445
       242.000         203.000
 -11251911.05349  -8748600.68446  21869801.059    21869800.837    21869813.199
       232.000         184.000
 -12328725.82549  -9574309.27046  22157410.706    22157411.002    22157426.254
       225.000         169.000
 -17508398.88749 -13582226.95847  19135278.819    19135278.039    19135287.290
       233.000         203.000
   7423689.62049   5790255.80146  21553497.599    21553496.475    21553510.033
       225.000         175.000
  -3147350.05149  -2435605.42945  23481722.469    23481721.519    23481737.986
       218.000         152.000
 01 12 19 22 21 59.9950000  0  8G 4G 2G28G26G 9G 7G 8G11
 -15944667.83749 -11784651.74946  21360245.717    21360246.216    21360260.008
       228.000         176.000
   4853985.68649   3781743.32746  22505050.655    22505049.688    22505065.160
       222.000         168.000
  -2779231.22549  -2158529.14247  20377769.836    20377769.157    20377778.034
       243.000         203.000
 -11225728.04149  -8728198.38846  21874783.589    21874783.375    21874795.755
       233.000         185.000
 -12449278.01749  -9668245.82446  22134470.232    22134470.515    22134485.641
       227.000         170.000
 -17517505.49649 -13589323.01247  19133545.897    19133545.105    19133554.368
       234.000         203.000
   7501022.68549   5850515.17246  21568213.591    21568212.564    21568226.153
       226.000         174.000
  -3097017.51449  -2396385.35045  23491300.619    23491299.601    23491316.059
       211.000         151.000
 01 12 19 22 22 29.9950000  0  8G 4G 2G28G26G 9G 7G 8G11
 -16068440.74849 -11881097.99246  21336692.370    21336692.872    21336706.598
       228.000         177.000
   4888570.25449   3808692.22546  22511632.105    22511631.054    22511646.468
       221.000         166.000
  -2764060.77349  -2146708.02347  20380656.699    20380656.037    20380664.910
       242.000         203.000
 -11199125.90649  -8707469.51446  21879845.892    21879845.657    21879858.037
       231.000         185.000
 -12569582.08249  -9761989.03546  22111577.026    22111577.235    22111592.262
       226.000         169.000
 -17526225.32549 -13596117.67747  19131886.588    19131885.779    19131895.022
       233.000         203.000
   7578628.24449   5910986.86346  21582981.554    21582980.491    21582994.164
       225.000         173.000
  -3046306.22449  -2356870.26045  23500950.712    23500949.702    23500966.304
       210.000         148.000
 01 12 19 22 22 59.9950000  0  8G 4G 2G28G26G 9G 7G 8G11
 -16191947.44849 -11977336.80046  21313189.755    21313190.185    21313203.848
       229.000         177.000
   4923344.66449   3835789.02246  22518249.552    22518248.464    22518264.027
       219.000         165.000
  -2748659.80349  -2134707.27847  20383587.408    20383586.761    20383595.657
       242.000         203.000
 -11172088.49449  -8686401.46546  21884990.997    21884990.748    21885003.175
       230.000         186.000
 -12689616.99349  -9855522.51446  22088734.987    22088735.162    22088750.109
       227.000         169.000
 -17534541.23049 -13602597.59447  19130304.163    19130303.334    19130312.554
       234.000         203.000
   7656523.18449   5971684.05346  21597804.524    21597803.521    21597817.220
       224.000         173.000
  -2995199.75649  -2317047.17945  23510675.892    23510674.941    23510691.648
       218.000         153.000
 01 12 19 22 23 29.9950000  0  8G 4G 2G28G26G 9G 7G 8G11
 -16315317.01049 -12073468.72546  21289713.163    21289713.604    21289727.190
       229.000         178.000
   4958176.87949   3862930.86946  22524877.996    22524876.912    22524892.435
       218.000         164.000
  -2733160.22649  -2122629.69747  20386536.853    20386536.217    20386545.193
       241.000         203.000
 -11144750.61849  -8665099.28846  21890193.346    21890193.073    21890205.469
       232.000         186.000
 -12809512.24949  -9948947.18546  22065919.524    22065919.688    22065934.572
       226.000         168.000
 -17542586.73749 -13608866.81647  19128773.110    19128772.320    19128781.548
       234.000         203.000
   7734573.12149   6032502.01946  21612657.036    21612656.053    21612669.777
       224.000         173.000
  -2943832.56849  -2277020.97545  23520450.762    23520449.847    23520466.584
       208.000         144.000
 01 12 19 22 23 59.9950000  0  8G 4G 2G28G26G 9G 7G 8G11
 -16438429.75749 -12169400.51846  21266285.495    21266285.914    21266299.404
       228.000         178.000
   4993183.34249   3890208.51346  22531539.523    22531538.439    22531553.985
       218.000         163.000
  -2717445.52349  -2110384.49047  20389527.227    20389526.621    20389535.652
       242.000         202.000
 -11116998.42449  -8643474.27646  21895474.393    21895474.170    21895486.581
       231.000         185.000
 -12929149.02549 -10042170.46346  22043153.346    22043153.409    22043168.196
       226.000         167.000
 -17550246.99249 -13614835.83847  19127315.381    19127314.612    19127323.892
       234.000         204.000
   7812892.60549   6093530.01446  21627560.897    21627559.879    21627573.634
       224.000         173.000
  -2892090.56049  -2236702.59745  23530297.136    23530296.178    23530312.931
       212.000         148.000
 01 12 19 22 24 29.9950000  0  8G 4G 2G28G26G 9G 7G 8G11
 -16561295.68449 -12265139.97746  21242904.744    21242905.163    21242918.594
       229.000         178.000
   5028351.36649   3917612.02146  22538231.720    22538230.736    22538246.406
       220.000         166.000
  -2701528.52049  -2097981.64747  20392556.138    20392555.520    20392564.586
       242.000         202.000
 -11088847.72649  -8621538.74646  21900831.310    21900831.088    21900843.580
       229.000         185.000
 -13048538.12249 -10135200.72546  22020434.147    22020434.220    22020448.945
       225.000         164.000
 -17557536.61449 -13620516.06347  19125928.268    19125927.470    19125936.729
       235.000         204.000
   7891466.11549   6154755.97046  21642513.162    21642512.064    21642525.824
       225.000         172.000
  -2839989.09849  -2196104.17945  23540211.816    23540210.861    23540227.564
       211.000         143.000
 01 12 19 22 24 59.9950000  0  8G 4G 2G28G26G 9G 7G 8G11
 -16683974.53649 -12360733.65046  21219559.571    21219560.008    21219573.383
       229.000         179.000
   5063618.22149   3945092.55446  22544942.965    22544941.923    22544957.636
       220.000         168.000
  -2685471.80549  -2085469.93547  20395611.604    20395611.006    20395620.102
       242.000         203.000
 -11060363.89349  -8599343.61346  21906251.705    21906251.447    21906263.966
       232.000         185.000
 -13167740.05649 -10228085.14546  21997750.548    21997750.665    21997765.330
       224.000         165.000
 -17564519.89949 -13625957.57647  19124599.435    19124598.620    19124607.843
       235.000         204.000
   7970228.93149   6216129.42346  21657501.402    21657500.262    21657514.063
       224.000         173.000
  -2787593.19149  -2155276.31645  23550182.398    23550181.515    23550198.336
       214.000         146.000
 01 12 19 22 25 29.9950000  0  8G 4G 2G28G26G 9G 7G 8G11
 -16806360.53149 -12456099.10746  21196270.114    21196270.556    21196283.895
       230.000         179.000
   5099086.78949   3972730.25946  22551692.564    22551691.505    22551707.283
       217.000         166.000
  -2669172.87149  -2072769.48747  20398713.189    20398712.613    20398721.721
       242.000         203.000
 -11031447.06049  -8576811.11146  21911754.278    21911754.157    21911766.686
       231.000         184.000
 -13286649.61149 -10320741.72346  21975122.669    21975122.730    21975137.384
       226.000         168.000
 -17571095.77349 -13631081.62647  19123348.083    19123347.273    19123356.465
       234.000         204.000
   8049281.45749   6277728.63446  21672544.769    21672543.595    21672557.371
       224.000         171.000
  -2734802.75149  -2114140.95645  23560228.100    23560227.258    23560243.819
       206.000         140.000
 01 12 19 22 25 59.9950000  0  8G 4G 2G28G26G 9G 7G 8G11
 -16928511.23649 -12551281.21646  21173025.393    21173025.866    21173039.180
       229.000         179.000
   5134696.93949   4000478.29946  22558469.178    22558468.021    22558483.781
       221.000         165.000
  -2652691.84549  -2059927.14147  20401849.467    20401848.870    20401857.996
       242.000         203.000
 -11002160.49449  -8553990.49346  21917327.477    21917327.266    21917339.806
       230.000         183.000
 -13405324.87949 -10413215.74846  21952539.413    21952539.432    21952554.021
       226.000         171.000
 -17577326.35749 -13635936.62647  19122162.383    19122161.604    19122170.809
       234.000         204.000
   8128561.15549   6339504.87346  21687631.313    21687630.114    21687643.961
       222.000         170.000
  -2681680.42949  -2072747.02145  23570337.166    23570336.303    23570352.910
       211.000         148.000
 01 12 19 22 26 29.9950000  0  8G 4G 2G28G26G 9G 7G 8G11
 -17050367.68349 -12646234.02946  21149836.548    21149837.127    21149850.444
       229.000         179.000
   5170504.35949   4028380.04646  22565283.236    22565282.048    22565297.901
       220.000         164.000
  -2635972.83549  -2046899.36247  20405031.005    20405030.394    20405039.547
       242.000         203.000
 -10972450.97349  -8530840.29346  21922981.090    21922980.874    21922993.319
       231.000         183.000
 -13523707.76449 -10505461.92146  21930011.654    21930011.785    21930026.330
       227.000         174.000
 -17583157.24249 -13640480.17447  19121052.771    19121052.017    19121061.201
       235.000         204.000
   8208121.44049   6401499.74646  21702771.134    21702770.046    21702783.921
       223.000         171.000
  -2628172.65749  -2031052.69545  23580519.361    23580518.406    23580534.973
       211.000         144.000
 01 12 19 22 26 59.9950000  0  8G 4G 2G28G26G 9G 7G 8G11
 -17171965.69249 -12740985.45546  21126697.027    21126697.589    21126710.891
       230.000         179.000
   5206470.58849   4056405.55246  22572127.426    22572126.320    22572142.133
       219.000         164.000
  -2619054.58549  -2033716.33347  20408250.449    20408249.846    20408258.994
       242.000         203.000
 -10942360.15149  -8507392.99946  21928707.097    21928706.980    21928719.462
       228.000         182.000
 -13641834.65149 -10597508.61046  21907532.638    21907532.817    21907547.372
       226.000         173.000
 -17588628.80349 -13644743.73347  19120011.540    19120010.796    19120019.996
       235.000         204.000
   8287921.66049   6463681.58046  21717956.636    21717955.585    21717969.568
       222.000         171.000
  -2574320.72549  -1989090.26345  23590766.902    23590766.136    23590782.925
       196.000         135.000
 01 12 19 22 27 29.9950000  0  9G 4G 2G28G26G 9G 7G 8G24G11
 -17293380.52149 -12835594.13946  21103592.332    21103592.934    21103606.169
       230.000         180.000
   5242517.34149   4084493.79846  22578987.005    22578985.909    22579001.769
       221.000         165.000
  -2602015.56449  -2020439.20847  20411492.907    20411492.295    20411501.407
       242.000         203.000
 -10911969.15349  -8483711.80146  21934490.310    21934490.228    21934502.724
       228.000         182.000
 -13759781.54449 -10689415.04546  21885087.833    21885088.076    21885102.644
       224.000         169.000
 -17593821.20049 -13648789.76547  19119023.524    19119022.741    19119031.904
       235.000         204.000
   8367880.85249   6525987.28746  21733172.530    21733171.444    21733185.463
       223.000         170.000
                                  23650313.275
       197.000
  -2520205.93149  -1946922.87445  23601065.018    23601064.043    23601080.648
       206.000         151.000
 01 12 19 22 27 59.9950000  0  9G 4G 2G28G26G 9G 7G 8G24G11
 -17414518.31149 -12929986.93646  21080540.439    21080541.011    21080554.175
       229.000         180.000
   5278735.51549   4112715.60346  22585879.316    22585878.105    22585894.041
       220.000         165.000
  -2584764.37949  -2006996.75447  20414775.789    20414775.129    20414784.218
       241.000         203.000
 -10881189.96649  -8459728.10946  21940347.497    21940347.375    21940359.874
       230.000         181.000
 -13877455.31549 -10781108.67346  21862694.974    21862695.259    21862709.857
       224.000         169.000
 -17598645.04649 -13652548.61447  19118105.643    19118104.827    19118113.970
       235.000         205.000
   8448087.80749   6588486.05946  21748435.547    21748434.484    21748448.516
       222.000         169.000
    -89452.56843                  23624927.122
       198.000          81.000
  -2465739.15749  -1904481.45345  23611429.605    23611428.736    23611445.536
       211.000         138.000
 01 12 19 22 28 29.9950000  0  9G 4G 2G28G26G 9G 7G 8G24G11
 -17535392.60749 -13024174.42846  21057538.704    21057539.226    21057552.306
       230.000         181.000
   5315108.66249   4141058.17646  22592801.026    22592799.832    22592815.735
       219.000         164.000
  -2567317.64949  -1993401.92147  20418095.798    20418095.148    20418104.243
       241.000         202.000
 -10850041.76649  -8435456.88946  21946274.895    21946274.726    21946287.224
       229.000         182.000
 -13994870.13249 -10872600.51746  21840351.509    21840351.796    21840366.333
       225.000         168.000
 -17603118.56049 -13656034.48547  19117254.328    19117253.528    19117262.687
       235.000         204.000
   8528523.80649   6651163.30246  21763742.213    21763741.100    21763755.112
       223.000         169.000
   -193402.11444                  23599544.294
       203.000         127.000
  -2410939.56949  -1861780.53345  23621857.734    23621856.844    23621873.562
       200.000         142.000
 01 12 19 22 28 59.9950000  0  9G 4G 2G28G26G 9G 7G 8G24G11
 -17656052.37849 -13118194.76346  21034577.794    21034578.277    21034591.287
       230.000         180.000
   5351584.98649   4169481.16546  22599742.328    22599741.166    22599757.137
       218.000         164.000
  -2549727.27549  -1979695.17647  20421443.141    20421442.509    20421451.559
       241.000         201.000
 -10818579.55049  -8410940.98346  21952261.927    21952261.829    21952274.426
       229.000         182.000
 -14112075.50749 -10963929.18646  21818047.870    21818048.198    21818062.619
       226.000         170.000
 -17607295.32849 -13659289.12647  19116459.450    19116458.693    19116467.895
       234.000         204.000
   8609134.63949   6713976.78046  21779082.155    21779081.021    21779094.954
       223.000         169.000
   -412271.79549   -297438.68945  23574138.112    23574139.247    23574164.696
       205.000         134.000
  -2355861.76349  -1818862.80544  23632338.987    23632338.058    23632354.462
       201.000         127.000
 01 12 19 22 29 29.9950000  0  9G 4G 2G28G26G 9G 7G 8G24G11
 -17776526.22349 -13212070.22546  21011652.134    21011652.679    21011665.653
       231.000         181.000
   5388132.53349   4197959.65846  22606697.197    22606696.061    22606711.995
       219.000         163.000
  -2532024.96849  -1965901.21547  20424811.823    20424811.168    20424820.167
       242.000         201.000
 -10786837.83549  -8386207.27846  21958302.359    21958302.152    21958314.692
       230.000         181.000
 -14229101.04149 -11055117.71046  21795778.578    21795778.822    21795793.147
       228.000         172.000
 -17611208.74349 -13662338.55147  19115714.688    19115713.963    19115723.185
       235.000         204.000
   8689886.26949   6776899.97446  21794448.825    21794447.697    21794461.634
       221.000         167.000
   -545927.61949   -401585.43144  23548704.322    23548704.064    23548730.273
       201.000         128.000
  -2300539.73149  -1775754.85745  23642866.426    23642865.587    23642882.125
       217.000         155.000
 01 12 19 22 29 59.9950000  0  9G 4G 2G28G26G 9G 7G 8G24G11
 -17896787.04649 -13305779.70146  20988767.028    20988767.623    20988780.493
       230.000         181.000
   5424776.06549   4226512.92546  22613670.279    22613669.173    22613685.208
       217.000         164.000
  -2514186.04349  -1952000.79747  20428206.529    20428205.851    20428214.812
       241.000         201.000
 -10754795.03749  -8361238.96146  21964400.124    21964399.801    21964412.228
       230.000         181.000
 -14345919.87049 -11146145.16246  21773548.503    21773548.770    21773563.044
       228.000         173.000
 -17614836.04249 -13665165.03047  19115024.431    19115023.698    19115032.924
       236.000         204.000
   8770800.83049   6839950.11846  21809846.399    21809845.325    21809859.342
       220.000         167.000
   -679698.09759   -505821.47755  23523248.742    23523248.589    23523274.330
       205.000         135.000
  -2244951.37049  -1732439.35445  23653444.430    23653443.720    23653460.284
       210.000         139.000
 01 12 19 22 30 29.9950000  0  9G 4G 2G28G26G 9G 7G 8G24G11
 -18016766.60749 -13399270.03646  20965935.481    20965936.080    20965948.868
       230.000         181.000
   5461580.83149   4255191.82946  22620674.059    22620672.971    22620689.041
       218.000         163.000
  -2496145.28249  -1937943.10047  20431639.632    20431638.939    20431647.898
       242.000         201.000
 -10722388.90949  -8335987.53846  21970566.809    21970566.530    21970578.978
       229.000         182.000
 -14462464.48849 -11236958.94746  21751370.676    21751370.902    21751385.101
       228.000         173.000
 -17618113.70649 -13667719.06747  19114400.778    19114399.998    19114409.207
       236.000         204.000
   8851941.28049   6903176.28846  21825286.979    21825285.912    21825300.044
       221.000         166.000
   -813515.13949   -610093.82345  23497784.052    23497783.554    23497809.135
       202.000         132.000
  -2189034.21549  -1688867.63045  23664085.294    23664084.496    23664101.227
       204.000         147.000
 01 12 19 22 30 59.9950000  0  9G 4G 2G28G26G 9G 7G 8G24G11
 -18136425.26849 -13492510.33346  20943165.064    20943165.637    20943178.314
       231.000         181.000
   5498583.38049   4284024.86545  22627715.576    22627714.439    22627730.589
       217.000         161.000
  -2477866.23449  -1923699.73147  20435118.097    20435117.383    20435126.329
       242.000         202.000
 -10689585.77549  -8310426.75546  21976809.149    21976808.855    21976821.324
       232.000         183.000
 -14578696.22149 -11327528.92846  21729252.329    21729252.566    21729266.670
       228.000         173.000
 -17621007.02749 -13669973.61747  19113850.275    19113849.452    19113858.630
       236.000         205.000
   8933341.77849   6966605.07146  21840776.922    21840775.991    21840790.213
       219.000         167.000
   -947339.78549   -714372.08445  23472317.883    23472317.534    23472343.270
       201.000         136.000
  -2132754.18649  -1645013.14645  23674795.212    23674794.359    23674810.948
       214.000         146.000
 01 12 19 22 31 29.9950000  0  9G 4G 2G28G26G 9G 7G 8G24G11
 -18255778.14949 -13585512.37546  20920452.818    20920453.384    20920465.968
       231.000         180.000
   5535765.64549   4312997.95845  22634791.274    22634790.082    22634806.265
       216.000         162.000
  -2459366.87349  -1909284.68947  20438638.486    20438637.739    20438646.693
       241.000         201.000
 -10656406.59249  -8284572.94446  21983122.998    21983122.719    21983135.260
       231.000         183.000
 -14694630.61149 -11417867.18546  21707190.564    21707190.835    21707204.859
       228.000         173.000
 -17623535.56949 -13671943.92247  19113369.178    19113368.310    19113377.472
       236.000         205.000
   9014981.98649   7030220.64146  21856312.667    21856311.711    21856326.016
       220.000         165.000
  -1081188.28949   -818668.86045  23446847.137    23446846.734    23446872.464
       206.000         135.000
  -2076131.94949  -1600892.04545  23685570.014    23685569.264    23685586.037
       217.000         149.000
 01 12 19 22 31 59.9950000  0  9G 4G 2G28G26G 9G 7G 8G24G11
 -18374851.03549 -13678296.25746  20897793.844    20897794.390    20897806.902
       231.000         181.000
   5573099.15049   4342088.81045  22641895.760    22641894.534    22641910.816
       217.000         162.000
  -2440675.96249  -1894720.38847  20442195.311    20442194.561    20442203.496
       242.000         201.000
 -10622883.03049  -8258450.79446  21989502.468    21989502.145    21989514.685
       233.000         184.000
 -14810293.98749 -11507994.26646  21685180.452    21685180.662    21685194.625
       227.000         173.000
 -17625729.80349 -13673653.72647  19112951.644    19112950.788    19112959.929
       236.000         205.000
   9096830.97549   7093998.90846  21871888.272    21871887.202    21871901.497
       221.000         165.000
  -1215086.44849   -923004.16145  23421366.683    23421366.412    23421392.283
       207.000         140.000
  -2019198.56049  -1556528.33045  23696404.300    23696403.358    23696420.096
       206.000         137.000
 01 12 19 22 32 29.9950000  0  9G 4G 2G28G26G 9G 7G 8G24G11
 -18493726.21249 -13770926.08946  20875172.490    20875173.009    20875185.482
       230.000         181.000
   5610498.62149   4371231.12045  22649012.822    22649011.514    22649027.747
       216.000         161.000
  -2421878.35449  -1880072.95147  20445772.438    20445771.681    20445780.615
       242.000         201.000
 -10589103.14649  -8232128.90546  21995930.780    21995930.361    21995942.893
       231.000         183.000
 -14925769.17149 -11597974.70146  21663206.064    21663206.266    21663220.208
       226.000         173.000
 -17627676.64349 -13675170.74847  19112581.206    19112580.329    19112589.467
       237.000         205.000
   9178801.21749   7157871.65746  21887486.848    21887485.788    21887500.086
       221.000         166.000
  -1349117.17549  -1027442.87045  23395861.152    23395860.966    23395886.782
       208.000         137.000
  -1962041.73549  -1511990.70745  23707280.832    23707279.998    23707296.924
       217.000         149.000
 01 12 19 22 32 59.9950000  0  9G 4G 2G28G26G 9G 7G 8G24G11
 -18612232.59949 -13863268.55546  20852621.298    20852621.828    20852634.274
       230.000         181.000
   5648132.04249   4400555.74345  22656174.196    22656172.979    22656189.112
       214.000         156.000
  -2402806.16449  -1865211.54947  20449401.761    20449401.020    20449409.987
       241.000         201.000
 -10554901.90449  -8205478.68446  22002439.134    22002438.719    22002451.265
       232.000         183.000
 -15040885.97549 -11687675.89946  21641299.910    21641300.086    21641313.998
       228.000         175.000
 -17629209.58849 -13676365.25147  19112289.541    19112288.647    19112297.760
       237.000         206.000
   9261058.47349   7221968.04646  21903140.131    21903138.972    21903153.309
       221.000         165.000
  -1483109.99049  -1131851.87945  23370362.777    23370362.748    23370388.394
       208.000         138.000
  -1904495.92649  -1467149.71745  23718231.600    23718230.742    23718247.275
       208.000         137.000
 01 12 19 22 33 29.9950000  0  9G 4G 2G28G26G 9G 7G 8G24G11
 -18730381.57849 -13955332.52346  20830138.157    20830138.673    20830151.098
       230.000         182.000
   5685985.38149   4430051.71046  22663377.355    22663376.235    22663392.618
       216.000         164.000
  -2383473.22749  -1850146.96847  20453080.709    20453079.989    20453088.968
       241.000         200.000
 -10520296.50849  -8178513.54046  22009024.389    22009023.975    22009036.589
       231.000         184.000
 -15155656.35249 -11777107.14346  21619459.729    21619459.869    21619473.733
       229.000         176.000
 -17630344.71949 -13677249.76647  19112073.574    19112072.665    19112081.757
       237.000         206.000
   9343585.98549   7286275.02746  21918844.779    21918843.580    21918857.977
       221.000         166.000
  -1617076.98049  -1236240.77245  23344869.309    23344869.279    23344894.942
       210.000         140.000
  -1846577.85749  -1422018.93845  23729253.023    23729252.270    23729269.229
       214.000         143.000
 01 12 19 22 33 59.9950000  0  9G 4G 2G28G26G 9G 7G 8G24G11
 -18848282.28149 -14047203.04046  20807702.278    20807702.746    20807715.175
       231.000         183.000
   5723946.38649   4459631.62345  22670601.120    22670600.025    22670616.409
       213.000         158.000
  -2363991.98449  -1834966.82947  20456787.892    20456787.184    20456796.132
       241.000         200.000
 -10485402.04249  -8151323.14946  22015664.639    22015664.267    22015676.891
       234.000         184.000
 -15270190.18249 -11866354.07846  21597664.438    21597664.636    21597678.490
       230.000         176.000
 -17631195.92949 -13677913.04747  19111911.612    19111910.696    19111919.801
       237.000         206.000
   9426269.59449   7350703.63546  21934579.017    21934577.875    21934592.355
       220.000         165.000
  -1751127.44849  -1340694.64045  23319359.715    23319359.980    23319385.638
       206.000         139.000
  -1788402.28349  -1376687.17445  23740323.525    23740322.653    23740339.398
       214.000         142.000
 01 12 19 22 34 29.9950000  0  9G 4G 2G28G26G 9G 7G 8G24G11
 -18965928.43649 -14138875.20346  20785314.790    20785315.273    20785327.690
       232.000         184.000
   5762018.27149   4489297.89046  22677846.264    22677845.058    22677861.570
       215.000         163.000
  -2344359.03949  -1819668.47947  20460524.007    20460523.264    20460532.187
       242.000         200.000
 -10450218.10149  -8123907.18946  22022360.066    22022359.676    22022372.217
       232.000         183.000
 -15384481.83149 -11955412.30246  21575915.274    21575915.489    21575929.305
       231.000         177.000
 -17631761.50249 -13678353.75147  19111804.002    19111803.084    19111812.196
       237.000         206.000
   9509110.11949   7415254.52346  21950343.062    21950342.034    21950356.565
       219.000         165.000
  -1885255.64049  -1445209.04845  23293835.305    23293835.733    23293861.373
       207.000         141.000
  -1729968.33149  -1331154.36245  23751443.076    23751442.225    23751459.283
       207.000         133.000
 01 12 19 22 34 59.9950000  0  9G 4G 2G28G26G 9G 7G 8G24G11
 -19083245.20149 -14230290.70646  20762989.980    20762990.471    20763002.897
       231.000         184.000
   5800273.03149   4519106.69546  22685126.041    22685124.807    22685141.259
       217.000         163.000
  -2324502.23449  -1804195.69547  20464302.664    20464301.932    20464310.871
       241.000         200.000
 -10414675.70349  -8096211.92446  22029123.664    22029123.266    22029135.826
       231.000         182.000
 -15498456.99749 -12044223.92746  21554226.512    21554226.575    21554240.334
       232.000         176.000
 -17631971.42249 -13678517.32147  19111764.052    19111763.165    19111772.250
       237.000         207.000
   9592177.12349   7479981.88146  21966150.194    21966149.247    21966163.844
       219.000         164.000
  -2019387.45249  -1549726.24945  23268310.296    23268310.883    23268336.465
       209.000         142.000
  -1671206.81849  -1285366.05645  23762625.091    23762624.226    23762641.090
       209.000         143.000
 01 12 19 22 35 29.9950000  0  9G 4G 2G28G26G 9G 7G 8G24G11
 -19200310.77049 -14321510.46446  20740712.990    20740713.471    20740725.893
       231.000         184.000
   5838629.64849   4548994.79145  22692425.196    22692423.935    22692440.597
       217.000         162.000
  -2304502.50949  -1788611.53847  20468108.452    20468107.761    20468116.761
       240.000         199.000
 -10378859.19849  -8068303.05346  22035939.292    22035938.977    22035951.536
       230.000         181.000
 -15612194.21449 -12132850.13146  21532582.956    21532582.961    21532596.620
       231.000         178.000
 -17631908.39349 -13678468.20347  19111776.058    19111775.172    19111784.216
       238.000         206.000
   9675387.09349   7544820.64446  21981984.660    21981983.729    21981998.334
       220.000         164.000
  -2153601.76249  -1654307.79345  23242769.486    23242770.233    23242795.690
       208.000         143.000
  -1612201.30149  -1239387.78744  23773853.632    23773852.764    23773869.513
       209.000         129.000
 01 12 19 22 35 59.9950000  0  9G 4G 2G28G26G 9G 7G 8G24G11
 -19317058.34649 -14412482.42646  20718496.546    20718497.006    20718509.384
       232.000         184.000
   5877152.30349   4579012.38045  22699755.936    22699754.698    22699771.183
       214.000         160.000
  -2284296.04849  -1772866.29347  20471953.626    20471952.943    20471961.977
       240.000         199.000
 -10342707.22949  -8040132.78246  22042818.856    22042818.541    22042831.142
       232.000         182.000
 -15725627.27249 -12221239.31746  21510997.175    21510997.220    21511010.817
       231.000         180.000
 -17631510.17149 -13678157.90047  19111851.822    19111850.936    19111859.972
       237.000         207.000
   9758801.88849   7609818.99146  21997858.143    21997857.181    21997871.790
       219.000         165.000
  -2287831.96449  -1758901.69745  23217225.598    23217226.559    23217251.979
       209.000         141.000
  -1552890.21349  -1193171.38045  23785140.080    23785139.275    23785156.216
       205.000         137.000
 01 12 19 22 36 29.9950000  0  9G 4G 2G28G26G 9G 7G 8G24G11
 -19433458.54549 -14503183.70246  20696346.234    20696346.632    20696358.991
       232.000         185.000
   5915867.04549   4609179.57345  22707123.190    22707121.981    22707138.531
       215.000         157.000
  -2263856.48649  -1756939.40847  20475843.131    20475842.470    20475851.541
       239.000         199.000
 -10306196.74149  -8011683.14546  22049766.633    22049766.324    22049778.950
       231.000         182.000
 -15838727.72249 -12309369.32746  21489474.693    21489474.774    21489488.303
       232.000         179.000
 -17630752.25949 -13677567.32747  19111996.050    19111995.173    19112004.203
       238.000         207.000
   9842445.27049   7674995.47146  22013775.122    22013774.121    22013788.715
       221.000         166.000
  -2422049.39849  -1863485.70645  23191684.339    23191685.193    23191710.557
       210.000         144.000
  -1493250.06749  -1146698.53144  23796489.021    23796488.436    23796505.553
       198.000         130.000
 01 12 19 22 36 59.9950000  0  9G 4G 2G28G26G 9G 7G 8G24G11
 -19549480.62249 -14593590.35146  20674267.841    20674268.226    20674280.534
       232.000         185.000
   5954801.90149   4639518.28146  22714532.228    22714531.049    22714547.621
       221.000         164.000
  -2243155.71749  -1740808.98447  20479782.340    20479781.680    20479790.822
       239.000         199.000
 -10269302.83549  -7982934.75646  22056787.425    22056787.090    22056799.802
       230.000         181.000
 -15951465.35449 -12397216.64246  21468021.230    21468021.376    21468034.834
       231.000         179.000
 -17629608.35249 -13676675.97847  19112213.737    19112212.861    19112221.905
       238.000         208.000
   9926342.87949   7740370.05946  22029740.583    22029739.488    22029754.019
       220.000         163.000
  -2556224.00249  -1968036.38645  23166151.096    23166152.028    23166177.175
       211.000         144.000
  -1433255.18649  -1099949.17044  23807905.344    23807905.019    23807921.767
       200.000         126.000
 01 12 19 22 37 29.9950000  0  9G 4G 2G28G26G 9G 7G 8G24G11
 -19665254.42649 -14683803.52546  20652236.639    20652237.052    20652249.340
       232.000         186.000
   5993823.95149   4669924.94645  22721958.073    22721956.828    22721973.344
       212.000         153.000
  -2222326.43249  -1724578.41547  20483746.028    20483745.389    20483754.575
       239.000         199.000
 -10232161.16849  -7953993.29146  22063855.310    22063854.987    22063867.718
       231.000         180.000
 -16063970.55149 -12484882.83446  21446612.048    21446612.194    21446625.599
       232.000         179.000
 -17628213.09249 -13675588.77347  19112479.288    19112478.391    19112487.443
       239.000         208.000
  10010359.69849   7805837.51646  22045728.628    22045727.503    22045742.060
       220.000         164.000
  -2690485.73349  -2072655.02145  23140601.343    23140602.258    23140627.189
       213.000         145.000
  -1373041.08849  -1053029.15544  23819363.790    23819363.339    23819380.376
       200.000         130.000
 01 12 19 22 37 59.9950000  0  9G 4G 2G28G26G 9G 7G 8G24G11
 -19780745.25849 -14773796.20546  20630259.291    20630259.736    20630271.990
       231.000         187.000
   6032965.07349   4700424.42545  22729406.709    22729405.373    22729421.783
       217.000         161.000
  -2201336.82049  -1708222.92147  20487740.262    20487739.623    20487748.815
       239.000         199.000
 -10194742.81149  -7924836.23646  22070975.935    22070975.526    22070988.328
       231.000         181.000
 -16176208.99149 -12572341.16346  21425253.660    21425253.798    21425267.114
       232.000         179.000
 -17626536.28949 -13674282.18947  19112798.371    19112797.497    19112806.530
       238.000         208.000
  10094525.15449   7871420.80546  22061744.806    22061743.768    22061758.333
       220.000         164.000
  -2824800.29949  -2177314.88645  23115041.399    23115042.488    23115067.176
       213.000         146.000
  -1312578.52049  -1005915.46144  23830869.254    23830868.738    23830886.172
       196.000         129.000
 01 12 19 22 38 29.9950000  0  9G 4G 2G28G26G 9G 7G 8G24G11
 -19895952.28349 -14863567.72647  20608336.007    20608336.440    20608348.638
       232.000         188.000
   6072223.15549   4731014.97445  22736877.312    22736875.987    22736892.422
       218.000         155.000
  -2180188.99249  -1691744.14747  20491764.623    20491763.970    20491773.177
       240.000         199.000
 -10157053.23849  -7895467.84146  22078148.185    22078147.716    22078160.580
       231.000         181.000
 -16288180.70849 -12659591.67046  21403946.053    21403946.162    21403959.390
       232.000         178.000
 -17624581.86749 -13672759.27447  19113170.276    19113169.423    19113178.440
       238.000         207.000
  10178834.68649   7937116.36945  22077788.514    22077787.433    22077801.986
       220.000         162.000
  -2959167.56349  -2282015.85245  23089471.294    23089472.586    23089497.038
       212.000         146.000
  -1251872.33749   -958611.90944  23842421.527    23842420.864    23842438.135
       209.000         128.000
 01 12 19 22 38 59.9950000  0  8G 4G 2G28G26G 9G 7G 8G24
 -20010802.20049 -14953060.98846  20586480.767    20586481.129    20586493.245
       233.000         187.000
   6111668.59549   4761751.54045  22744383.573    22744382.328    22744398.864
       215.000         160.000
  -2158812.39149  -1675087.09947  20495832.482    20495831.829    20495841.064
       240.000         198.000
 -10119024.83649  -7865835.41946  22085384.808    22085384.371    22085397.198
       231.000         179.000
 -16399812.85549 -12746577.56946  21382703.029    21382703.129    21382716.291
       233.000         180.000
 -17622281.03549 -13670966.42647  19113608.139    19113607.258    19113616.251
       238.000         207.000
  10263356.25149   8002977.12245  22093872.524    22093871.432    22093886.097
       220.000         161.000
  -3093514.11049  -2386700.71245  23063905.169    23063906.710    23063930.903
       211.000         145.000
 01 12 19 22 39 29.9950000  0  8G 4G 2G28G26G 9G 7G 8G24
 -20125319.40449 -15042294.99947  20564688.805    20564689.108    20564701.200
       234.000         188.000
   6151274.10149   4792612.88545  22751920.379    22751919.145    22751935.565
       215.000         153.000
  -2137234.21049  -1658272.97647  20499938.718    20499938.053    20499947.305
       240.000         198.000
 -10080687.99149  -7835962.64946  22092680.244    22092679.704    22092692.614
       231.000         180.000
 -16511130.26949 -12833318.22046  21361519.967    21361520.000    21361533.096
       235.000         182.000
 -17619662.84449 -13668926.29047  19114106.322    19114105.467    19114114.494
       238.000         206.000
  10348060.38549   8068980.16146  22109991.264    22109990.194    22110004.935
       220.000         163.000
  -3227865.22149  -2491389.18345  23038338.307    23038339.924    23038363.914
       213.000         146.000
 01 12 19 22 39 59.9950000  0  8G 4G 2G28G26G 9G 7G 8G24
 -20239559.76149 -15131313.28547  20542949.484    20542949.757    20542961.858
       234.000         189.000
   6190981.05549   4823553.23245  22759476.466    22759475.201    22759491.722
       218.000         158.000
  -2115513.08049  -1641347.46747  20504072.135    20504071.465    20504080.725
       239.000         197.000
 -10042104.36649  -7805897.59246  22100022.377    22100021.960    22100034.969
       229.000         178.000
 -16622189.37549 -12919857.59046  21340385.986    21340386.031    21340399.075
       235.000         183.000
 -17616787.61849 -13666685.86347  19114653.395    19114652.578    19114661.639
       238.000         207.000
  10432886.03049   8135077.89045  22126133.173    22126132.104    22126146.821
       219.000         162.000
  -3362276.95449  -2596124.95745  23012760.005    23012761.616    23012785.335
       211.000         147.000
 01 12 19 22 40 29.9950000  0  8G 4G 2G28G26G 9G 7G 8G24
 -20353353.87649 -15219983.86847  20521294.997    20521295.318    20521307.426
       233.000         189.000
   6230955.82749   4854702.29445  22767083.300    22767082.174    22767098.678
       215.000         153.000
  -2093482.42949  -1624180.78047  20508264.506    20508263.811    20508273.017
       240.000         197.000
 -10003110.56149  -7775512.91846  22107442.662    22107442.294    22107455.331
       231.000         179.000
 -16732821.30849 -13006064.09746  21319333.321    21319333.335    21319346.329
       235.000         183.000
 -17613490.74949 -13664116.89347  19115280.729    19115279.937    19115289.045
       238.000         207.000
  10517997.33149   8201398.19545  22142329.477    22142328.399    22142343.166
       218.000         159.000
  -3496580.18349  -2700776.21945  22987202.336    22987203.928    22987227.545
       213.000         146.000
 01 12 19 22 40 59.9950000  0  8G 4G 2G28G26G 9G 7G 8G24
 -20466899.86549 -15308461.10647  20499687.746    20499688.088    20499700.177
       234.000         188.000
   6270997.40049   4885903.40445  22774702.998    22774701.928    22774718.463
       213.000         156.000
  -2071343.21149  -1606929.49047  20512477.494    20512476.816    20512485.939
       239.000         196.000
  -9963910.71549  -7744967.68546  22114902.281    22114901.872    22114914.876
       229.000         178.000
 -16843224.99949 -13092092.76046  21298324.021    21298324.077    21298336.983
       233.000         182.000
 -17609975.15449 -13661377.48147  19115949.710    19115948.919    19115958.051
       239.000         207.000
  10603190.75149   8267782.47645  22158541.339    22158540.298    22158555.151
       217.000         160.000
  -3630973.59649  -2805497.76645  22961627.610    22961629.164    22961652.603
       212.000         148.000
 01 12 19 22 41 29.9950000  0  8G 4G 2G28G26G 9G 7G 8G24
 -20580065.58849 -15396642.03447  20478152.931    20478153.241    20478165.270
       233.000         189.000
   6311234.95249   4917257.26045  22782360.224    22782359.006    22782375.501
       218.000         156.000
  -2048966.17249  -1589492.88447  20516735.730    20516735.034    20516744.154
       239.000         196.000
  -9924378.48849  -7714163.44946  22122425.079    22122424.684    22122437.601
       228.000         177.000
 -16953268.78749 -13177840.97146  21277383.215    21277383.279    21277396.133
       232.000         182.000
 -17606112.99549 -13658368.01347  19116684.745    19116683.913    19116693.011
       239.000         208.000
  10688593.19649   8334329.67245  22174793.083    22174791.974    22174806.869
       218.000         158.000
  -3765325.46849  -2910186.99145  22936060.686    22936062.270    22936085.434
       214.000         147.000
 01 12 19 22 41 59.9950000  0  8G 4G 2G28G26G 9G 7G 8G24
 -20692900.06849 -15484564.86247  20456681.109    20456681.441    20456693.402
       234.000         189.000
   6351616.71149   4948723.46845  22790044.763    22790043.511    22790059.961
       220.000         157.000
  -2026402.93649  -1571911.19247  20521029.392    20521028.692    20521037.869
       239.000         197.000
  -9884568.97949  -7683143.16746  22130000.466    22130000.194    22130013.239
       228.000         178.000
 -17063002.27649 -13263347.41246  21256501.419    21256501.566    21256514.319
       234.000         183.000
 -17601958.13049 -13655130.46347  19117475.445    19117474.592    19117483.651
       239.000         207.000
  10774150.61449   8400997.56845  22191074.211    22191073.140    22191088.188
       217.000         159.000
  -3899684.98049  -3014882.17045  22910492.400    22910493.950    22910516.981
       213.000         148.000
 01 12 19 22 42 29.9950000  0  9G 4G 2G28G 5G26G 9G 7G 8G24
 -20805448.62549 -15572264.89847  20435263.678    20435264.019    20435275.946
       234.000         190.000
   6392094.33849   4980264.36945  22797747.577    22797746.288    22797762.777
       212.000         155.000
  -2003701.64649  -1554221.93147  20525349.314    20525348.628    20525357.871
       239.000         197.000
   -176321.10355                  23572324.839
       212.000         148.000
  -9844533.22849  -7651946.57046  22137619.079    22137618.771    22137631.848
       228.000         176.000
 -17172471.02949 -13348647.55246  21235670.094    21235670.211    21235682.922
       235.000         184.000
 -17597560.32149 -13651703.59647  19118312.299    19118311.458    19118320.494
       239.000         207.000
  10859812.52949   8467746.94445  22207375.274    22207374.218    22207389.195
       217.000         159.000
  -4034097.96849  -3119619.03145  22884913.878    22884915.421    22884938.317
       214.000         148.000
 01 12 19 22 42 59.9950000  0  9G 4G 2G28G 5G26G 9G 7G 8G24
 -20917631.32249 -15659679.85147  20413915.880    20413916.226    20413928.126
       234.000         189.000
   6432744.89449   5011940.03645  22805483.290    22805481.971    22805498.478
       218.000         155.000
  -1980785.05149  -1536364.89547  20529710.293    20529709.571    20529718.802
       239.000         197.000
   -353267.84049   -261915.57545  23551421.988    23551420.627    23551439.928
       215.000         154.000
  -9804197.26649  -7620516.05546  22145294.852    22145294.512    22145307.603
       228.000         177.000
 -17281595.56349 -13433679.47446  21214904.316    21214904.387    21214917.050
       234.000         185.000
 -17592844.20149 -13648028.68847  19119209.753    19119208.909    19119217.917
       239.000         207.000
  10945653.48949   8534635.79945  22223710.353    22223709.355    22223724.338
       218.000         155.000
  -4168484.33449  -3224335.14545  22859340.580    22859342.008    22859364.768
       213.000         147.000
 01 12 19 22 43 29.9950000  0  9G 4G 2G28G 5G26G 9G 7G 8G24
 -21029480.32949 -15746834.78547  20392631.609    20392631.940    20392643.819
       234.000         190.000
   6473533.50049   5043723.24945  22813244.962    22813243.754    22813260.437
       220.000         155.000
  -1957688.21349  -1518367.41547  20534105.529    20534104.789    20534114.014
       239.000         197.000
   -463157.86549   -347543.98555  23530510.727    23530510.353    23530529.735
       216.000         159.000
  -9763599.22349  -7588881.31046  22153020.606    22153020.169    22153033.319
       229.000         178.000
 -17390408.80549 -13518468.82546  21194197.686    21194197.768    21194210.427
       233.000         184.000
 -17587846.57449 -13644134.41947  19120160.801    19120159.953    19120168.923
       239.000         207.000
  11031636.10149   8601635.01145  22240072.387    22240071.395    22240086.574
       216.000         157.000
  -4302877.13649  -3329056.26645  22833766.095    22833767.389    22833789.967
       214.000         148.000
 01 12 19 22 43 59.9950000  0  9G 4G 2G28G 5G26G 9G 7G 8G24
 -21141029.37249 -15833755.98147  20371404.356    20371404.728    20371416.606
       234.000         190.000
   6514423.22149   5075585.27745  22821026.056    22821024.924    22821041.573
       214.000         151.000
  -1934447.90549  -1500258.13147  20538528.021    20538527.312    20538536.539
       239.000         197.000
   -573127.97259   -433234.84745  23509584.195    23509583.352    23509602.985
       213.000         157.000
  -9722778.77049  -7557073.27946  22160788.612    22160788.100    22160801.311
       229.000         175.000
 -17498944.95349 -13603042.24646  21173543.724    21173543.848    21173556.540
       233.000         184.000
 -17582605.87349 -13640050.73847  19121158.119    19121157.255    19121166.201
       239.000         207.000
  11117721.44349   8668714.34445  22256454.185    22256453.054    22256468.136
       215.000         158.000
  -4437310.06949  -3433808.68245  22808184.019    22808185.249    22808207.532
       213.000         147.000
 01 12 19 22 44 29.9950000  0  9G 4G 2G28G 5G26G 9G 7G 8G24
 -21252187.35449 -15920372.46447  20350251.553    20350251.940    20350263.793
       234.000         191.000
   6555502.51449   5107595.04745  22828843.167    22828842.050    22828858.642
       215.000         154.000
  -1910975.43249  -1481967.94947  20542994.746    20542994.017    20543003.266
       239.000         197.000
   -683089.64049   -518919.08645  23488659.142    23488658.392    23488678.075
       214.000         154.000
  -9681650.72549  -7525025.55146  22168615.036    22168614.585    22168627.748
       226.000         175.000
 -17607113.25849 -13687329.04246  21152959.810    21152959.958    21152972.642
       234.000         186.000
 -17577035.51349 -13635710.17947  19122218.122    19122217.250    19122226.220
       239.000         207.000
  11203995.26749   8735940.49045  22272871.689    22272870.582    22272885.679
       216.000         153.000
  -4571692.31049  -3538521.54545  22782611.495    22782612.724    22782634.832
       213.000         148.000
 01 12 19 22 44 59.9950000  0  9G 4G 2G28G 5G26G 9G 7G 8G24
 -21363048.72349 -16006757.81147  20329155.242    20329155.617    20329167.446
       235.000         192.000
   6596673.87449   5139676.52945  22836677.865    22836676.756    22836693.204
       220.000         152.000
  -1887368.10849  -1463572.68547  20547487.161    20547486.403    20547495.653
       239.000         197.000
   -793140.09649   -604672.51945  23467717.248    23467716.475    23467735.873
       213.000         150.000
  -9640315.42649  -7492816.33246  22176480.889    22176480.504    22176493.659
       226.000         175.000
 -17715008.99049 -13771403.45146  21132427.899    21132427.959    21132440.579
       235.000         186.000
 -17571234.59349 -13631189.95847  19123321.990    19123321.140    19123330.118
       239.000         208.000
  11290358.16549   8803236.05445  22289305.955    22289304.952    22289320.250
       215.000         158.000
  -4706118.61949  -3643268.75545  22757030.499    22757031.770    22757053.704
       213.000         151.000
